ECMWFNIL_925_temp_000.txt.gz
Temp
18 18 18 18 18 18 18 18 17 17 17 17 17 16 16 15 15 15 14 14 14 13 13 13 12 12 12 11 11 10 10 10 9 9 9 9 9 9 8 8 8 8
18 18 18 18 18 18 18 18 18 17 17 17 17 16 16 15 15 15 14 14 14 13 13 13 12 12 12 11 11 10 10 10 9 9 9 9 8 8 8 8 8 8
18 18 18 18 18 18 18 18 17 17 17 17 17 16 16 15 15 15 14 14 14 13 13 12 12 12 12 11 11 10 10 9 9 9 9 9 8 8 8 8 8 7
18 18 18 18 18 18 18 18 17 17 17 17 16 16 16 15 15 14 14 14 13 13 13 12 12 11 11 11 10 10 10 9 9 9 8 8 8 8 8 7 7 7
18 18 18 18 18 18 18 18 17 17 17 17 16 16 16 15 15 14 14 14 13 13 12 12 11 11 11 10 10 10 9 9 9 8 8 8 8 8 7 7 7 7
18 18 18 18 18 18 18 18 18 17 17 17 16 16 16 15 15 14 14 14 13 12 12 12 11 11 10 10 10 9 9 9 8 8 8 8 7 7 7 7 7 7
17 18 18 18 18 18 18 18 18 17 17 17 16 16 16 15 15 14 14 13 13 12 12 12 11 11 10 10 10 9 9 8 8 8 8 7 7 7 7 7 6 6
17 18 18 18 18 18 18 18 18 17 17 17 16 16 16 15 15 14 14 13 13 12 12 11 11 11 10 10 10 9 9 8 8 8 7 7 7 7 6 6 6 6
15 16 17 17 17 17 17 18 18 17 17 17 16 16 15 15 15 14 14 13 13 12 12 11 11 10 10 10 9 9 8 8 8 7 7 7 7 6 6 6 6 6
14 14 15 16 17 17 17 18 18 17 17 16 16 16 15 15 14 14 13 13 13 12 12 11 11 10 10 9 9 9 8 8 7 7 7 7 6 6 6 6 6 6
15 15 14 15 16 16 17 17 18 17 16 16 16 15 15 14 14 13 13 13 13 12 12 11 10 10 9 9 8 8 8 7 7 7 7 6 6 6 6 6 6 6
16 15 14 15 15 16 16 16 17 17 16 16 15 15 14 14 13 13 13 12 12 12 11 10 10 9 9 8 8 7 7 7 6 6 6 6 6 6 6 6 6 6
15 14 14 15 15 16 16 16 16 16 16 16 15 14 14 13 13 13 12 12 11 11 10 10 9 9 8 8 7 7 7 6 6 6 6 6 5 5 5 5 5 5
14 14 14 14 15 16 16 16 16 16 15 15 15 14 14 13 13 12 12 11 11 10 10 9 9 8 8 7 7 7 7 6 6 6 5 5 5 5 5 5 5 5
13 13 13 14 14 15 16 16 15 15 15 15 14 14 13 13 12 12 11 10 10 9 9 8 8 7 7 7 7 7 6 6 6 5 5 5 5 5 5 5 5 5
13 13 13 13 14 14 15 15 14 15 14 14 14 13 13 12 12 11 11 10 9 9 8 8 8 7 7 7 7 7 6 6 6 5 5 5 4 4 4 5 5 4
13 13 13 13 14 14 14 14 14 14 14 13 13 13 12 12 12 11 10 10 9 9 8 8 7 7 7 7 7 6 6 6 5 5 5 4 4 4 4 4 4 4
13 13 13 13 14 14 13 13 13 13 13 12 12 12 12 11 11 10 10 9 9 8 8 8 7 7 7 7 7 6 6 6 5 5 4 4 4 4 4 4 4 4
12 12 12 12 13 12 11 11 11 12 12 11 11 11 11 11 10 10 9 9 9 8 8 8 7 7 7 7 6 6 6 5 5 5 4 4 4 4 4 4 4 3
12 12 12 11 11 11 10 10 11 11 11 11 11 11 11 10 9 9 9 9 8 8 8 8 8 7 7 7 6 6 6 5 5 5 4 4 4 4 4 4 3 3
12 12 11 11 11 10 10 10 10 11 11 11 11 11 10 10 9 9 9 9 8 8 8 8 8 8 7 7 6 6 6 5 5 5 4 4 4 4 4 3 3 3
11 11 11 10 10 10 10 10 10 11 11 11 10 10 10 10 9 9 9 9 8 8 8 8 8 8 7 7 6 6 6 5 5 4 4 4 4 3 3 3 3 2
10 10 10 10 10 10 10 10 11 11 10 10 10 10 10 10 9 9 9 9 8 8 8 8 8 8 7 7 7 6 6 5 5 4 4 3 3 3 3 2 2 2
10 10 10 10 10 10 9 9 10 11 10 11 11 10 10 10 9 9 9 8 8 8 8 8 8 7 7 7 7 6 5 5 4 4 3 3 3 3 2 2 2 1
9 10 10 10 9 9 10 10 11 11 11 11 11 10 10 10 9 9 9 8 8 8 8 8 8 7 7 7 6 6 5 5 4 3 3 3 3 2 2 1 1 1
9 9 10 10 10 10 11 11 11 11 10 10 10 10 10 9 9 9 9 8 8 8 8 8 7 7 7 7 6 6 5 5 4 3 3 3 2 2 1 1 1 1

ECMWFNIL_925_temp_003.txt.gz
Temp
19 19 19 18 18 18 18 18 17 17 17 16 16 16 15 15 14 14 14 13 13 13 12 12 12 12 11 11 11 10 10 9 9 9 9 9 9 8 8 8 9 8
18 19 19 18 18 18 18 18 17 17 17 17 17 16 16 15 14 14 14 13 13 13 12 12 12 11 11 11 11 10 10 9 9 9 9 8 8 8 8 8 8 8
18 18 19 19 18 18 18 18 17 17 17 17 17 16 16 15 15 14 14 13 13 13 12 12 12 11 11 11 11 10 9 9 9 9 8 8 8 8 8 8 8 8
18 18 18 19 19 18 18 17 17 17 17 17 17 16 16 15 15 14 14 13 13 13 12 12 12 11 11 11 11 10 9 9 9 8 8 8 8 8 8 8 8 7
18 18 18 19 19 18 18 17 17 18 18 17 17 17 16 15 15 14 14 13 13 13 12 12 12 11 11 11 10 10 9 9 8 8 8 8 8 8 7 7 7 7
18 18 19 18 19 18 18 18 17 18 18 17 17 17 16 16 15 15 14 13 13 12 12 12 12 11 11 11 10 10 9 9 8 8 8 8 8 7 7 7 7 7
17 17 18 18 18 18 18 18 18 18 18 18 17 17 16 16 15 15 14 14 13 12 12 12 11 11 11 10 10 9 9 9 8 8 8 8 8 8 7 7 7 7
16 16 17 17 18 18 18 18 18 18 18 17 17 17 16 16 15 15 14 14 13 12 12 11 11 11 10 10 9 9 9 8 8 8 8 8 7 7 7 7 7 7
18 17 16 16 16 17 18 18 18 17 18 17 17 17 16 16 16 15 14 13 13 12 12 11 11 10 10 9 9 9 8 8 8 7 7 7 7 7 7 7 7 7
18 18 17 15 15 16 17 17 17 17 17 17 17 17 16 16 16 15 14 13 12 12 11 11 10 10 9 9 9 8 8 8 7 7 7 7 7 7 7 7 7 7
16 17 16 15 15 16 17 17 17 16 17 17 17 17 16 16 15 15 14 13 12 12 11 11 10 10 9 9 9 9 8 8 7 7 7 7 7 7 7 6 6 7
15 15 15 15 15 15 16 16 16 15 16 16 17 17 16 16 15 14 14 13 12 12 11 10 10 9 9 9 9 9 8 8 8 7 7 7 6 6 6 6 6 6
14 14 14 15 15 14 15 15 15 15 15 15 16 17 16 15 15 14 13 13 12 12 11 11 10 10 10 9 9 9 8 8 8 7 7 7 7 6 6 6 6 6
13 13 14 14 14 14 14 14 14 14 15 15 16 16 15 15 14 14 13 12 12 12 11 11 10 10 10 9 9 9 8 8 8 7 7 7 7 6 5 5 5 5
12 12 13 13 13 13 13 13 14 14 14 15 15 15 15 14 14 13 13 12 12 11 11 11 10 10 10 9 9 8 8 8 8 7 7 7 6 6 5 5 5 5
12 12 12 12 12 12 13 13 13 13 13 13 13 13 13 12 12 12 12 12 12 11 11 10 10 10 10 9 8 8 8 7 7 7 7 6 6 5 5 5 5 5
12 11 11 12 12 12 12 12 12 12 11 11 10 11 12 12 12 12 12 12 12 11 10 10 10 10 9 8 8 8 7 7 7 7 6 6 5 5 5 5 5 5
12 11 11 11 11 11 11 11 11 11 10 10 11 12 12 12 12 12 11 11 11 11 10 10 9 9 8 8 8 7 7 7 6 6 6 5 5 5 5 5 5 4
12 11 11 11 11 11 11 10 10 10 10 11 11 12 12 12 12 11 11 11 10 10 10 9 9 8 8 8 8 7 7 7 6 6 6 5 5 5 5 4 4 4
13 11 11 11 11 11 10 10 10 10 11 11 11 11 12 12 11 11 11 10 10 10 9 9 9 8 8 8 7 7 7 7 6 6 5 5 5 5 5 4 4 4
12 11 11 11 11 10 10 10 10 10 11 11 11 12 12 11 11 11 10 10 9 9 9 9 8 8 8 8 8 7 7 6 6 6 5 5 5 5 5 4 4 4
10 10 10 10 11 10 10 10 10 10 11 11 11 11 11 11 11 10 10 9 9 9 9 8 8 8 8 8 8 7 7 7 6 6 5 5 5 5 5 4 4 3
9 9 9 10 10 10 10 10 10 10 11 10 10 10 10 11 10 10 10 10 9 9 8 8 8 8 8 8 8 8 7 7 6 6 5 5 5 5 4 4 3 3
9 9 9 10 10 10 10 10 10 10 10 10 10 10 10 10 10 9 9 9 9 9 9 8 8 8 8 8 8 7 7 6 6 5 5 5 5 4 4 4 3 3
8 9 9 10 10 10 10 10 10 10 10 9 10 10 10 9 9 9 9 9 9 9 9 9 8 8 8 8 7 7 7 6 5 5 5 5 4 4 4 3 3 3
8 8 9 9 10 10 10 9 9 9 8 8 9 10 9 9 9 9 9 9 9 8 9 8 8 8 8 7 7 7 6 6 5 5 5 5 4 4 4 3 3 3

ECMWFNIL_925_temp_006.txt.gz
Temp
18 19 19 19 19 18 18 18 18 17 17 17 17 16 16 15 14 14 14 13 13 13 13 13 12 12 13 13 13 13 13 12 12 12 12 12 11 11 11 11 11 12
18 18 18 19 19 18 18 18 18 17 17 17 17 17 16 15 14 14 14 13 13 13 13 13 12 12 13 12 12 13 12 12 12 12 11 11 11 11 11 11 11 11
18 18 18 18 18 18 18 18 17 17 17 17 17 17 16 15 14 14 14 13 13 13 13 13 12 12 12 12 12 12 12 12 12 11 11 11 11 11 11 11 11 11
18 18 17 18 18 18 18 18 18 17 17 17 17 16 16 15 14 14 14 14 13 13 13 13 12 12 12 12 12 12 12 12 11 11 11 11 11 11 11 11 11 11
17 18 17 17 17 17 17 18 18 18 17 17 16 16 16 15 14 14 14 14 13 13 13 13 12 12 12 12 12 12 12 12 11 11 12 11 11 11 11 11 11 10
17 17 17 17 17 17 17 17 18 18 17 17 16 16 16 15 15 15 14 14 14 13 13 13 13 12 12 12 12 12 12 12 11 11 12 11 11 11 10 10 11 11
17 17 17 17 17 17 17 17 17 17 17 17 17 16 16 16 15 15 15 14 14 14 14 13 13 13 12 13 12 12 12 12 11 11 12 11 11 11 10 10 10 11
17 17 17 17 17 17 17 17 17 17 17 17 17 16 16 16 16 15 15 15 14 14 14 13 13 13 12 12 12 12 11 11 11 12 12 11 11 11 11 10 10 10
17 17 17 17 16 16 17 17 17 17 16 17 17 16 16 16 16 16 15 15 15 14 14 14 13 13 12 12 12 12 11 11 11 11 11 11 11 11 11 11 10 10
17 17 17 17 16 16 17 16 16 16 16 16 17 16 16 16 16 16 15 15 15 14 14 13 13 13 12 12 12 12 12 11 11 11 11 11 11 11 10 10 10 10
16 16 17 17 16 16 16 16 16 16 16 16 16 16 16 16 16 16 16 15 15 14 14 13 13 13 12 12 12 11 11 11 11 11 10 10 10 10 10 10 10 10
15 16 16 16 16 15 15 15 16 16 16 16 16 16 16 16 16 16 16 15 15 14 14 14 13 13 12 12 11 11 11 11 11 10 10 10 10 10 10 9 9 9
15 15 16 16 16 16 15 15 16 16 16 16 16 16 16 16 16 16 15 15 15 14 14 14 13 13 12 12 11 11 11 10 10 10 10 9 9 9 9 9 9 9
15 15 15 15 16 16 16 16 16 16 16 16 16 16 16 16 16 15 15 15 15 14 14 13 13 12 12 12 11 11 11 10 10 10 10 9 9 9 9 9 9 8
15 15 15 15 15 16 16 16 16 16 16 16 16 15 16 15 15 14 14 14 14 14 13 13 12 12 12 11 11 11 10 10 10 10 10 9 9 9 9 8 8 8
15 15 15 15 15 15 15 15 16 16 16 15 15 15 15 15 14 13 14 14 13 13 12 12 12 11 11 11 11 10 10 10 9 9 9 9 9 9 9 8 8 8
15 15 15 16 16 15 15 15 15 16 15 15 15 15 14 13 13 13 13 13 13 13 12 11 11 11 10 10 10 10 10 10 9 9 9 9 9 9 9 9 8 8
15 15 16 16 15 15 15 15 15 15 15 15 14 14 13 12 12 13 12 12 12 12 11 10 10 10 10 10 10 9 9 9 9 9 9 9 9 9 9 9 8 8
15 15 16 15 15 15 15 15 15 15 15 14 14 13 12 12 12 12 12 12 12 11 10 10 10 10 10 9 9 9 9 9 9 9 9 9 9 8 8 8 8 8
15 15 15 15 15 15 15 15 14 14 14 14 14 13 12 12 12 12 12 12 11 10 10 10 10 10 10 9 9 9 8 8 9 9 8 9 8 8 8 8 8 8
14 14 14 14 15 15 14 14 14 14 14 14 14 13 12 13 13 12 12 12 11 11 10 9 10 10 9 9 9 8 8 8 8 8 8 8 8 8 8 7 7 7
14 14 14 14 14 14 14 14 14 14 13 13 13 13 13 13 13 12 12 11 11 11 10 9 9 9 9 8 8 8 7 7 8 8 8 8 8 8 8 7 7 7
13 13 13 13 14 14 14 14 14 14 13 13 13 13 13 13 12 12 11 11 10 10 9 9 9 8 8 8 8 8 7 7 8 8 8 8 8 8 8 8 7 7
12 13 13 13 13 14 14 14 14 13 13 13 13 13 13 12 12 11 11 10 10 9 9 9 8 8 8 8 8 7 7 7 8 9 9 9 8 8 8 8 7 7
12 12 12 13 13 14 14 14 13 13 13 13 13 13 13 12 11 11 10 9 9 9 9 9 9 8 8 8 8 7 7 7 8 8 8 8 8 8 8 8 8 7
11 11 12 12 12 13 13 13 13 13 13 13 12 12 12 11 10 10 10 9 9 9 9 9 9 8 8 8 7 7 7 6 7 8 8 8 8 8 8 8 7 7

ECMWFNIL_925_temp_009.txt.gz
Temp
20 20 19 19 19 19 19 19 19 19 19 18 18 17 17 16 16 16 16 15 15 15 15 15 15 14 15 15 15 15 15 14 14 14 14 14 14 13 13 13 13 13
20 20 20 20 20 20 19 19 19 19 19 19 18 18 17 16 16 16 15 15 15 15 15 15 14 15 15 15 15 15 15 14 14 14 14 14 14 14 13 13 13 13
20 20 20 20 20 20 19 19 19 19 18 18 18 18 17 16 16 16 15 15 15 15 14 15 14 15 15 15 15 15 15 14 14 14 14 14 14 14 13 13 13 13
19 19 20 20 20 20 19 19 19 19 19 18 18 18 17 16 16 16 15 15 15 15 15 14 14 15 15 14 15 15 14 14 14 14 14 14 14 14 13 13 13 13
19 19 19 19 20 20 19 19 19 19 19 18 18 18 17 16 16 16 15 15 15 15 15 14 14 14 14 14 15 14 14 14 14 14 14 14 14 13 13 13 13 13
19 19 19 19 19 19 19 19 19 19 19 18 18 18 17 16 16 16 16 16 15 15 15 15 15 14 14 14 14 14 14 14 14 14 14 14 14 13 13 13 13 13
19 19 19 19 19 19 19 19 19 19 19 19 18 18 17 17 17 16 16 16 16 16 15 15 15 15 14 15 15 14 14 14 14 14 14 14 14 13 13 13 13 14
18 18 18 18 18 18 18 18 18 18 18 19 18 18 17 17 17 17 16 16 16 16 16 15 15 15 15 15 15 15 14 14 14 14 14 14 14 14 13 13 13 13
18 18 18 18 18 18 17 17 17 18 18 18 19 18 18 17 17 17 17 17 17 16 16 16 16 15 15 15 15 15 14 14 14 14 14 14 14 14 14 13 13 13
17 17 17 18 17 17 18 17 17 17 18 18 18 18 18 18 18 17 17 17 17 17 16 16 16 16 15 15 15 15 14 14 14 14 14 14 14 14 14 13 13 13
17 16 16 17 16 16 16 17 17 17 17 17 17 18 18 18 18 18 17 17 17 17 17 16 16 16 15 15 15 14 14 14 14 14 14 13 13 13 13 13 13 13
16 16 16 16 16 15 14 14 16 17 17 17 17 17 17 17 17 18 18 17 17 17 17 17 16 16 15 15 15 14 14 14 14 14 13 13 13 13 12 12 12 12
15 15 15 16 16 15 14 15 16 16 17 17 17 17 17 17 17 17 18 18 18 17 17 17 16 16 15 15 15 14 14 14 13 13 13 13 13 12 12 12 12 12
15 15 16 16 16 16 16 16 16 16 16 17 16 16 17 17 17 17 17 17 18 18 17 17 16 16 15 15 15 14 14 14 13 13 13 12 12 12 12 11 11 11
16 16 16 16 16 16 16 16 16 17 17 16 16 16 17 17 17 16 15 16 17 18 17 17 16 16 15 15 15 14 14 13 13 12 12 12 12 12 11 11 11 11
17 17 17 16 16 16 16 17 17 17 17 17 17 17 16 16 16 16 15 15 17 18 17 17 16 16 15 14 14 14 13 13 13 12 12 12 12 12 11 11 11 11
17 17 17 17 17 17 17 17 17 17 17 17 17 17 16 16 16 16 15 16 16 16 16 16 15 15 14 14 13 13 13 13 12 12 12 12 12 11 11 11 11 11
17 17 17 17 17 17 17 17 17 17 17 17 17 17 16 16 16 16 16 15 15 15 15 14 14 13 13 13 13 13 12 12 12 12 12 11 11 11 11 11 11 11
17 17 17 17 17 17 17 17 17 17 17 17 17 16 16 16 15 15 15 15 14 14 14 13 12 12 12 12 12 12 12 12 12 12 11 11 11 11 11 11 11 11
17 17 17 17 17 17 17 17 17 17 17 17 16 16 16 15 15 15 15 14 14 14 13 12 12 11 12 12 12 11 11 11 12 12 11 11 11 11 11 11 10 10
16 16 16 16 16 16 16 17 17 17 16 16 16 16 16 16 15 15 14 14 14 14 13 11 10 11 11 11 11 10 10 11 11 11 10 11 11 10 10 10 10 10
16 16 16 16 16 16 16 16 16 16 16 16 16 16 16 16 15 15 14 14 14 14 12 11 10 11 10 10 10 10 9 10 10 10 10 10 10 10 10 10 10 9
15 16 15 15 15 16 16 16 16 16 16 16 16 16 16 16 16 15 15 14 14 13 12 10 10 10 9 9 9 9 9 9 10 10 10 10 10 10 10 10 10 9
15 15 15 15 15 15 15 16 16 16 16 16 16 16 16 15 16 15 15 14 13 12 11 10 10 9 9 9 9 8 9 9 10 11 11 11 11 10 10 10 10 9
15 15 15 15 15 15 15 15 15 16 16 16 15 15 15 15 15 15 15 14 13 12 10 10 9 9 8 9 8 8 8 9 10 10 11 11 11 10 10 10 10 10
15 15 14 14 14 14 14 14 15 15 15 15 15 15 15 16 15 15 14 13 11 10 10 9 9 8 8 8 8 8 8 8 8 9 10 10 10 10 10 10 10 10

ECMWFNIL_925_temp_012.txt.gz
Temp
20 20 19 19 19 19 19 18 18 18 18 18 17 17 16 16 16 16 16 15 15 15 15 15 15 15 15 16 16 15 15 15 14 14 14 14 14 14 14 14 14 14
20 19 19 19 19 19 19 19 19 18 18 18 18 17 17 16 16 16 16 15 15 15 15 15 15 15 15 15 15 15 15 15 15 14 14 14 14 14 14 14 14 14
20 19 19 19 19 19 19 19 19 19 18 18 18 17 17 16 16 16 15 15 15 15 15 15 15 15 15 15 15 15 15 15 14 14 15 15 14 14 14 14 14 14
20 20 19 19 19 19 19 19 19 19 19 18 18 18 17 16 16 16 15 15 15 15 15 15 15 15 15 15 15 15 15 15 14 14 14 14 14 14 14 14 14 14
20 20 20 20 20 20 19 19 19 19 19 19 18 18 17 16 16 16 15 15 15 15 15 15 15 15 15 15 15 15 15 15 14 14 14 14 14 14 14 14 14 14
20 20 20 20 20 20 19 19 19 19 19 19 18 18 17 17 16 16 15 15 15 15 15 15 15 15 15 15 15 15 15 15 14 14 14 14 14 14 14 14 14 14
19 19 19 19 19 19 19 19 19 19 18 19 18 18 17 17 16 16 16 15 15 15 15 15 15 15 15 15 15 15 15 15 14 14 15 14 14 14 14 14 14 14
19 19 19 19 19 19 19 18 18 18 18 19 18 18 18 17 16 16 16 16 16 16 15 15 15 15 15 15 15 15 15 15 15 14 15 15 14 14 14 14 13 14
18 18 18 18 18 18 18 18 18 18 18 18 18 18 18 17 17 17 16 16 16 16 16 15 15 15 15 15 15 15 15 15 14 14 15 15 14 14 14 14 13 13
17 16 16 17 18 18 17 18 18 17 17 17 18 18 17 17 17 17 17 17 16 16 16 16 16 15 15 15 15 15 15 15 14 14 15 15 14 14 14 14 13 13
16 16 15 16 17 17 17 17 18 17 17 17 17 18 17 17 17 17 17 17 17 17 17 16 16 16 15 15 15 15 15 15 14 14 14 14 14 14 14 14 14 13
16 16 16 16 16 17 17 17 17 17 17 16 16 17 17 17 17 17 17 17 17 17 17 17 17 16 16 15 15 15 15 15 14 14 14 14 14 14 14 14 13 13
16 16 16 16 16 16 17 17 17 17 17 16 16 16 16 16 16 15 16 17 17 17 17 17 17 17 16 16 15 15 15 15 15 14 14 14 14 14 13 13 13 13
16 16 16 16 16 16 16 16 16 16 16 16 16 16 16 16 15 14 14 15 16 16 17 17 17 17 17 16 16 15 15 15 15 14 14 14 13 13 13 13 12 12
16 16 16 16 16 16 16 16 16 16 16 16 16 16 16 16 15 14 14 16 16 16 16 16 16 16 16 16 16 16 15 15 14 14 14 13 13 13 13 12 12 12
17 17 17 16 16 16 16 16 16 16 16 16 15 15 15 15 14 14 15 16 15 15 15 15 15 15 15 15 16 16 15 15 14 14 13 13 13 12 12 12 12 11
18 17 17 17 17 17 17 17 17 17 17 16 16 16 16 15 15 15 16 16 15 15 15 15 15 15 15 15 15 15 15 14 14 13 13 13 12 12 12 12 11 11
18 18 18 18 17 17 17 17 17 17 17 17 17 17 17 16 16 16 16 16 15 15 15 15 15 15 15 15 15 15 15 14 13 13 13 13 12 12 12 12 11 11
17 17 18 17 17 17 17 17 17 17 17 17 17 17 17 17 16 16 16 16 15 15 15 15 14 14 14 15 15 15 14 13 13 12 12 12 12 12 12 12 12 11
17 17 17 17 17 17 17 17 17 17 17 17 17 17 17 16 16 16 16 15 15 15 14 14 14 14 14 14 15 14 13 13 12 12 12 12 12 12 12 12 12 11
17 17 17 17 16 16 16 16 17 17 17 17 17 16 16 17 16 16 15 15 15 14 14 14 14 14 14 14 14 13 13 12 12 12 12 12 12 12 11 11 11 11
17 16 16 16 16 16 16 16 16 16 16 16 16 16 16 16 16 16 16 15 15 14 14 13 13 14 13 13 13 13 12 12 12 12 11 11 11 11 11 11 10 10
16 16 16 16 16 16 16 16 16 16 16 16 16 16 16 16 16 16 16 16 15 15 14 13 13 13 12 12 12 12 12 11 11 11 11 11 11 11 10 10 10 10
16 16 16 16 16 15 15 16 15 15 15 16 16 16 16 16 16 16 16 16 16 15 14 13 12 12 11 11 12 11 11 11 11 11 10 10 11 10 10 10 10 10
16 16 15 15 15 15 15 15 15 15 15 15 16 16 16 16 16 16 16 15 15 14 13 12 12 11 10 10 11 10 10 10 10 10 10 11 11 11 11 11 10 10
16 15 15 15 15 15 15 15 15 15 15 15 15 15 16 16 16 16 15 14 13 12 11 11 11 10 9 9 10 10 10 9 9 9 10 10 10 10 10 10 10 10

ECMWFNIL_925_temp_015.txt.gz
Temp
19 19 18 18 18 17 17 17 17 17 17 17 16 16 16 16 15 15 15 16 16 16 16 16 15 15 15 15 15 16 16 16 16 16 16 16 16 15 15 15 15 15
19 19 18 18 18 18 18 17 17 17 17 17 17 16 16 16 15 15 15 16 16 16 16 16 15 15 15 15 16 16 15 15 15 15 15 15 15 15 14 14 14 14
19 19 19 18 18 18 18 18 18 18 17 17 17 17 16 16 16 15 16 16 16 16 16 16 16 15 15 15 16 16 15 15 14 14 15 15 15 15 14 14 14 14
19 19 19 18 18 18 18 18 18 18 18 17 17 17 17 16 16 16 16 16 16 16 16 16 15 15 15 15 15 15 15 14 14 14 14 14 14 14 14 14 14 14
19 19 19 19 18 18 18 18 18 18 18 18 17 17 17 17 16 16 16 16 16 16 16 15 15 15 15 15 15 15 15 15 15 15 14 14 14 14 14 14 14 14
18 19 19 19 19 19 18 18 18 18 18 18 18 17 17 17 17 16 16 16 16 15 15 15 15 15 15 15 15 15 15 15 15 15 14 14 14 14 14 14 14 14
15 15 16 17 18 19 19 19 18 18 18 18 18 18 17 17 17 17 17 16 16 15 15 15 15 15 15 15 15 15 15 15 15 14 14 14 14 14 14 14 14 14
15 15 16 16 17 18 19 18 18 18 18 18 18 18 18 18 17 17 17 17 16 16 15 15 15 15 15 15 15 15 15 15 15 14 14 14 14 14 14 14 14 14
16 17 17 17 17 18 18 18 18 18 18 18 18 18 18 18 17 17 17 17 16 16 16 15 15 15 15 15 15 15 15 15 14 14 14 14 14 14 14 14 14 14
17 17 17 17 16 17 18 18 18 18 18 18 18 17 17 17 17 17 17 16 16 16 16 15 15 15 15 15 15 15 15 15 14 14 15 14 14 14 14 14 14 14
16 17 17 17 17 16 17 17 18 18 18 18 18 17 17 17 16 16 16 16 16 16 16 16 16 16 15 15 15 15 15 15 15 14 15 14 14 14 14 14 14 13
16 16 17 17 17 17 17 17 17 18 18 18 18 18 18 17 17 16 16 16 16 16 16 16 16 15 15 15 15 15 15 15 15 15 15 14 14 14 14 14 14 13
16 16 16 16 16 16 16 16 17 18 18 18 18 18 18 18 17 17 16 16 16 16 16 16 15 15 15 15 15 15 15 15 15 15 14 14 14 14 14 14 14 13
16 16 15 15 15 15 15 16 16 17 17 17 17 17 17 17 17 17 16 16 16 16 16 16 15 15 15 15 15 15 15 15 15 15 15 14 14 14 14 14 13 13
15 15 15 15 15 15 15 16 16 16 16 16 17 17 17 17 16 16 16 16 16 16 15 15 15 15 15 15 15 15 15 15 15 15 15 14 14 14 14 13 13 13
16 16 16 16 16 16 16 16 16 16 16 16 16 16 16 16 16 16 16 16 16 15 15 15 15 15 15 15 15 15 15 15 15 15 14 14 14 14 13 13 13 13
16 16 16 16 16 16 17 17 16 16 16 16 16 16 16 16 16 16 16 16 16 15 15 15 15 15 15 15 15 15 15 15 15 15 14 14 14 14 13 13 13 12
17 17 17 17 17 17 16 16 16 16 16 16 16 16 16 16 16 16 16 16 16 16 15 15 15 15 15 15 15 15 15 15 15 15 14 14 14 13 13 13 12 12
17 17 17 17 17 17 17 17 17 17 17 16 16 16 16 16 16 16 16 16 16 15 15 16 15 15 15 15 15 15 15 14 14 14 14 14 13 13 12 12 12 12
17 17 17 17 17 17 17 17 17 17 17 16 17 16 16 16 16 16 16 16 16 15 15 15 15 15 15 15 15 14 14 14 14 14 13 13 13 12 12 12 12 12
17 17 16 16 16 16 16 16 16 16 16 16 16 16 16 16 16 16 16 16 16 16 15 15 15 14 14 14 14 14 14 14 14 13 13 12 12 12 12 12 12 11
16 16 16 16 16 16 16 16 16 16 16 16 16 16 16 16 16 16 16 16 16 15 15 15 15 14 14 13 13 13 13 13 13 13 12 11 11 11 12 12 12 11
16 16 16 16 16 16 15 15 15 16 16 16 16 16 16 16 16 16 16 16 15 15 15 15 15 14 14 13 12 13 13 12 12 12 11 11 11 11 11 11 11 11
16 16 16 16 15 15 15 15 15 15 15 15 15 15 15 15 15 15 15 16 15 15 15 14 14 14 13 12 12 12 12 12 12 11 10 10 11 11 11 11 11 10
16 16 15 15 15 15 15 15 15 15 15 15 15 15 15 15 15 15 15 15 15 15 15 14 14 13 12 11 12 11 11 11 11 10 10 10 10 10 10 10 10 10
15 15 15 15 15 15 15 15 15 15 14 14 14 14 15 15 15 15 15 15 15 15 14 14 13 13 11 11 11 11 10 10 10 10 10 10 10 10 9 9 9 9

ECMWFNIL_925_temp_021.txt.gz
Temp
17 17 17 17 17 17 16 16 16 15 15 16 15 15 15 15 16 16 16 16 16 16 16 16 16 16 16 16 15 15 15 15 15 15 15 15 14 14 14 14 14 14
17 17 17 17 17 17 16 16 16 16 16 16 15 15 15 15 15 16 16 16 16 16 16 16 16 16 16 16 16 16 16 16 15 15 14 14 14 14 14 14 14 14
17 17 17 17 17 17 16 16 16 16 16 16 15 15 15 15 15 15 16 16 16 16 16 16 16 16 16 16 16 16 16 16 15 15 15 14 14 14 15 14 14 14
17 17 17 17 17 17 16 16 16 16 16 16 16 15 15 15 15 15 15 15 16 16 16 16 16 16 16 16 16 16 16 16 15 15 15 14 14 14 15 14 14 14
16 17 17 17 17 17 17 16 16 16 16 16 16 16 15 15 15 15 15 15 15 15 15 15 16 16 16 16 16 16 16 16 15 15 15 15 14 14 14 14 14 14
16 16 17 17 17 17 17 17 17 17 17 16 16 16 16 16 15 15 15 15 15 15 15 15 15 15 15 16 16 16 16 16 15 15 15 15 14 14 14 14 14 14
16 16 17 17 17 17 17 17 17 17 17 17 16 16 16 16 16 16 16 16 15 15 15 15 15 15 15 15 15 15 15 16 15 15 15 15 14 14 14 14 14 13
17 16 17 17 17 17 17 17 17 17 17 17 17 16 16 16 16 16 16 16 16 15 15 15 15 15 15 15 15 15 15 15 15 15 15 15 15 14 14 14 13 13
17 16 17 17 17 17 17 17 17 17 17 16 16 16 16 16 16 17 16 16 16 16 16 15 15 15 15 15 15 15 15 15 15 15 15 15 15 14 14 14 14 14
17 17 17 17 17 17 17 17 17 17 17 16 16 16 16 16 16 16 16 16 16 16 16 16 16 16 15 15 15 15 15 15 15 15 15 15 15 14 14 14 14 14
17 17 17 17 17 17 17 17 17 17 17 16 16 16 16 16 15 16 16 16 16 17 17 16 16 16 16 16 15 15 15 15 15 15 15 15 15 14 14 14 14 14
16 17 17 17 17 17 17 17 17 17 17 17 16 16 15 15 15 15 16 16 16 16 16 16 16 16 16 16 16 15 15 15 15 15 15 14 14 14 14 14 14 14
16 16 16 16 16 16 16 16 16 17 17 17 16 15 14 14 14 15 15 15 15 15 15 15 15 16 16 16 16 15 15 15 15 15 15 15 15 14 14 14 14 14
16 16 16 16 16 15 15 15 15 16 16 16 15 15 15 14 14 15 14 15 15 14 14 14 14 15 16 15 15 15 15 15 15 15 15 15 15 14 14 14 14 14
16 16 16 16 15 15 15 15 15 15 15 14 14 14 15 15 15 15 14 14 14 15 14 14 13 14 15 15 15 15 15 15 15 15 15 15 15 14 14 14 14 14
16 16 16 16 15 15 15 15 14 14 14 14 14 14 15 15 15 15 15 15 15 15 15 14 13 14 15 15 15 15 15 15 15 15 15 14 14 14 14 14 14 14
15 15 15 15 15 15 14 14 14 14 14 14 13 13 14 15 15 15 15 15 15 14 14 14 14 14 15 15 14 14 14 14 14 14 14 14 14 14 14 14 14 14
15 15 15 14 14 14 14 15 14 14 14 14 13 13 14 14 15 15 15 15 14 14 13 13 14 14 14 14 14 14 13 13 13 13 13 13 14 14 14 14 14 14
14 14 14 14 14 14 15 15 14 14 14 14 14 14 14 14 14 14 14 14 13 13 13 14 14 14 14 14 14 14 13 13 13 13 13 13 13 13 13 13 13 13
14 14 14 14 14 14 15 15 15 15 15 15 15 15 14 14 14 14 14 13 13 14 14 15 15 15 15 14 14 14 14 13 13 13 12 12 12 12 13 13 13 13
15 15 15 15 15 15 15 15 15 15 15 15 15 15 15 15 14 14 14 14 15 15 15 15 15 15 15 15 14 14 14 13 13 13 12 12 12 12 12 12 12 12
16 16 16 15 15 15 15 15 15 15 15 15 15 15 15 15 15 15 15 15 15 15 15 15 15 15 15 15 14 14 14 14 13 13 12 12 11 11 11 11 11 11
16 16 16 15 15 15 15 15 15 15 15 15 15 15 15 15 15 14 14 15 14 15 15 15 15 15 15 15 14 14 14 13 13 13 12 11 11 11 11 11 11 11
16 16 16 15 15 15 15 15 15 15 15 15 15 15 15 14 14 14 14 14 14 14 14 14 14 14 14 14 14 14 13 13 13 13 12 11 11 10 10 11 11 11
15 15 15 15 15 15 15 15 15 15 15 15 15 15 14 14 14 14 14 14 14 14 14 14 14 14 14 14 14 13 13 13 13 12 11 11 11 10 10 10 10 10
14 14 15 15 15 15 15 15 15 15 15 15 15 14 14 14 14 14 14 14 14 14 14 14 14 14 13 13 13 13 12 12 12 12 11 11 10 10 10 10 10 10

ECMWFNIL_925_temp_024.txt.gz
Temp
18 18 18 17 17 17 16 15 15 15 15 15 15 15 15 15 15 15 15 15 15 15 15 15 15 15 15 14 14 14 14 14 14 14 14 15 15 15 15 14 15 15
17 18 18 17 17 17 17 16 15 15 15 15 15 15 15 15 15 15 15 15 15 15 15 16 16 16 16 15 15 15 15 15 14 14 14 14 14 15 15 15 15 15
17 17 18 18 18 17 16 16 15 15 15 15 15 15 15 15 15 15 15 15 15 15 15 15 15 16 16 16 15 15 15 15 15 14 14 14 14 15 14 14 14 14
17 17 18 17 18 17 16 16 16 15 15 15 16 15 15 15 15 15 15 14 14 14 15 15 15 15 15 15 15 16 15 15 15 14 14 14 14 14 14 14 14 14
17 17 17 17 17 17 16 16 16 16 16 16 16 16 15 15 15 15 15 15 15 15 14 14 14 15 15 15 15 15 15 15 14 14 14 14 14 14 14 14 14 13
17 17 17 17 17 17 17 17 17 17 17 16 16 16 16 16 15 15 15 15 15 15 15 15 15 14 15 15 15 15 15 15 14 14 14 14 14 14 14 14 14 14
16 16 17 17 17 17 17 17 17 17 17 17 17 16 16 16 16 15 15 15 15 15 15 15 15 14 14 14 15 15 14 15 14 14 14 14 14 13 13 13 13 13
16 16 16 16 16 17 17 17 17 17 17 17 17 17 16 16 16 16 15 15 15 15 15 15 15 15 14 14 14 15 14 14 14 14 14 14 14 14 13 13 13 13
16 16 16 16 16 16 17 17 17 17 17 17 17 17 16 16 16 16 16 16 15 15 15 15 15 15 15 15 15 15 14 14 14 14 14 14 14 14 14 13 13 13
15 16 15 15 16 16 17 17 17 17 17 18 17 17 17 17 16 16 16 16 15 15 15 15 15 15 14 14 14 14 14 14 14 14 14 14 14 14 14 14 14 13
14 15 15 15 15 16 17 17 17 16 17 18 17 17 17 17 16 16 16 16 15 15 15 15 15 15 14 14 14 14 14 14 14 14 14 14 14 14 14 14 14 14
14 15 15 15 15 16 17 17 17 16 17 17 17 17 17 17 16 16 16 16 16 15 15 14 15 15 15 15 15 14 14 14 13 14 14 14 14 14 14 14 14 14
14 15 15 15 16 16 17 17 17 16 16 16 16 17 17 17 16 16 15 15 15 15 15 15 15 15 15 15 15 15 14 14 13 13 14 14 14 14 14 14 14 14
15 15 16 16 16 16 16 16 16 16 16 16 16 16 16 16 16 16 15 15 15 15 15 15 14 14 14 14 15 15 14 14 13 13 13 13 14 14 14 14 14 13
15 15 15 15 15 15 15 15 15 15 15 15 15 15 15 15 15 15 15 15 15 15 15 14 13 13 14 14 14 14 14 14 13 13 13 13 14 14 14 14 14 13
14 14 14 14 14 14 14 15 15 15 15 15 15 15 15 14 15 15 15 15 14 14 14 13 13 13 14 14 14 14 14 14 13 12 13 13 13 14 14 14 14 13
14 14 14 14 14 14 14 14 15 15 15 15 15 15 14 14 14 14 15 15 14 14 14 14 14 14 14 14 14 13 13 13 13 13 13 13 13 13 13 14 14 13
14 14 14 14 14 14 14 14 14 14 14 14 14 14 13 13 14 14 15 14 14 14 14 14 14 14 14 14 14 13 13 13 13 13 13 13 13 13 13 13 13 13
14 14 14 14 14 14 14 14 14 14 13 14 13 13 13 13 14 14 15 14 14 14 14 14 14 14 14 14 13 13 13 13 13 13 13 13 13 13 13 13 13 13
14 14 14 14 14 13 13 13 13 13 13 14 13 13 13 13 14 14 14 14 14 14 14 14 14 14 14 14 14 14 13 13 13 13 13 13 13 13 13 13 12 12
15 14 14 14 14 13 13 13 13 13 14 14 14 13 13 13 13 13 13 13 13 13 14 14 14 14 14 14 14 14 14 14 14 13 13 13 13 13 13 12 12 12
15 15 15 14 14 14 14 14 14 14 14 14 14 14 13 13 13 13 13 14 14 14 14 14 14 14 14 14 14 14 14 14 13 13 13 13 13 12 12 12 12 12
15 15 15 15 14 14 14 14 14 14 14 14 14 14 13 13 14 14 14 14 14 14 14 14 14 14 14 14 14 14 13 13 13 13 13 13 13 12 11 11 11 11
14 15 15 15 15 15 15 14 14 14 14 14 14 14 14 14 14 14 14 14 14 14 14 14 14 14 14 14 14 14 13 13 13 13 13 13 12 11 11 10 10 10
13 14 15 15 15 15 15 14 14 14 14 14 14 14 14 14 14 14 14 14 14 14 14 14 14 14 14 14 14 14 13 13 12 12 12 12 12 11 10 10 10 10
13 14 14 14 14 14 14 14 14 14 14 14 14 14 14 14 13 14 14 13 13 13 13 13 13 13 13 13 13 13 13 12 12 12 12 12 11 10 10 10 9 9

ECMWFNIL_925_temp_027.txt.gz
Temp
18 18 18 17 17 17 17 15 15 15 15 15 15 15 15 15 15 15 15 15 14 14 14 14 14 14 14 14 14 15 15 14 15 15 15 15 15 15 15 15 15 15
18 18 18 17 17 17 17 16 15 15 15 15 15 15 15 15 15 15 15 15 14 14 15 15 14 14 14 14 14 14 14 14 14 14 14 14 14 14 14 14 15 15
18 18 18 17 17 17 17 16 15 15 15 15 15 15 15 15 15 15 15 15 15 15 15 15 15 14 14 14 14 14 14 14 14 14 14 14 14 14 14 14 14 14
18 18 18 17 17 17 17 16 16 16 15 15 15 15 15 15 15 15 15 15 15 15 15 15 15 15 14 14 14 14 14 14 14 14 14 14 14 14 14 14 14 14
18 18 18 18 17 17 17 17 16 16 16 16 15 15 16 15 15 15 15 15 15 15 15 15 15 15 15 15 15 14 14 14 14 14 14 14 13 13 13 13 13 13
17 17 18 18 17 17 17 17 16 16 16 16 16 16 16 16 16 15 15 15 15 15 15 15 15 15 15 15 15 14 14 14 14 14 14 14 13 13 13 13 13 13
17 17 17 18 17 17 17 17 17 17 17 16 16 16 16 16 16 16 16 15 15 15 15 15 14 14 15 15 15 15 15 14 14 14 14 14 14 14 14 14 14 14
16 16 17 17 17 17 17 17 17 17 17 16 16 16 16 16 16 16 16 16 15 15 15 14 14 14 14 14 14 14 14 14 14 14 14 14 14 14 14 14 14 14
15 15 16 17 17 17 17 17 17 17 17 16 16 16 16 16 16 16 16 16 16 15 15 15 15 14 14 14 14 14 14 14 14 14 14 14 14 14 14 14 14 13
14 15 16 16 16 17 17 17 17 17 17 16 16 16 16 16 16 16 16 16 16 16 15 15 15 15 14 14 14 14 14 14 14 14 14 14 14 14 14 14 14 13
14 14 15 15 16 16 17 17 17 17 17 17 16 16 16 16 16 16 16 16 16 16 15 15 15 15 15 14 14 14 14 14 14 14 14 13 13 14 14 14 14 14
14 14 14 15 15 16 16 16 16 16 16 17 16 16 16 16 16 16 16 16 16 16 15 15 15 15 14 14 14 14 14 14 14 14 14 13 13 13 13 13 13 13
13 13 14 14 15 16 16 15 16 16 16 16 16 16 16 16 16 16 16 16 16 15 15 14 14 14 14 14 14 14 14 14 14 14 14 14 13 13 13 13 13 13
12 13 13 14 15 15 15 15 15 16 16 16 16 16 16 16 16 16 15 15 15 15 14 14 14 15 15 14 14 14 14 14 14 14 14 14 14 14 13 13 13 13
12 13 13 14 15 15 15 15 15 15 15 15 16 16 16 16 15 15 15 14 14 14 14 14 14 15 15 14 14 14 14 14 14 13 13 13 13 13 13 14 13 13
13 13 13 14 14 14 15 15 14 15 15 15 15 15 15 15 15 14 14 14 14 14 14 14 14 14 15 15 14 14 14 14 13 13 13 13 13 13 13 14 14 13
13 13 13 13 14 14 14 14 14 14 14 14 14 14 14 14 14 14 14 14 14 14 14 14 14 14 14 14 14 14 14 13 13 13 13 13 13 13 13 13 13 13
13 13 13 13 13 13 13 14 14 13 14 14 14 13 13 13 13 14 14 14 14 14 13 13 14 14 14 14 14 13 13 13 13 13 13 13 13 12 12 12 12 12
13 13 13 13 13 13 13 13 13 13 13 13 12 12 12 13 13 13 13 13 13 13 13 13 13 13 13 13 13 13 13 13 13 13 13 13 13 12 12 12 12 12
13 13 13 13 13 13 13 13 13 13 13 13 12 11 12 13 14 13 13 13 13 13 13 13 13 13 13 13 13 13 13 13 13 13 13 13 13 12 12 11 11 11
13 13 13 13 13 13 13 13 13 13 13 13 12 12 12 13 13 13 13 13 13 13 13 12 12 13 13 13 14 14 14 14 14 14 13 13 13 13 12 11 11 11
14 14 14 13 13 13 13 13 13 13 13 13 12 12 12 12 13 13 13 13 13 13 13 13 13 13 13 14 14 14 14 14 14 14 13 13 13 13 13 12 12 11
14 14 14 14 13 13 13 13 14 14 14 13 13 13 13 13 13 13 13 13 13 13 13 13 14 14 14 14 14 14 14 14 13 13 13 13 13 13 12 12 12 11
13 13 13 14 14 13 13 13 14 14 14 14 14 14 13 13 13 13 13 13 13 14 14 14 14 14 14 14 14 14 14 14 13 13 13 13 13 12 12 11 11 11
12 12 13 13 14 14 14 14 14 14 14 14 14 14 14 13 13 13 13 13 14 14 14 14 14 14 14 14 14 14 14 13 13 13 12 12 12 11 11 11 11 11
12 12 12 13 13 14 14 14 14 14 14 14 14 14 14 13 13 13 13 13 13 13 13 13 13 13 13 13 13 13 13 13 12 12 12 11 10 10 10 10 10 10

ECMWFNIL_925_temp_030.txt.gz
Temp
18 18 18 18 18 18 17 17 17 17 17 17 17 17 16 16 15 15 15 15 15 15 15 15 15 15 15 15 16 16 16 15 15 15 15 16 16 16 16 16 16 17
18 18 18 18 18 17 17 17 17 17 17 17 17 16 16 15 15 15 15 15 15 15 15 15 15 15 15 15 15 16 16 15 15 15 15 15 15 15 15 15 16 16
18 18 18 17 17 17 16 16 16 17 17 16 16 16 16 15 15 15 15 15 15 15 15 15 15 15 15 15 15 15 15 15 15 15 15 15 15 15 15 15 15 16
17 17 17 17 17 16 16 16 16 16 16 16 16 16 16 15 15 15 15 15 15 15 15 15 15 15 15 15 15 15 15 15 15 15 15 15 15 15 15 15 15 16
17 17 17 16 17 16 16 16 16 16 16 16 16 16 16 16 16 16 15 16 16 15 15 15 15 15 15 15 15 15 15 15 15 15 15 15 15 15 15 15 15 15
16 17 17 16 16 16 16 16 16 16 16 16 16 16 16 16 16 16 16 16 16 15 15 15 15 15 15 15 15 15 16 16 15 15 16 15 15 15 15 15 15 15
16 16 16 16 16 16 16 16 16 16 16 16 16 16 16 16 16 16 16 16 16 16 16 16 15 15 15 15 16 15 16 15 15 16 16 16 15 15 15 16 16 16
16 16 16 16 16 16 17 17 16 16 16 16 16 16 16 16 16 16 16 16 16 16 16 16 16 16 15 16 16 15 15 15 15 16 16 16 16 16 16 16 16 16
16 16 16 16 16 16 17 17 17 16 16 16 16 16 16 16 16 16 16 16 16 16 16 16 16 16 15 16 16 15 15 15 15 16 16 16 16 16 16 16 15 16
16 16 16 16 16 17 17 17 17 16 16 16 16 16 16 16 16 16 16 16 16 16 16 16 16 16 15 16 16 16 16 15 15 16 16 16 16 16 16 16 16 16
16 16 16 16 16 17 17 17 17 16 16 16 17 16 16 16 16 16 16 16 16 17 17 16 16 16 16 16 15 15 16 16 16 15 15 16 16 16 16 16 15 15
16 16 16 15 16 17 17 17 17 16 16 16 17 17 16 16 16 16 16 17 17 17 17 17 16 16 16 16 16 15 15 15 15 15 15 15 15 15 15 15 15 15
15 16 16 16 16 16 16 17 17 16 16 16 17 17 16 16 16 16 16 16 17 17 17 17 16 16 16 16 16 15 15 15 15 15 15 15 15 15 15 15 15 15
15 15 16 16 16 16 16 16 16 16 16 16 16 16 16 16 16 16 15 15 16 16 16 16 16 16 16 16 16 16 15 15 15 15 15 15 15 15 15 15 15 15
15 15 16 16 16 16 16 16 16 16 16 16 16 16 16 16 16 16 15 15 15 15 15 15 15 16 16 15 16 15 15 15 15 15 15 15 15 15 15 15 15 15
15 15 16 16 16 16 16 16 16 16 15 16 16 16 16 16 16 15 15 15 15 15 15 15 15 15 15 15 15 15 15 15 14 14 15 15 15 15 15 15 15 15
16 15 15 16 16 16 16 16 16 16 15 15 16 15 15 15 15 15 15 15 15 15 15 15 14 15 15 15 15 15 15 14 14 14 14 14 14 15 15 15 15 15
16 16 16 16 15 15 15 15 15 15 15 15 15 15 15 14 14 15 15 15 15 15 15 15 15 15 15 15 15 15 14 14 14 14 14 14 14 14 15 15 15 15
16 16 16 15 15 15 15 15 15 15 15 15 15 14 14 14 14 14 14 14 14 15 14 14 14 14 14 14 15 14 14 14 14 14 14 14 14 14 14 14 14 14
16 16 16 15 15 15 15 15 15 15 14 14 14 13 13 13 14 14 14 14 14 14 14 14 14 14 13 14 14 14 14 14 14 13 13 13 14 14 14 14 14 14
16 16 16 16 15 15 15 15 15 15 14 14 14 13 13 13 14 13 13 13 14 14 14 14 13 13 13 13 13 13 13 13 13 13 13 14 14 14 14 14 14 14
15 15 15 15 15 15 15 15 15 15 14 14 13 13 12 13 13 13 13 13 13 13 13 14 13 13 13 13 13 13 13 13 13 13 13 14 14 13 13 13 13 13
15 15 15 15 15 15 15 15 15 15 14 14 13 13 13 13 13 14 13 13 13 13 13 13 13 13 13 13 13 13 13 13 13 14 15 14 13 13 13 12 12 13
14 15 15 15 15 15 15 15 15 15 15 14 14 14 14 14 14 13 13 13 13 12 13 13 13 13 13 13 13 14 14 14 15 15 15 14 13 13 13 12 12 12
14 14 14 14 15 15 14 14 14 15 15 14 14 14 14 13 13 13 13 13 13 13 13 13 13 13 14 14 14 14 14 14 15 15 15 14 14 13 12 12 12 12
13 13 13 14 14 14 14 14 14 15 15 14 15 15 15 14 13 13 13 13 13 13 13 13 13 14 14 14 14 14 14 14 15 15 15 14 14 13 13 12 11 11

ECMWFNIL_925_temp_033.txt.gz
Temp
19 19 19 20 20 20 19 19 19 19 19 19 19 18 18 17 17 17 17 16 16 16 16 16 17 17 17 17 18 18 17 17 17 17 17 17 17 17 17 18 18 19
19 19 19 20 20 19 19 19 19 19 19 19 18 18 17 17 17 17 17 17 17 16 16 17 17 17 17 17 17 17 17 17 17 17 17 17 17 17 17 17 18 18
19 19 19 20 19 19 19 18 18 18 18 18 18 17 17 17 17 17 17 17 17 17 16 17 17 17 17 17 17 17 17 17 17 17 17 17 17 17 17 17 18 18
19 19 19 19 19 18 18 18 18 18 18 18 18 17 17 17 17 17 17 17 17 17 17 17 17 17 17 17 17 17 17 17 17 17 17 17 17 17 17 17 18 18
19 19 19 18 18 18 18 18 18 18 18 18 17 17 17 17 17 17 17 17 17 17 17 17 17 17 17 17 17 17 17 17 17 17 17 17 17 17 17 17 17 17
18 18 18 18 18 17 17 17 18 18 18 18 17 17 17 17 18 18 17 17 17 17 17 17 17 17 17 17 17 17 17 17 17 17 17 17 17 17 17 17 17 18
18 18 18 18 18 17 17 17 18 18 18 17 18 18 18 18 18 18 18 18 17 17 17 17 17 17 17 17 17 17 17 17 17 18 18 18 17 18 18 18 18 18
18 18 17 17 17 17 17 17 18 18 17 17 18 18 18 18 18 18 18 18 18 18 18 17 17 17 17 17 17 17 17 17 18 18 18 17 18 18 18 18 18 18
18 18 18 17 17 17 18 18 18 18 18 17 18 18 18 18 18 18 18 18 18 18 18 18 18 17 17 17 17 17 17 17 17 18 17 17 18 18 18 17 17 17
17 18 18 17 17 17 18 18 18 18 18 18 18 18 18 18 18 18 18 18 18 18 18 18 18 17 17 17 17 17 17 17 17 17 17 17 18 18 18 17 17 17
17 17 17 17 17 17 18 18 18 18 18 18 18 18 18 18 18 18 18 18 18 18 18 18 18 18 18 18 17 17 17 17 17 17 17 17 18 18 18 17 17 17
17 17 17 17 17 17 17 18 18 18 18 18 18 18 18 18 18 18 18 18 18 19 19 18 18 18 18 18 17 17 17 17 17 17 17 17 17 17 17 17 17 17
17 17 17 17 17 17 17 17 18 18 18 18 18 18 18 18 18 18 18 19 19 19 19 19 18 18 18 18 18 17 17 17 17 17 17 17 17 17 17 17 17 17
17 17 17 17 17 17 17 17 18 17 17 18 18 18 18 18 18 18 18 18 19 19 19 19 18 18 18 18 18 18 17 17 17 17 17 17 17 17 17 17 17 17
16 17 17 16 16 16 16 16 17 17 17 17 18 18 18 18 18 18 18 18 18 18 18 18 18 18 18 18 18 18 17 17 17 17 17 17 16 16 16 16 16 16
16 16 16 16 16 16 15 16 16 17 17 17 17 18 18 18 18 18 18 18 18 18 18 18 18 18 18 17 18 17 17 17 16 16 16 16 16 16 16 16 16 16
16 16 17 17 16 16 16 16 17 16 16 16 17 17 17 18 18 18 18 18 18 18 17 17 17 17 17 17 17 17 17 16 16 16 16 16 16 16 16 16 15 15
17 17 17 17 17 17 16 17 17 16 16 16 16 16 16 17 17 17 17 17 17 17 17 17 16 16 16 16 16 16 16 16 16 15 15 15 15 15 15 15 14 14
17 17 17 17 17 17 16 16 16 16 16 16 16 15 15 15 16 16 16 17 17 17 17 16 15 15 15 15 15 16 16 15 15 16 15 15 15 15 15 14 13 14
18 18 18 17 17 17 16 16 16 16 16 16 16 15 15 15 15 15 15 16 16 16 16 16 15 15 15 15 15 15 15 15 15 15 15 15 14 14 14 13 13 13
18 18 17 17 17 17 17 17 16 16 16 15 15 15 15 15 15 15 15 15 15 15 15 15 15 15 15 14 14 14 14 14 14 14 14 14 14 14 14 13 13 14
17 17 17 17 17 17 17 17 17 16 16 16 15 15 15 15 15 14 15 15 15 15 14 14 14 14 14 14 14 14 14 14 14 14 14 14 13 14 14 14 14 14
17 17 17 17 17 17 17 17 17 17 16 16 15 15 15 15 15 15 15 15 15 15 15 15 14 14 14 14 14 13 13 13 13 13 14 14 13 14 14 14 14 14
16 16 16 16 17 17 17 17 17 17 17 16 16 15 15 15 15 15 15 15 15 15 15 15 14 14 14 13 13 13 13 13 13 13 14 14 13 14 14 14 14 14
15 15 15 15 16 16 16 16 16 17 17 17 16 16 16 16 16 16 15 15 15 14 14 14 13 13 13 13 13 13 13 13 13 14 15 14 14 14 14 13 13 13
15 15 15 15 15 15 15 15 16 16 16 17 16 16 17 16 16 16 15 15 14 14 14 13 13 13 14 13 13 13 13 14 14 15 16 15 15 15 14 13 12 12

ECMWFNIL_925_temp_036.txt.gz
Temp
20 20 20 20 20 20 20 20 20 19 19 19 19 18 18 17 17 17 17 17 17 17 17 17 17 17 18 18 18 18 17 17 17 17 17 17 17 18 18 19 19 19
19 20 20 20 20 20 20 20 19 19 19 19 18 18 17 17 17 17 17 17 17 17 17 17 17 17 17 17 17 17 17 17 17 17 17 17 17 18 18 19 19 19
19 20 20 20 20 19 19 19 19 19 19 18 18 17 17 17 17 17 17 17 17 17 17 17 17 17 17 17 17 17 17 17 17 17 17 17 17 18 18 18 19 18
19 19 20 20 19 19 19 19 19 19 18 18 17 17 17 17 17 17 17 17 17 17 17 17 17 17 17 17 17 17 17 17 17 17 17 17 17 17 18 18 18 18
19 19 19 19 19 19 18 18 18 18 18 18 17 17 17 17 17 17 17 17 17 17 17 17 17 17 17 17 17 17 17 17 17 17 17 17 17 17 17 18 18 18
19 19 19 19 18 18 18 18 18 18 18 18 17 17 17 17 17 17 17 17 17 17 17 17 17 17 17 17 17 17 17 17 17 17 17 17 17 17 18 18 18 18
19 19 19 18 18 18 18 18 18 18 18 18 18 17 17 18 18 18 17 17 17 17 17 17 17 17 17 17 17 17 17 18 18 18 18 18 18 18 18 18 18 18
18 18 18 18 18 18 18 18 18 18 18 18 18 18 18 18 18 18 18 18 18 18 17 17 17 17 17 17 17 17 18 18 18 18 18 18 18 18 18 18 18 18
18 18 18 18 18 18 18 18 18 18 18 18 18 18 18 18 18 18 18 18 18 18 18 18 17 17 17 17 17 17 18 18 18 18 18 18 18 18 18 18 18 17
18 18 18 17 17 18 18 18 18 18 18 18 18 18 18 18 18 18 18 18 18 18 18 18 18 17 17 17 17 17 17 18 17 17 18 18 18 18 18 17 17 17
18 18 18 18 17 18 18 18 18 18 18 18 18 18 18 18 18 18 18 18 18 18 18 18 18 18 18 18 17 17 17 17 17 17 18 18 18 18 18 17 17 17
17 17 17 17 17 18 18 18 18 18 18 18 18 18 18 18 18 18 18 18 18 18 18 18 18 18 18 18 17 17 17 17 17 17 17 18 18 18 18 17 17 17
15 15 15 16 17 18 18 18 18 18 18 18 18 18 18 18 18 18 18 19 19 19 19 18 18 18 18 18 18 18 18 17 17 17 17 18 18 17 17 17 17 17
15 15 15 16 17 17 17 17 17 17 18 18 18 18 18 18 18 18 18 19 19 19 19 19 19 18 18 18 18 18 18 17 17 17 17 17 17 17 17 17 17 17
16 15 16 16 17 17 17 17 17 17 17 18 18 18 18 18 18 18 18 18 19 19 19 19 19 18 18 18 18 18 18 17 17 17 17 17 17 17 17 17 17 17
16 16 16 16 16 16 16 16 16 16 17 17 17 18 18 18 18 18 18 18 18 19 19 19 19 18 18 18 18 18 18 17 17 17 17 17 17 17 17 17 17 16
17 16 16 16 16 16 16 16 16 16 16 16 17 17 17 18 18 18 18 18 18 18 18 19 18 18 18 18 18 18 18 17 17 17 17 17 17 16 16 15 15 15
17 17 16 16 16 16 16 16 16 16 15 15 16 16 17 17 18 18 18 18 18 18 18 18 18 18 18 18 18 18 17 17 17 17 16 16 16 15 14 13 14 15
17 17 16 16 16 16 16 16 15 15 15 15 16 16 16 16 17 17 17 17 18 18 18 18 17 17 17 17 17 17 17 17 17 16 16 16 16 15 13 13 14 15
18 17 17 17 17 16 16 16 15 15 15 14 15 15 15 16 16 16 17 17 17 17 17 17 17 17 17 17 17 16 17 17 16 16 16 15 15 15 14 13 13 14
18 18 17 17 17 17 17 16 16 15 14 14 13 14 15 15 16 16 16 16 16 16 16 16 16 16 16 16 16 16 16 16 16 16 15 15 15 15 14 14 13 13
17 17 17 17 17 17 18 17 17 16 15 15 15 15 15 15 15 16 16 16 16 15 16 15 15 15 16 16 16 16 15 15 15 15 15 14 14 14 14 14 13 13
15 16 16 16 17 17 17 17 17 17 16 16 15 15 15 15 15 15 15 15 15 15 15 15 15 15 15 15 15 15 15 15 15 14 14 14 14 14 13 13 13 13
15 15 15 15 16 16 16 16 16 17 17 16 16 16 15 15 15 15 15 15 15 15 15 15 14 14 14 15 15 14 14 14 14 14 13 13 14 14 13 13 13 13
14 14 15 15 15 15 15 15 16 16 16 16 16 16 16 16 16 15 15 15 15 15 15 14 14 14 14 15 14 14 14 14 13 13 13 13 14 13 13 13 13 14
13 14 14 14 14 14 14 14 15 15 15 16 16 16 16 16 16 16 15 15 15 15 14 14 14 14 14 14 14 14 14 13 13 13 13 13 13 13 13 13 13 14

ECMWFNIL_925_temp_039.txt.gz
Temp
20 20 20 19 19 19 19 19 19 19 19 18 18 17 17 17 17 17 17 17 17 17 17 17 17 17 17 17 17 17 17 17 17 17 17 17 18 18 18 18 18 18
20 20 20 19 19 19 19 19 19 19 19 18 18 17 17 17 17 17 17 17 17 17 17 17 17 17 17 17 17 17 17 17 17 17 18 18 18 18 18 18 18 18
20 20 20 20 20 19 19 19 19 19 18 18 18 17 17 17 17 17 16 16 17 17 17 17 17 17 17 17 17 17 17 17 17 17 18 18 18 18 18 18 18 18
19 20 20 20 20 19 19 19 19 18 18 18 17 17 17 17 17 16 16 16 16 16 17 17 17 17 17 17 17 17 17 17 17 17 18 18 18 18 18 18 18 18
19 19 20 19 19 19 19 19 18 18 18 17 17 17 17 17 16 16 16 16 16 17 17 17 17 17 17 17 17 17 17 17 17 17 17 17 17 18 18 18 18 18
19 19 19 19 19 19 19 18 18 18 17 17 17 17 17 17 17 16 16 16 16 17 17 17 17 17 17 17 17 17 17 17 17 17 17 17 17 18 18 18 18 18
19 19 19 19 19 19 18 18 18 18 17 17 17 17 17 17 17 17 16 16 16 16 17 17 17 17 17 17 17 17 17 17 17 17 17 17 17 18 18 18 18 18
18 19 19 18 19 18 18 18 18 18 17 17 17 17 17 17 17 17 17 17 17 17 17 17 17 17 17 17 17 17 17 17 17 17 17 17 17 17 18 18 18 18
16 18 19 18 18 18 18 18 18 18 17 17 17 17 17 17 17 17 17 17 17 17 17 17 17 17 17 17 17 17 17 17 17 17 17 17 17 17 18 18 18 18
14 16 17 18 18 18 18 18 18 17 17 17 17 17 17 17 17 17 17 17 17 17 17 17 17 17 17 17 17 17 17 17 17 17 17 18 17 17 17 18 18 18
15 15 17 17 18 18 18 18 18 17 17 17 17 18 18 18 18 18 18 18 17 17 17 17 17 17 17 17 17 17 17 18 17 17 18 18 17 17 17 17 18 18
14 16 17 17 17 18 18 18 18 17 17 17 17 18 18 18 18 18 18 18 18 18 17 17 17 17 17 17 17 17 17 17 17 18 18 18 18 18 17 17 17 17
15 15 17 17 17 17 17 18 18 18 17 18 18 18 18 18 18 18 18 18 18 18 18 17 17 17 17 17 17 17 17 17 17 17 18 18 18 17 17 17 17 17
15 14 15 17 16 16 17 17 18 18 18 18 18 18 18 18 18 18 18 18 18 18 18 18 18 17 17 17 17 17 17 17 17 17 17 17 17 17 17 17 17 17
14 13 15 16 16 16 16 17 17 18 18 18 18 18 18 18 18 18 18 18 18 18 18 18 18 18 18 18 17 17 17 17 17 17 17 17 17 17 17 17 17 17
13 13 14 15 15 15 15 16 17 17 18 18 17 18 18 18 18 18 18 18 18 18 18 18 18 18 18 18 18 18 17 17 17 17 17 17 17 17 17 17 17 17
14 14 14 13 14 15 16 16 16 16 17 18 17 17 17 17 18 18 18 18 18 18 18 18 18 18 18 18 18 18 18 17 17 17 17 17 16 16 17 17 17 17
14 14 14 13 14 15 15 14 14 14 16 17 17 17 17 17 17 17 18 18 18 18 18 18 18 18 18 18 18 18 18 17 17 17 17 17 16 16 16 16 16 16
14 14 13 13 13 13 13 13 13 14 16 16 16 16 16 17 17 17 17 17 18 18 18 18 18 18 18 18 18 18 17 17 17 17 17 16 16 16 16 16 16 16
14 14 14 14 14 14 14 15 15 16 16 16 16 16 16 16 16 17 17 17 17 17 17 18 18 18 18 18 18 17 17 17 17 16 16 16 16 16 16 16 16 16
15 15 15 15 15 15 15 16 16 16 16 16 16 16 16 16 16 16 16 16 16 16 16 17 17 17 17 17 17 17 17 17 16 16 16 15 15 15 15 15 15 15
14 15 15 15 15 15 15 15 15 15 16 16 16 16 16 16 16 15 15 15 15 16 16 16 16 16 17 17 17 17 17 17 16 16 15 15 14 14 14 14 14 15
14 14 14 14 14 14 15 15 14 14 15 15 15 15 16 16 16 16 16 15 15 15 16 16 16 16 16 16 16 16 16 16 16 15 15 14 14 14 14 14 14 14
13 13 13 13 13 14 14 14 14 14 14 14 14 14 15 15 15 16 16 16 15 15 15 15 15 15 15 16 16 16 15 15 15 15 14 14 14 13 13 13 14 14
11 11 12 12 12 13 13 13 14 14 14 14 14 14 14 14 14 14 15 15 15 15 15 15 15 15 15 15 15 15 15 15 15 14 14 13 13 13 13 13 13 14
10 10 10 11 11 11 12 12 12 13 13 14 14 14 14 14 14 14 14 15 15 15 15 15 15 15 15 15 15 15 15 15 14 14 13 13 13 13 12 13 13 13

ECMWFNIL_925_temp_042.txt.gz
Temp
19 19 19 19 19 19 18 18 18 18 18 18 18 17 17 17 17 17 17 17 17 17 17 17 17 17 17 17 17 17 17 17 17 17 17 17 17 17 16 16 16 16
19 19 19 19 19 18 18 18 18 18 18 18 18 17 17 17 17 17 17 17 17 17 17 17 17 17 17 17 16 17 17 17 17 17 17 17 17 17 17 17 17 17
19 19 19 19 19 19 19 19 18 18 18 18 17 17 17 17 17 17 17 17 17 17 17 17 17 17 17 17 17 17 17 17 17 17 18 18 18 18 18 17 17 17
19 19 19 19 19 19 19 19 18 18 18 17 17 17 17 17 17 16 16 17 17 17 17 17 17 17 17 17 17 17 17 17 17 18 18 18 18 18 18 18 18 17
19 19 19 19 19 19 19 19 18 18 18 17 17 17 17 17 16 16 16 16 16 16 17 17 17 17 17 17 17 17 17 17 17 18 18 18 18 18 18 18 18 18
19 19 19 19 19 19 19 19 18 18 18 17 17 17 17 16 16 16 16 16 16 16 16 17 17 17 17 17 17 17 17 17 17 18 18 18 18 18 18 18 18 18
17 18 19 19 19 19 19 18 18 18 17 17 17 17 17 16 16 16 16 16 16 16 16 16 16 16 16 17 17 17 17 17 17 17 18 18 18 18 18 18 18 18
16 17 19 19 19 19 19 18 18 17 17 17 17 17 16 16 16 16 16 16 16 16 16 16 16 16 16 16 17 17 17 17 17 17 17 17 18 18 18 18 18 18
17 17 18 18 18 18 18 18 17 17 17 17 17 17 16 16 16 16 16 16 16 16 16 16 16 16 16 16 16 16 16 16 17 17 17 17 17 17 17 18 18 18
17 17 17 17 18 18 18 18 17 17 17 17 17 17 17 17 17 16 16 16 16 16 16 16 17 17 17 16 16 16 16 16 17 17 17 17 17 17 17 18 18 18
17 17 17 16 17 17 17 17 17 17 17 17 17 17 17 17 17 17 17 16 16 16 16 16 17 17 17 17 17 17 17 17 17 17 17 17 17 17 17 18 18 18
16 16 16 15 15 16 17 17 17 17 17 17 17 17 17 17 17 17 17 17 17 16 16 17 17 17 17 17 17 17 17 17 17 17 17 17 17 17 17 18 18 18
14 15 15 15 15 16 16 17 17 17 17 17 17 17 17 17 17 17 17 17 17 17 17 17 17 17 17 17 17 17 17 17 17 17 17 17 17 17 17 18 18 18
13 14 15 15 15 16 16 17 17 17 17 17 17 17 17 17 17 17 17 17 17 17 17 17 17 17 17 17 17 17 17 17 17 17 17 17 17 17 17 17 17 18
13 14 15 15 16 15 15 16 17 17 17 17 17 17 17 17 17 18 17 17 17 17 17 17 17 17 17 17 17 17 17 17 17 17 17 17 17 17 17 17 17 17
13 14 15 15 15 15 15 15 16 16 16 17 17 17 17 17 17 18 18 18 17 17 17 17 17 17 17 17 17 17 17 17 17 17 17 17 17 17 17 17 17 17
13 14 14 14 14 14 14 15 15 15 16 16 16 16 17 17 17 17 18 18 18 18 17 17 17 17 17 17 17 17 17 17 17 17 17 17 17 17 17 17 17 17
12 12 13 13 14 13 13 14 15 15 15 16 16 16 16 16 17 17 17 17 17 17 18 18 17 17 17 17 17 17 17 17 17 17 17 17 17 17 17 17 17 16
12 12 12 13 13 12 12 13 15 15 15 15 16 15 15 15 16 17 17 17 17 17 17 18 18 18 17 17 17 17 17 17 17 17 17 17 17 17 17 17 17 16
13 13 13 13 13 13 13 13 14 14 14 15 15 15 15 15 15 16 16 16 17 17 17 17 17 18 18 18 17 17 17 17 17 17 17 17 17 17 17 17 17 16
12 12 12 12 12 13 13 13 13 14 14 14 14 15 15 15 15 16 16 16 16 16 16 16 16 17 17 17 17 17 17 17 17 17 17 17 17 17 16 16 16 16
11 12 12 12 12 12 13 13 13 13 13 13 13 13 14 14 14 15 15 15 15 15 16 16 16 16 16 16 16 16 17 17 17 17 16 16 16 16 16 16 16 16
11 11 11 11 11 12 12 12 12 12 12 12 13 13 13 14 14 14 14 15 15 15 15 15 16 16 16 16 16 16 16 16 16 16 16 16 16 15 15 15 16 16
10 10 10 10 10 10 10 11 11 12 12 12 12 12 13 13 13 14 14 14 14 14 14 14 15 15 16 15 15 15 15 15 15 15 15 15 15 15 14 14 14 15
9 10 10 10 10 9 9 10 10 10 11 11 12 12 12 12 13 13 13 14 14 14 14 14 14 15 15 15 15 15 15 15 15 14 14 14 14 14 14 14 14 14
8 8 8 8 9 9 9 9 9 10 10 11 11 11 11 12 12 12 12 13 13 13 14 14 14 14 14 15 15 15 15 15 14 14 14 14 14 13 13 13 13 13

ECMWFNIL_925_temp_045.txt.gz
Temp
19 19 19 19 18 18 18 18 18 18 18 18 17 17 17 17 17 17 17 17 17 17 17 17 17 17 16 16 16 16 16 16 16 16 16 16 16 16 16 16 16 16
19 19 19 19 19 18 18 18 18 18 18 18 17 17 17 17 17 17 17 17 17 17 17 17 17 17 17 16 16 16 16 16 16 16 16 16 16 16 16 16 16 16
19 19 19 19 19 19 18 18 18 18 18 18 18 17 17 17 17 17 17 17 17 17 17 17 17 17 17 16 16 16 16 16 16 16 16 16 16 16 16 16 16 16
19 19 19 19 19 18 18 18 18 18 18 18 17 17 17 17 17 16 16 17 17 17 17 17 16 17 17 16 16 16 16 16 17 17 17 17 17 17 17 16 16 16
19 19 19 19 18 18 18 18 18 18 18 17 17 17 17 17 16 16 16 16 16 16 17 17 16 17 17 16 16 16 16 17 17 17 17 18 18 17 17 17 16 16
19 19 19 18 18 18 18 18 18 18 18 17 17 17 17 16 16 16 16 16 16 16 16 16 16 16 17 16 16 16 17 17 17 17 18 18 18 18 18 17 17 17
19 19 18 18 18 18 18 18 18 18 18 17 17 17 16 16 16 16 16 16 16 16 16 16 16 16 16 17 17 16 16 17 17 17 18 17 17 18 18 18 17 17
18 18 18 18 18 18 18 18 18 18 17 17 17 17 16 16 16 16 16 16 16 16 16 16 16 16 16 16 17 16 16 17 17 17 18 17 18 18 18 18 18 17
18 18 18 18 18 18 18 18 18 17 17 17 17 17 16 16 16 16 16 16 16 16 16 16 16 16 16 16 16 16 16 16 17 17 17 17 18 18 18 18 18 18
17 17 17 17 18 18 18 18 17 17 17 17 17 16 16 16 16 16 16 16 16 16 16 16 16 16 16 16 16 16 16 16 17 17 17 17 17 18 18 18 18 18
16 16 16 17 17 17 17 17 17 17 17 17 17 16 16 16 16 16 16 16 16 16 16 16 16 16 16 16 16 16 16 16 16 17 17 17 17 17 17 18 18 18
16 16 16 16 16 16 16 16 16 17 17 17 17 17 16 16 16 16 16 16 16 16 16 16 16 16 16 16 16 16 16 16 16 16 17 17 17 17 17 17 18 18
16 16 15 15 15 15 15 15 15 16 16 17 17 17 17 17 16 16 16 16 16 16 16 16 16 16 16 16 16 16 16 16 16 16 16 17 17 17 17 17 17 17
14 14 15 15 14 14 15 15 15 15 16 16 17 17 17 17 17 17 17 17 16 16 16 16 16 16 16 16 17 17 17 16 16 16 17 17 17 17 17 17 17 17
12 13 14 14 14 14 14 15 15 15 16 16 16 16 16 17 17 17 17 17 17 17 16 16 16 16 16 17 17 17 17 17 17 17 17 17 17 17 17 17 17 17
12 13 13 13 14 14 14 15 15 15 15 15 16 16 16 16 17 17 17 17 17 17 17 17 17 16 17 16 17 17 17 17 17 17 17 17 17 17 17 17 17 17
13 13 13 13 13 14 14 14 14 14 15 15 15 15 16 16 16 16 17 17 17 17 17 17 17 17 17 17 17 17 17 17 17 17 17 17 17 17 17 17 17 17
12 12 12 13 13 13 13 14 14 14 14 15 15 15 15 15 16 15 16 16 17 17 17 17 17 17 17 17 17 17 17 17 17 17 17 17 17 17 17 17 17 17
11 11 12 12 12 12 12 13 13 13 14 15 15 15 14 15 15 15 15 15 16 16 17 17 17 17 17 17 17 17 17 17 17 17 17 17 17 17 17 17 17 17
11 11 11 11 11 12 12 12 12 12 13 14 14 14 14 14 14 15 15 15 15 15 16 16 16 17 17 17 17 17 17 17 17 17 17 17 17 17 17 17 17 17
11 11 11 11 11 12 12 12 12 12 12 12 13 13 13 13 14 14 14 14 14 14 15 15 15 16 16 17 17 17 17 17 17 17 17 17 17 17 17 17 17 17
10 10 10 10 11 11 11 11 11 11 12 12 12 12 13 13 13 14 14 14 14 14 14 14 15 15 15 15 16 16 16 16 16 16 16 17 17 17 17 17 17 17
9 10 9 9 10 10 10 10 10 11 11 11 11 12 12 12 13 13 13 13 14 14 14 14 14 14 14 14 14 15 15 16 16 16 16 16 16 16 16 16 16 16
8 9 9 9 9 9 9 9 9 10 10 10 11 11 11 11 12 12 12 13 13 13 14 14 14 14 14 14 14 14 14 14 15 15 15 15 15 16 16 15 15 15
7 8 8 8 8 8 8 8 8 9 9 9 10 10 10 10 11 12 12 12 12 12 13 13 14 14 14 14 14 14 13 13 13 14 14 15 15 15 15 14 14 15
7 7 7 7 7 7 7 7 7 8 8 9 9 9 10 10 10 11 11 11 11 12 12 12 13 13 13 13 13 13 13 12 12 12 13 14 14 14 14 13 13 14

ECMWFNIL_925_temp_048.txt.gz
Temp
18 18 18 18 18 18 18 18 17 17 17 17 17 17 17 17 17 17 17 17 17 17 17 17 17 16 16 16 16 16 16 16 16 16 16 16 16 15 15 15 15 15
18 18 18 18 18 18 18 18 17 17 17 17 17 17 17 17 17 17 17 17 17 17 17 17 16 16 16 16 16 16 16 16 16 16 16 16 16 15 15 15 15 15
18 18 18 19 18 18 18 17 17 17 17 17 17 17 17 17 17 17 17 17 17 17 17 17 16 16 16 16 16 16 16 16 16 16 16 16 16 15 15 15 15 15
18 18 19 19 19 18 18 17 17 17 17 17 17 17 17 17 17 16 16 17 17 17 17 16 16 16 16 16 16 15 16 16 16 16 16 16 16 16 15 15 15 15
18 18 19 19 18 18 18 18 18 18 17 17 17 17 17 17 16 16 16 16 16 16 16 16 16 16 16 16 16 16 16 16 16 16 16 16 16 16 16 16 16 16
18 18 19 18 18 18 18 18 18 18 17 17 17 17 17 16 16 16 16 16 16 16 16 16 16 16 16 16 16 16 16 17 17 17 17 17 17 17 16 16 16 16
18 18 18 18 18 18 18 18 18 18 17 17 17 17 17 16 16 16 16 16 16 16 16 16 16 16 16 16 16 16 16 17 17 17 17 17 17 17 17 16 16 16
18 18 18 18 18 18 18 18 18 18 17 17 17 17 16 16 16 16 16 15 16 16 16 16 16 16 16 16 16 16 16 16 17 17 17 18 18 18 18 17 16 16
18 18 18 18 18 18 18 18 18 18 17 17 17 16 16 16 15 15 15 15 16 16 16 16 16 16 16 16 16 16 16 16 17 17 17 17 18 18 18 18 17 16
18 18 18 18 18 18 18 18 18 18 17 17 17 16 16 16 15 15 15 15 15 16 16 16 16 16 16 16 16 16 16 16 17 17 17 17 18 18 18 18 18 17
17 17 18 18 18 18 17 17 17 17 17 17 17 16 16 16 15 15 15 15 15 16 16 16 16 16 16 16 16 16 16 16 16 17 17 17 17 18 18 18 18 18
16 17 17 17 17 16 16 16 16 16 16 16 16 16 16 16 16 15 15 15 15 15 15 16 16 16 16 16 15 16 16 16 16 16 17 17 17 17 17 18 18 18
15 15 16 16 15 15 15 15 16 16 16 16 16 16 16 16 16 16 16 16 16 16 15 16 16 16 16 16 16 16 16 16 16 16 16 16 17 17 17 17 17 17
14 14 14 15 15 15 15 15 15 15 16 15 15 16 16 16 16 16 16 16 16 16 16 16 16 16 16 16 16 16 16 16 16 16 16 16 16 16 17 17 17 17
13 13 14 14 14 15 15 14 14 15 14 15 15 15 15 16 16 16 16 16 16 16 16 16 16 16 16 16 16 16 16 16 16 16 16 16 16 16 16 17 17 17
13 13 13 13 13 14 14 14 14 14 14 14 15 15 15 15 16 16 16 16 16 16 16 16 16 16 16 16 16 16 16 16 16 16 16 16 16 16 16 16 17 17
12 12 12 12 12 13 13 13 13 14 14 14 14 14 14 15 15 16 16 16 16 16 16 16 16 16 16 16 16 16 16 16 17 17 17 17 17 16 16 16 16 17
12 12 12 12 12 12 12 13 13 13 14 14 14 14 14 14 15 15 15 16 16 16 16 16 16 16 16 16 16 16 16 16 16 17 17 17 17 17 17 17 17 17
11 11 11 11 12 12 12 12 13 13 13 13 13 13 14 14 14 14 14 15 15 15 16 16 15 15 16 16 16 16 16 16 16 16 16 16 16 17 17 17 17 17
10 11 11 11 11 11 12 12 12 12 12 12 13 13 13 14 13 14 14 14 14 15 15 15 15 15 15 15 15 16 16 16 16 16 16 16 16 16 16 17 17 17
10 10 10 10 10 11 11 11 11 12 12 12 12 12 13 13 13 13 13 13 14 14 14 14 14 14 14 15 15 15 16 16 16 16 16 16 16 16 16 16 17 17
10 10 10 10 10 10 10 10 11 11 11 11 12 12 12 12 13 13 13 13 13 13 13 13 13 14 14 14 15 15 15 15 15 15 16 16 16 16 16 17 17 16
9 9 9 9 10 10 9 9 9 10 11 11 11 11 11 12 12 12 12 12 13 13 13 13 13 13 13 13 14 14 14 15 15 15 15 15 15 16 16 16 16 16
8 8 8 9 9 8 8 8 8 9 9 10 10 10 10 11 11 11 11 12 12 12 12 12 12 12 12 13 13 13 13 13 14 14 14 14 15 15 15 14 14 14
7 7 7 7 7 7 7 8 8 8 8 9 9 9 9 10 10 10 11 11 11 11 11 11 11 11 11 12 12 12 13 13 13 13 13 14 14 14 14 13 13 13
6 6 6 6 6 6 7 7 7 7 8 8 8 8 8 9 9 10 10 10 10 10 10 10 10 10 10 10 11 11 11 12 12 12 13 13 13 13 13 13 12 12

ECMWFNIL_925_temp_051.txt.gz
Temp
17 18 18 18 18 18 17 17 17 17 17 17 17 17 17 17 17 17 17 17 17 17 17 17 17 16 16 16 16 16 16 15 15 15 15 15 15 15 15 15 15 15
17 18 18 18 18 18 17 17 17 17 17 17 17 17 17 17 17 17 17 17 17 17 17 17 16 16 16 16 16 16 16 16 16 15 15 15 15 15 15 15 14 14
18 18 18 18 18 18 18 17 17 17 17 17 17 17 17 17 17 17 17 17 17 17 17 16 16 16 16 16 16 16 16 16 16 16 15 15 15 15 15 15 14 14
18 18 18 18 18 18 18 17 17 17 17 17 17 17 17 17 17 17 17 17 17 17 17 16 16 16 16 16 16 16 16 16 16 16 16 16 16 16 16 15 14 14
17 17 18 18 18 18 17 17 17 17 17 17 17 17 17 17 17 16 16 16 16 17 17 16 16 16 16 16 16 16 16 16 16 16 16 16 16 16 16 15 14 14
17 17 18 18 18 18 17 17 17 17 17 17 17 17 17 17 16 16 16 16 16 16 16 16 16 16 16 16 16 16 16 16 17 17 17 17 17 16 16 15 14 14
17 17 17 17 18 18 17 17 17 17 17 17 17 17 16 16 16 16 16 16 16 16 16 16 16 16 16 16 16 16 16 17 17 17 17 17 17 17 16 16 15 15
18 17 17 17 18 18 17 18 17 17 17 17 17 16 16 16 16 16 16 16 16 16 16 16 16 16 16 16 16 16 16 16 17 17 17 17 17 17 17 16 16 15
17 17 17 17 17 17 17 18 17 17 17 17 17 16 16 16 16 15 15 15 16 16 16 16 16 16 16 16 16 16 16 16 17 17 17 17 17 17 17 17 16 16
17 17 17 17 17 17 17 17 17 17 17 17 16 16 16 15 15 15 15 15 16 16 16 16 16 16 16 16 16 16 16 16 16 17 17 17 17 17 17 17 16 16
17 17 17 17 17 17 17 17 17 16 16 16 16 16 16 16 15 15 15 15 15 15 16 16 16 16 16 16 16 16 16 16 16 17 17 17 17 17 17 17 17 17
15 16 16 17 17 16 16 16 16 16 16 16 16 16 15 15 15 15 15 15 15 15 15 16 16 16 16 16 15 16 16 16 16 16 16 17 17 17 17 17 17 17
15 15 15 16 16 16 16 16 15 15 15 15 15 15 15 15 15 15 15 15 15 15 15 15 16 16 16 16 15 15 16 16 16 16 16 16 17 17 17 17 17 17
14 14 14 15 15 15 15 15 15 15 15 15 15 15 15 15 15 15 16 16 16 16 15 15 16 16 16 16 16 16 16 16 16 16 16 16 16 17 17 17 17 17
13 14 14 14 14 14 15 15 15 15 15 15 15 15 15 15 15 15 15 16 16 16 16 16 16 16 16 16 16 16 16 16 16 16 16 16 16 16 16 16 17 17
13 13 13 14 14 14 14 14 15 15 15 15 15 15 15 15 15 15 15 16 16 16 16 16 16 16 16 16 16 16 16 16 16 16 16 16 16 16 16 16 16 17
12 13 13 13 13 13 13 13 13 13 14 14 14 14 14 14 14 15 15 16 16 15 15 15 15 16 16 16 16 16 16 16 16 16 16 16 16 16 16 16 16 17
11 12 12 12 12 12 12 12 13 13 13 13 13 13 13 14 14 14 15 15 15 15 15 15 15 15 16 16 16 16 16 16 16 16 16 16 16 16 17 17 17 17
11 11 11 11 11 11 12 12 12 12 12 13 13 13 13 13 13 14 14 14 14 14 14 14 14 14 15 15 16 16 16 16 16 16 16 16 16 16 16 17 17 17
11 11 11 11 11 11 11 12 12 12 12 12 12 13 13 13 13 13 13 13 13 13 13 13 13 13 14 14 15 15 16 16 16 16 16 16 16 16 16 16 16 16
10 10 10 10 11 11 11 11 11 11 12 12 12 12 13 13 13 13 13 13 13 13 13 13 13 13 13 14 14 15 15 15 16 16 16 16 16 16 16 16 16 16
9 9 9 10 10 10 10 10 10 11 11 11 12 12 12 12 12 12 12 12 12 12 12 12 12 12 13 13 14 14 14 14 15 15 15 15 16 16 16 16 15 15
9 9 9 9 10 10 10 10 10 10 10 10 11 11 11 11 11 11 11 11 11 12 12 12 12 12 12 13 13 14 14 14 14 14 14 14 14 15 15 15 15 15
8 9 9 9 9 9 9 9 9 9 9 9 10 10 10 11 11 10 10 11 11 11 11 11 11 11 12 12 13 13 13 13 14 14 14 14 14 14 13 13 14 15
7 7 8 8 8 8 8 8 8 8 8 9 9 9 9 10 10 10 10 10 10 10 10 10 10 10 11 11 12 12 12 13 13 13 13 13 13 13 13 13 13 14
6 6 6 6 7 7 7 7 7 7 8 8 8 8 8 9 9 9 9 9 9 9 9 9 9 9 9 10 10 11 11 11 11 11 12 12 12 13 13 13 13 13

ECMWFNIL_925_temp_054.txt.gz
Temp
17 17 17 18 18 18 18 19 19 19 19 19 19 19 18 18 17 17 17 17 17 17 17 17 17 17 17 17 16 17 17 17 17 16 16 16 16 16 16 17 17 16
17 17 17 18 18 18 18 18 19 19 19 19 19 19 18 18 17 17 17 17 17 17 17 17 17 17 17 17 17 17 17 17 17 16 16 16 16 16 16 16 17 16
18 17 17 18 17 17 18 18 18 18 18 18 19 18 18 18 17 17 17 17 17 17 17 17 17 17 17 17 17 17 17 17 17 17 16 16 16 17 17 17 17 17
18 18 18 18 18 18 17 18 18 18 18 18 18 18 18 17 17 17 17 17 17 17 17 17 17 17 17 17 17 17 17 17 17 17 17 17 17 17 17 17 17 17
18 18 17 18 18 18 17 18 18 18 18 18 18 18 18 17 17 17 17 17 17 17 17 17 17 17 17 17 17 17 17 17 17 17 17 17 17 17 17 17 17 16
18 17 17 18 18 18 18 18 18 18 18 18 18 18 18 17 17 17 17 17 17 17 17 17 17 17 17 17 17 17 17 17 17 17 17 17 17 17 17 17 17 17
17 17 17 18 18 18 18 18 18 18 18 18 18 18 17 17 17 17 17 17 17 17 17 17 17 17 17 17 17 17 17 18 17 18 18 18 17 17 17 17 17 17
18 17 17 17 17 18 18 18 18 18 18 18 18 17 17 17 17 17 17 17 17 17 17 17 17 17 17 17 17 17 17 17 18 18 18 18 18 18 17 17 17 18
18 17 17 17 17 17 18 18 17 17 17 17 17 17 17 17 17 17 17 17 17 17 17 17 17 17 17 17 17 17 18 18 18 18 18 18 18 18 18 17 17 18
16 16 16 17 17 17 17 17 17 17 17 17 17 17 17 17 17 17 17 17 17 17 17 17 17 17 17 17 17 17 18 18 18 18 18 18 18 18 18 18 17 18
16 16 17 17 17 17 17 16 16 17 17 17 17 17 17 17 17 17 17 17 17 18 17 17 17 17 17 17 17 17 17 18 18 18 18 18 18 18 18 18 17 18
16 16 17 17 16 16 16 16 16 16 16 17 17 17 17 17 17 17 17 17 18 18 18 18 17 17 17 17 17 17 17 17 17 18 18 18 18 18 18 18 17 18
16 16 16 16 16 16 16 16 16 16 16 16 16 16 17 17 17 17 17 17 17 17 18 17 17 17 17 17 17 17 17 17 17 17 18 18 18 18 18 17 17 17
16 15 16 16 16 16 16 16 16 16 16 16 16 16 16 16 16 16 17 17 17 17 17 17 17 17 17 17 17 17 17 17 17 17 18 17 17 18 17 17 18 17
14 14 15 15 16 16 16 16 15 15 15 15 16 16 16 16 16 16 17 17 17 17 17 16 16 16 16 16 17 17 17 17 17 17 17 18 18 18 17 17 18 17
14 14 14 14 15 15 15 15 15 15 15 15 15 15 15 15 15 16 16 17 17 16 16 16 16 16 16 16 16 16 17 17 17 17 17 18 18 18 18 17 18 17
13 13 13 13 13 14 14 15 15 15 15 15 15 15 15 15 16 15 15 16 16 15 15 15 16 16 16 16 16 16 16 17 17 17 17 17 18 18 18 18 17 17
13 13 13 12 13 13 14 14 15 14 14 14 14 14 15 15 15 15 14 14 15 15 15 15 15 16 16 16 16 16 16 16 17 17 17 17 18 18 18 18 18 17
13 13 12 12 12 12 12 13 13 13 13 13 13 13 14 14 13 13 13 13 14 14 14 14 14 15 15 16 16 16 16 16 17 17 17 17 17 18 18 18 18 18
12 12 11 11 11 11 12 12 12 11 12 12 12 13 13 13 12 12 12 12 12 13 13 13 13 14 14 15 15 16 16 16 16 16 16 17 17 17 17 17 17 17
11 11 11 11 11 10 11 11 11 11 11 12 12 12 12 12 12 12 12 12 12 12 12 12 13 13 13 14 14 15 16 16 15 16 16 16 16 16 16 16 16 16
10 10 10 10 10 10 10 10 10 11 11 11 12 12 12 12 11 11 11 11 11 11 11 12 12 12 13 14 14 14 15 15 15 16 16 16 16 15 16 16 16 16
9 10 10 10 10 10 10 10 10 10 11 11 11 11 11 11 11 11 11 11 11 11 10 11 12 12 13 13 14 14 14 15 15 16 16 16 15 15 15 15 15 15
8 8 9 9 10 10 10 10 10 10 11 11 11 11 11 11 10 10 11 11 11 11 11 11 11 12 12 13 14 14 14 14 15 16 15 15 15 15 15 15 15 15
8 8 8 8 8 8 8 9 9 9 10 10 10 9 9 9 9 10 10 10 10 11 10 10 10 11 12 12 13 13 13 13 14 15 15 14 15 15 15 15 15 14
7 7 8 8 8 8 7 8 8 8 9 9 9 9 9 9 9 9 9 9 8 9 10 9 9 9 10 11 11 12 12 12 12 12 12 12 13 14 14 15 15 14

ECMWFNIL_925_temp_057.txt.gz
Temp
17 17 17 17 18 18 18 17 17 19 20 20 20 20 19 19 18 18 19 19 19 19 19 18 18 18 18 18 18 18 18 18 17 17 17 17 17 17 17 17 17 17
17 18 17 18 18 18 18 18 19 20 20 20 20 20 19 19 19 19 19 19 19 19 18 18 18 18 18 18 18 18 18 18 17 18 17 17 17 17 17 17 17 17
17 17 17 18 18 18 18 19 20 20 20 20 20 20 19 19 19 19 18 19 19 19 18 18 18 18 18 18 18 18 18 18 18 18 18 17 18 17 17 17 18 18
17 17 18 17 17 18 19 19 19 19 20 19 19 19 19 19 19 19 18 19 19 18 18 18 18 18 19 18 18 18 18 18 18 18 18 18 18 18 17 17 17 17
17 18 17 16 17 18 19 19 19 19 19 19 19 19 19 19 19 19 19 19 19 18 18 18 18 18 19 18 18 18 18 18 18 18 18 18 18 18 17 17 17 17
17 17 17 16 17 18 18 19 19 19 19 19 19 19 19 19 19 19 19 19 19 19 19 18 18 18 19 19 18 18 18 18 18 18 18 18 18 18 18 18 18 17
17 17 17 17 18 18 19 19 19 19 19 19 19 19 19 19 19 19 19 19 19 19 19 19 18 18 19 19 19 18 18 19 18 18 19 19 18 18 18 18 18 18
17 17 17 18 19 19 19 19 18 19 19 19 19 19 19 19 19 19 19 19 19 19 19 19 19 19 19 19 19 19 19 19 19 19 20 19 19 19 19 18 18 18
17 17 18 19 19 19 19 18 18 18 19 19 19 19 19 19 19 19 19 19 19 19 19 19 19 19 19 19 19 19 19 19 19 20 20 19 19 19 19 18 18 19
17 17 18 19 19 19 19 18 18 18 19 19 19 19 19 19 19 19 19 19 19 19 19 19 19 19 19 19 19 19 19 19 19 19 19 19 20 20 20 19 18 18
17 17 18 18 19 19 18 18 18 18 19 19 19 19 19 19 19 19 19 19 19 19 19 19 19 19 19 19 19 19 19 19 19 19 19 19 19 19 20 19 18 18
17 16 17 18 18 18 18 18 18 18 18 19 19 18 18 18 19 19 19 19 19 19 19 19 19 19 19 19 19 19 19 19 19 19 19 19 19 19 19 19 18 18
16 16 17 18 18 18 18 18 18 18 18 19 19 18 18 19 19 19 19 19 19 19 19 19 19 19 19 19 19 19 19 19 19 19 19 19 19 19 19 19 18 18
16 17 17 17 17 17 18 18 18 18 18 18 19 18 18 19 19 18 19 19 19 19 19 19 19 18 18 18 19 19 19 19 18 19 19 19 19 19 19 19 18 18
16 17 17 17 17 17 17 18 17 18 18 18 18 18 18 18 18 18 18 18 18 18 18 18 17 17 17 17 18 18 18 18 18 18 19 19 19 19 19 19 19 18
15 16 16 16 17 17 17 17 17 18 18 18 18 18 18 18 18 18 18 18 18 18 17 17 16 16 17 17 17 17 18 18 18 18 19 19 19 19 19 19 19 18
15 15 15 16 17 17 17 17 17 17 17 17 16 16 16 17 17 18 18 18 17 17 16 16 16 16 17 17 17 17 17 17 18 18 19 19 19 19 19 19 19 18
15 14 14 15 15 15 15 15 15 15 15 15 15 15 15 15 15 16 16 15 15 16 16 16 16 16 16 16 16 17 17 17 18 18 18 19 19 19 19 19 19 18
15 14 14 13 13 13 14 14 14 14 14 15 15 15 14 14 14 14 14 14 14 15 15 15 15 15 16 16 16 16 16 17 17 18 18 19 19 19 19 19 19 19
14 14 13 12 12 13 13 13 14 14 14 14 14 13 13 13 14 13 13 13 14 14 14 14 14 14 15 16 16 16 16 17 17 17 18 18 18 18 19 19 19 19
14 13 12 12 12 12 12 12 12 13 13 12 12 13 13 13 13 13 13 13 13 14 14 14 13 14 14 15 15 16 16 16 16 17 17 18 18 18 18 18 18 18
12 11 11 11 11 11 11 11 12 12 12 12 12 12 12 12 12 12 12 12 12 13 13 13 13 13 14 14 15 15 16 16 16 16 17 17 17 17 17 17 17 17
10 10 10 10 10 10 10 10 11 11 11 12 12 11 11 11 11 11 12 12 12 12 12 12 13 13 14 14 14 15 15 16 16 17 17 17 17 17 17 17 17 17
9 9 9 9 9 9 9 10 10 10 10 11 11 11 11 11 11 11 11 11 11 11 11 12 13 13 13 14 14 14 15 15 16 17 17 17 17 17 17 17 16 16
9 9 9 9 9 9 9 9 10 10 10 11 11 11 11 11 11 11 11 10 10 11 10 10 11 12 12 13 13 14 14 14 15 16 16 16 16 17 17 16 16 15
9 10 9 9 9 10 10 10 10 10 10 10 10 10 10 11 11 11 11 10 10 10 10 10 10 11 12 12 13 13 13 13 13 13 14 14 14 16 16 16 16 14

ECMWFNIL_925_temp_060.txt.gz
Temp
19 17 17 17 18 18 19 19 19 19 19 19 18 19 19 19 19 19 19 19 19 19 19 18 18 18 18 18 18 18 18 18 18 17 17 18 18 17 17 17 17 17
17 17 18 17 18 18 19 19 19 19 19 19 19 19 19 19 19 19 19 19 19 19 19 18 18 18 18 18 18 18 18 18 18 17 17 18 17 17 17 17 17 17
16 17 17 17 18 18 19 19 19 19 19 19 19 20 19 19 19 19 19 19 19 19 18 18 18 18 18 18 18 18 18 18 18 18 17 17 17 17 17 17 17 17
16 17 17 18 18 18 19 19 19 19 19 19 20 19 19 19 19 19 19 19 19 18 18 18 18 18 19 18 18 18 18 18 18 18 18 18 18 18 17 17 17 17
17 17 17 17 18 18 18 19 19 19 19 20 20 19 19 19 19 19 19 19 19 18 18 18 18 19 19 18 18 18 18 18 18 18 18 18 18 18 18 17 17 17
16 17 17 18 18 18 18 19 19 19 19 19 19 19 19 19 19 19 19 19 19 18 18 18 18 19 19 19 18 18 18 18 18 18 18 18 18 18 18 17 17 17
16 17 17 18 18 18 18 19 19 19 19 19 19 19 19 19 19 19 19 19 19 19 19 19 19 19 19 19 19 18 18 19 18 18 18 18 18 18 18 18 18 17
16 17 18 18 18 18 18 18 19 19 19 19 19 19 19 19 19 19 19 19 20 19 19 19 19 19 19 19 19 19 19 19 19 19 19 19 19 18 18 18 18 18
16 17 18 18 18 18 17 18 18 19 19 19 19 19 19 19 19 19 19 19 19 19 19 19 19 19 19 19 19 19 19 19 19 19 19 19 19 19 19 18 18 18
15 17 17 18 18 18 17 18 18 18 19 19 19 19 19 19 19 19 19 19 19 19 19 19 19 19 19 19 19 19 19 19 19 19 19 19 19 19 19 19 18 18
16 17 17 17 18 18 17 18 18 18 19 19 19 19 19 19 19 19 19 19 19 19 19 19 19 19 19 19 19 19 19 19 19 19 19 19 20 19 19 19 18 18
16 17 17 17 17 17 17 18 18 18 19 19 19 19 19 19 19 19 19 19 19 20 19 19 20 19 19 19 19 19 19 19 20 20 19 20 20 19 19 19 18 18
15 16 16 16 16 17 17 18 18 18 18 19 19 19 19 19 19 19 19 19 19 20 19 19 19 19 19 19 19 19 19 19 19 19 19 20 20 19 19 19 18 18
15 15 16 15 15 17 18 18 18 18 18 18 19 19 19 19 19 19 19 19 19 19 19 19 19 18 18 19 18 18 19 19 19 19 19 19 19 19 19 19 18 18
14 15 15 15 16 17 18 17 17 17 18 18 18 19 19 19 19 19 19 19 19 18 18 18 18 18 18 18 18 18 18 18 18 19 19 19 19 19 19 19 18 18
15 15 16 16 16 17 17 17 17 17 18 18 18 18 19 19 19 19 19 18 18 17 17 17 17 17 17 18 18 18 18 18 18 19 19 19 19 19 19 19 18 18
15 16 16 16 16 17 17 17 17 18 18 18 18 18 18 18 18 17 17 17 17 17 17 17 17 17 17 17 17 17 18 18 18 18 19 19 19 19 19 19 18 18
15 15 15 15 15 16 17 17 17 16 16 16 16 16 16 16 16 16 16 16 16 17 17 16 16 16 17 17 17 17 17 17 18 18 18 19 19 19 19 19 18 18
14 14 14 14 14 15 16 16 15 15 15 15 15 15 15 15 15 15 15 15 16 16 16 16 16 16 16 17 17 17 17 17 17 17 18 18 19 19 19 19 19 18
13 13 13 13 14 14 15 15 15 15 15 15 15 15 15 15 15 15 15 15 15 15 15 15 15 16 16 16 16 17 17 17 17 17 17 18 18 18 18 18 18 18
12 12 12 13 13 13 13 14 14 14 14 14 14 14 14 14 14 14 14 14 14 14 14 14 14 14 15 15 16 16 17 17 17 17 17 17 18 18 17 18 17 17
11 11 12 12 12 12 12 12 13 13 13 14 14 13 13 13 13 13 13 13 13 13 13 13 13 13 14 14 15 16 16 16 16 17 17 17 17 17 17 17 17 17
10 11 11 11 11 11 11 12 12 12 12 13 13 12 12 12 12 12 12 11 12 12 13 13 13 13 13 14 15 15 15 16 16 16 16 17 17 17 17 16 17 17
9 10 10 11 11 11 11 11 11 11 11 12 12 12 12 12 12 12 11 11 11 11 12 13 13 13 13 14 14 15 15 15 15 16 16 16 16 16 16 16 16 16
9 9 9 10 10 10 10 10 10 10 10 11 11 11 11 11 11 11 11 11 11 11 11 12 12 12 13 13 14 14 14 15 15 15 15 15 15 15 15 15 15 15
9 9 9 9 9 9 9 10 10 10 10 10 11 11 11 11 11 11 11 11 11 11 11 11 11 12 12 13 13 14 14 14 14 14 14 14 14 14 14 14 14 14

ECMWFNIL_925_temp_063.txt.gz
Temp
16 16 16 16 17 17 18 18 18 18 18 18 18 18 18 18 18 18 18 18 18 18 18 18 18 18 18 18 18 18 18 18 18 18 17 17 17 17 17 17 17 17
16 16 16 16 16 17 18 19 19 18 18 19 18 18 18 18 18 18 18 18 18 18 18 18 18 18 18 18 18 18 17 17 17 17 17 17 17 17 17 17 17 17
16 16 16 16 16 17 18 19 19 18 19 19 18 18 18 18 18 18 18 18 18 18 18 18 18 18 18 18 18 18 18 18 17 17 17 17 17 17 17 17 17 17
17 17 17 16 17 18 18 18 18 19 19 18 18 18 18 18 18 18 18 18 18 18 18 18 18 18 18 18 18 18 18 18 17 17 17 17 17 17 17 17 17 17
16 16 16 16 17 18 18 18 18 19 19 18 18 18 18 18 18 18 18 18 18 18 18 18 18 18 18 18 18 18 18 18 17 17 17 17 17 17 17 17 17 17
16 16 16 16 17 18 18 18 19 19 19 18 19 19 19 18 18 18 18 18 18 18 18 18 18 18 18 18 18 18 18 18 18 17 17 17 17 17 17 17 17 17
16 16 16 17 18 18 18 18 18 19 19 19 19 19 18 18 18 18 18 18 18 18 18 18 18 18 18 18 18 18 18 18 18 18 18 18 17 17 17 17 17 17
15 15 16 17 18 18 18 18 18 19 19 19 19 19 18 18 18 18 18 19 18 18 18 18 18 18 18 18 18 18 18 18 18 18 18 18 18 18 17 17 17 17
14 14 15 17 18 18 18 18 19 19 19 19 19 18 19 19 19 19 19 19 19 18 18 18 18 18 18 18 18 18 18 18 18 18 18 18 18 18 18 17 17 17
14 14 15 16 17 18 18 18 18 19 19 19 19 19 19 19 19 19 19 19 19 18 19 19 19 19 19 18 19 19 19 19 19 19 19 19 18 18 18 18 17 17
14 14 14 15 16 17 18 18 18 19 19 19 19 19 19 19 19 19 19 19 19 19 19 19 19 19 19 19 19 19 19 19 19 19 19 19 19 19 19 18 18 18
14 14 14 15 15 16 17 18 18 18 19 19 19 19 19 19 19 19 19 19 19 19 19 19 19 19 19 19 19 19 19 19 19 19 19 19 19 19 19 18 18 18
14 14 15 15 15 16 17 18 18 18 19 19 19 19 19 19 19 19 19 19 19 19 18 18 18 18 18 19 19 19 19 19 19 19 19 19 19 19 19 18 18 17
14 14 14 14 15 16 17 18 18 18 18 19 19 19 19 19 19 19 18 18 18 18 18 18 18 18 18 18 18 18 18 19 19 19 19 19 19 19 19 18 18 18
14 14 14 14 15 16 17 17 18 18 19 19 19 19 19 19 19 18 18 18 18 18 18 18 18 18 18 18 18 18 18 18 18 19 19 19 19 18 19 18 18 17
14 14 14 14 13 15 17 17 17 17 18 19 18 18 19 18 18 18 18 18 18 18 18 18 18 18 18 18 18 18 18 18 18 18 18 19 19 18 18 18 18 17
14 14 14 14 13 14 16 16 16 15 17 18 18 18 18 18 17 17 17 17 18 18 17 17 17 17 17 17 17 17 18 18 18 18 18 18 19 18 18 18 18 18
14 14 14 14 14 14 15 15 15 15 16 17 17 17 17 17 17 17 17 17 17 17 17 16 16 16 17 17 17 17 17 18 18 18 18 18 18 18 18 18 18 18
13 13 14 14 14 15 15 14 15 16 16 16 16 16 16 16 16 16 16 16 17 17 16 16 16 16 16 16 17 17 17 17 17 18 18 18 18 18 18 18 18 18
13 13 13 14 14 14 14 14 15 15 15 15 16 16 16 16 15 16 16 16 16 16 16 16 15 15 16 16 17 17 17 17 17 17 17 17 17 17 17 17 17 17
12 13 13 13 13 14 14 14 14 14 14 15 15 15 15 15 15 15 15 15 15 15 15 15 14 14 15 16 16 16 17 17 17 17 17 17 17 17 17 17 17 17
11 12 12 12 13 13 13 13 13 14 14 14 14 14 14 14 14 14 14 13 14 14 14 14 13 14 14 15 15 16 16 17 16 16 16 16 16 16 16 16 16 16
10 11 11 11 12 12 12 12 13 13 13 13 14 13 13 13 12 12 13 13 13 13 13 13 13 13 14 14 15 15 16 16 16 15 15 15 14 15 15 15 15 15
9 10 10 11 11 11 11 12 12 12 13 13 13 13 12 12 12 12 12 12 12 12 12 13 13 13 13 14 14 15 15 15 15 15 14 14 13 13 14 14 13 13
8 9 9 10 10 10 11 12 12 12 12 12 12 12 11 11 11 11 11 11 12 12 12 12 13 13 13 14 14 14 15 14 14 14 13 12 12 12 12 12 12 12
8 8 9 9 9 9 10 11 11 11 11 11 11 11 11 11 11 11 11 11 11 11 12 12 12 12 12 13 13 14 14 14 14 13 13 12 11 11 11 11 11 11

ECMWFNIL_925_temp_066.txt.gz
Temp
16 16 17 17 17 17 16 15 15 16 17 17 18 18 18 18 18 18 18 18 18 17 18 18 18 18 18 18 18 18 18 18 18 18 18 18 17 17 17 17 17 17
16 16 17 17 17 17 16 16 15 16 17 18 18 18 18 18 18 18 18 18 18 18 18 18 18 18 18 18 18 18 18 18 18 17 17 17 17 17 17 17 17 17
16 16 16 17 17 16 16 16 16 16 17 18 18 18 18 18 18 18 18 18 18 18 18 18 18 18 18 18 18 18 18 18 17 17 17 17 17 17 17 17 17 17
16 16 16 17 17 17 16 16 16 17 17 18 18 18 18 18 17 17 18 18 18 18 18 18 18 18 18 18 18 17 17 17 17 17 17 17 17 17 17 17 17 17
16 16 17 17 17 17 16 16 17 17 18 18 18 18 18 18 17 17 18 18 18 18 18 18 18 18 18 18 18 18 17 17 17 17 17 17 17 17 17 17 17 17
16 16 17 17 17 17 16 16 17 18 18 18 18 18 18 18 18 18 18 18 18 18 18 18 18 18 18 18 17 17 17 17 17 17 17 17 17 17 17 17 17 17
16 16 17 17 17 16 16 16 17 18 18 18 18 18 17 18 18 18 18 18 18 18 18 18 18 18 18 17 17 17 17 17 17 17 17 17 17 17 17 17 17 17
16 17 17 18 17 16 17 17 16 17 18 18 17 17 16 17 18 18 18 18 18 18 18 18 18 18 18 17 17 17 17 17 17 17 17 17 17 17 17 17 16 16
16 16 17 17 17 16 17 17 16 17 18 17 17 16 16 17 18 18 18 18 18 18 18 18 18 18 18 18 18 18 17 17 17 17 17 17 17 17 17 17 17 16
16 16 16 16 16 16 17 17 16 16 17 16 15 16 17 18 18 18 18 18 18 18 18 18 18 18 18 18 18 18 18 18 17 17 17 17 17 17 17 17 17 17
15 15 15 15 15 15 16 16 16 15 16 16 16 16 18 18 18 18 18 18 18 18 18 18 18 18 18 18 18 18 18 18 18 18 18 18 18 18 18 18 17 17
15 15 14 14 14 15 15 15 16 15 16 17 16 17 18 18 18 18 18 18 18 18 18 18 18 18 18 18 18 18 18 18 18 18 18 18 18 18 18 18 18 17
14 14 14 14 14 15 15 15 15 16 17 17 16 17 18 18 18 18 18 18 18 18 18 18 18 18 18 18 18 18 18 18 19 18 18 18 18 18 18 18 18 18
14 14 14 13 14 14 15 15 15 16 17 16 16 18 18 18 18 18 18 18 18 18 18 18 18 18 18 18 18 18 18 18 18 18 18 19 19 19 18 18 18 18
14 13 13 13 14 14 14 14 15 16 15 15 17 18 18 18 18 18 18 18 17 18 18 18 18 18 18 18 18 18 18 18 18 18 19 19 19 18 18 18 18 17
14 13 13 13 14 14 14 14 14 14 14 15 17 18 18 18 18 18 18 17 17 17 18 18 18 18 18 18 18 18 18 18 18 18 18 18 18 18 18 18 17 17
13 13 13 13 13 13 13 14 14 14 14 15 17 17 17 17 17 17 17 17 17 17 17 17 17 17 17 18 18 18 18 18 18 18 18 18 18 18 18 18 17 16
13 13 13 13 13 13 13 14 14 13 14 16 17 17 17 17 17 17 17 17 17 17 17 17 17 17 17 17 17 18 18 18 18 18 18 18 18 18 18 18 17 16
13 13 13 13 13 13 14 14 13 13 14 16 16 16 17 17 17 16 16 16 17 17 17 16 16 17 17 17 17 17 17 17 18 18 18 18 18 17 17 17 16 16
13 13 13 13 13 13 14 14 13 13 14 15 15 16 16 16 16 16 16 16 16 16 16 16 16 16 16 17 17 17 17 17 17 17 18 18 17 16 16 16 16 15
12 12 12 13 12 13 14 13 13 13 14 14 15 15 15 15 15 15 15 15 15 15 15 15 15 15 16 16 16 16 16 16 17 17 17 17 16 15 16 15 15 15
10 11 12 12 12 13 13 13 12 14 14 14 14 14 14 14 14 14 15 14 14 14 15 14 14 14 15 16 16 16 16 16 16 16 16 15 15 14 15 14 14 14
9 10 10 11 11 12 12 12 12 13 13 13 13 13 13 13 13 13 13 13 14 14 14 14 13 14 15 15 15 16 16 16 16 15 15 14 13 13 13 13 13 14
8 8 9 10 10 10 10 11 12 11 11 12 13 12 12 12 12 12 13 13 13 13 13 14 13 13 14 14 15 15 15 15 15 14 13 13 12 12 12 12 12 12
8 8 8 9 9 9 9 10 11 10 10 11 12 12 12 12 12 12 12 12 12 12 13 13 13 13 13 14 14 14 15 15 14 14 13 12 11 11 11 12 12 12
8 8 8 8 8 8 8 9 10 9 9 10 11 11 11 11 11 11 11 10 11 11 11 12 12 12 13 13 13 14 14 14 14 13 12 11 11 11 11 11 11 12

ECMWFNIL_925_temp_069.txt.gz
Temp
15 15 16 16 16 16 16 16 16 16 16 16 17 17 16 15 16 17 17 17 17 17 17 17 17 17 17 17 17 17 17 18 18 17 17 17 17 17 17 17 16 17
15 15 16 16 16 16 16 16 17 17 17 16 16 16 16 15 15 16 17 17 16 16 16 17 17 17 17 17 17 17 17 18 18 17 17 17 17 17 17 17 17 17
15 15 16 16 15 15 16 16 17 18 17 17 16 16 16 16 15 16 17 17 17 16 16 17 17 17 17 17 17 17 17 18 18 18 17 17 17 17 17 17 17 17
16 16 16 16 15 16 17 16 16 17 17 17 17 16 16 15 15 15 17 17 17 17 16 16 16 17 17 17 17 17 17 18 18 18 17 17 17 17 17 17 17 17
16 17 17 16 16 16 16 16 16 17 17 17 16 16 16 15 15 16 17 17 17 17 16 15 16 17 17 17 17 17 17 17 17 17 17 17 17 17 17 16 16 17
16 16 16 16 16 16 16 16 17 17 17 17 16 16 16 16 16 17 17 17 17 18 17 15 15 17 18 17 18 17 17 17 17 17 17 17 17 17 17 16 16 17
15 15 16 16 16 16 17 17 17 16 16 16 15 15 16 16 16 17 17 17 17 18 18 16 16 18 18 17 18 17 17 17 17 17 17 17 17 16 16 16 16 17
15 15 16 16 16 16 17 17 16 16 15 15 15 15 16 16 17 17 17 17 17 18 17 16 17 18 18 17 17 17 17 17 17 17 17 17 17 16 16 16 16 16
15 15 16 16 16 16 16 16 16 15 15 15 15 15 16 17 17 16 15 16 16 17 17 17 17 17 17 17 17 17 17 17 17 17 17 16 16 16 16 16 16 16
15 15 15 16 16 16 16 15 15 15 15 15 15 15 17 17 17 15 15 16 16 16 17 18 17 17 17 17 17 17 17 17 17 17 17 17 16 16 17 16 16 16
15 15 15 15 15 16 16 15 15 15 15 15 15 16 16 17 16 15 15 16 15 16 17 17 17 17 17 17 17 17 17 17 17 17 17 17 17 17 17 17 17 17
14 14 14 15 14 15 15 15 14 14 14 15 16 16 15 16 16 15 15 16 16 17 18 17 17 18 17 17 17 17 17 17 17 17 17 17 17 17 17 17 17 17
14 14 14 14 14 15 14 14 14 14 14 16 17 16 14 14 15 15 16 15 16 17 18 17 18 18 17 17 17 17 17 17 17 17 17 17 17 17 17 17 17 17
13 13 13 14 14 14 14 14 14 14 15 16 16 15 14 14 15 16 15 15 17 18 17 18 18 17 17 17 17 17 18 18 18 18 17 18 18 18 17 17 17 17
13 13 13 13 13 14 14 14 14 14 15 15 15 15 15 15 16 16 16 16 17 17 17 18 17 17 17 17 18 18 18 18 18 18 18 18 18 18 18 18 17 17
13 13 13 14 14 13 14 13 14 14 14 15 15 15 15 15 15 15 16 17 17 17 17 17 17 17 18 18 18 18 18 18 18 18 18 18 18 18 18 18 17 17
13 13 13 14 14 13 13 13 13 13 13 14 14 14 14 14 14 15 16 17 17 17 17 17 17 17 18 18 18 18 18 18 18 18 18 18 18 18 18 17 17 17
13 13 13 13 13 13 13 13 13 13 13 13 13 13 13 14 14 15 16 17 17 17 17 17 17 17 18 18 18 18 18 18 18 18 18 18 18 18 18 17 17 16
12 13 13 13 13 13 12 12 13 13 13 13 13 12 12 13 15 16 16 16 17 17 17 17 17 17 17 17 18 18 18 18 18 18 18 18 18 17 17 16 16 15
11 12 12 12 12 12 12 12 12 12 12 12 13 12 12 13 15 16 16 16 17 17 17 17 17 17 17 17 17 17 18 18 18 18 18 17 17 16 16 15 15 15
10 11 12 11 11 11 11 11 11 10 11 11 11 11 11 13 15 15 15 16 16 16 17 16 16 16 16 17 17 17 17 17 18 18 17 17 16 15 15 14 14 15
9 10 10 10 10 10 10 10 10 9 9 10 10 11 11 12 13 14 15 15 15 16 16 16 16 16 16 16 17 17 17 17 17 17 16 15 14 14 14 14 14 14
8 8 9 10 10 9 8 9 9 9 9 10 11 11 11 12 13 13 14 14 14 15 16 15 15 15 15 16 16 16 17 17 16 16 15 14 13 13 13 13 13 14
8 7 8 8 9 9 8 8 9 10 9 10 11 11 11 11 12 12 13 13 13 14 14 15 14 14 14 15 15 16 16 16 16 15 14 13 13 13 13 13 13 13
8 8 8 7 8 8 7 7 8 9 9 9 9 10 10 10 10 11 12 12 12 13 13 14 14 13 13 14 15 15 16 16 15 14 13 12 12 12 12 12 13 13
7 8 8 7 7 7 7 7 7 8 8 9 8 8 9 9 9 10 10 10 11 12 12 13 12 12 12 13 14 14 15 15 15 14 13 12 12 12 12 12 12 12

ECMWFNIL_925_temp_072.txt.gz
Temp
16 16 15 15 15 15 16 17 16 16 16 15 15 15 15 16 16 17 16 16 16 16 16 16 16 16 16 16 15 16 16 16 16 17 17 17 17 16 16 16 16 16
16 16 16 15 15 16 16 17 17 16 15 15 15 15 16 15 16 16 16 16 17 17 17 17 16 16 15 15 15 16 17 16 16 17 17 17 17 17 16 17 16 16
16 16 16 16 16 16 16 16 16 16 16 16 15 16 17 16 16 15 16 16 17 17 17 17 16 15 15 15 15 16 16 16 16 17 17 17 17 17 17 17 16 16
16 15 15 15 15 16 16 16 16 16 17 17 16 16 16 16 15 15 15 16 16 17 17 17 16 16 15 15 16 16 15 15 16 17 17 17 17 17 17 17 17 16
14 15 15 15 15 16 16 15 15 16 17 18 18 17 16 15 15 15 15 15 16 16 17 17 16 16 16 16 16 16 15 15 16 17 17 17 17 17 17 17 16 16
14 14 15 15 15 16 16 16 15 15 16 17 17 17 16 16 15 15 15 15 16 16 17 17 16 16 16 16 15 16 15 15 16 17 17 17 17 17 17 16 16 16
14 14 14 15 15 15 16 16 16 15 16 16 17 16 16 16 15 15 15 15 16 16 16 16 15 15 16 15 15 16 15 15 16 17 17 17 17 17 16 16 16 16
14 14 14 15 15 15 15 16 15 15 15 16 16 16 16 16 15 15 15 15 15 16 16 16 15 15 15 15 16 16 15 15 16 16 16 17 17 16 16 16 16 16
14 14 14 14 15 15 15 15 15 15 16 16 15 16 15 16 15 15 15 15 15 15 15 15 15 15 15 16 17 17 15 15 16 16 16 17 16 16 16 16 16 16
13 14 14 14 14 14 15 15 15 16 16 15 15 15 15 15 15 15 15 15 15 15 15 16 16 15 15 16 17 17 15 15 16 17 16 17 17 16 16 16 16 16
14 13 13 14 14 14 14 14 15 15 15 15 15 15 15 15 14 15 15 15 15 16 16 16 17 16 16 17 17 16 15 15 16 17 16 17 17 16 16 16 16 16
14 13 13 13 13 14 14 14 14 14 15 15 15 15 15 14 14 15 15 15 16 16 17 17 17 17 16 17 16 15 15 16 17 17 17 17 16 16 16 16 16 16
13 13 13 13 13 13 13 13 14 14 14 14 15 15 15 14 14 14 15 16 16 17 17 17 17 16 17 17 16 15 15 16 17 17 17 17 16 16 16 16 16 16
12 13 13 13 13 14 13 13 13 13 14 14 14 14 15 14 14 14 15 15 16 16 16 16 16 16 16 16 16 16 16 17 17 17 17 17 16 16 16 16 16 16
11 12 13 13 13 13 13 13 13 13 13 14 14 14 14 14 14 14 15 15 16 16 16 16 16 16 17 16 16 17 17 17 17 17 17 17 17 16 16 16 16 16
11 11 12 13 13 13 13 13 13 13 13 13 14 14 14 14 14 14 15 15 15 15 15 16 16 17 17 17 17 17 17 17 17 17 17 17 17 17 16 16 16 16
10 11 12 12 13 13 13 13 13 13 13 13 13 14 13 13 14 14 15 15 15 15 16 16 17 17 17 17 17 17 17 17 17 17 17 17 17 17 17 16 16 16
9 10 11 12 13 13 13 13 13 13 13 13 13 13 13 13 13 14 14 15 15 16 16 16 17 17 17 17 17 17 17 18 18 18 18 17 17 17 17 17 17 16
8 9 11 12 12 13 13 13 13 13 13 12 12 12 12 12 13 13 14 14 15 16 16 16 17 17 17 17 17 18 18 18 18 18 18 17 17 17 17 17 17 16
8 8 9 10 11 12 12 12 12 11 11 11 11 11 11 12 12 13 14 14 15 16 16 16 16 17 17 17 17 18 18 18 18 18 17 17 16 16 16 16 16 16
7 8 8 8 9 10 10 10 9 9 9 9 9 10 11 11 11 12 13 13 15 16 16 16 16 17 17 17 17 17 18 18 17 17 16 16 16 15 15 15 15 15
7 7 7 7 8 8 8 8 7 7 8 8 9 10 10 10 10 10 11 12 13 15 15 15 16 16 16 17 17 17 17 17 17 16 15 15 14 14 14 14 14 15
6 7 7 7 7 7 7 6 6 6 6 7 8 9 9 9 9 9 10 10 12 13 14 15 15 15 16 16 16 17 17 17 16 15 15 14 14 14 14 14 14 14
6 6 6 6 6 6 6 6 6 5 5 7 8 8 8 8 9 9 10 10 11 12 13 14 14 14 15 15 16 16 17 16 16 15 14 13 13 13 13 14 14 14
6 6 6 6 6 5 5 5 6 5 5 6 8 7 7 8 9 9 9 10 10 10 11 12 12 13 13 14 15 15 16 16 16 15 13 13 13 13 13 13 13 13
6 5 5 6 6 5 5 4 5 6 6 6 7 7 7 8 9 8 8 8 9 9 9 10 11 11 12 13 14 14 15 15 15 15 13 12 12 12 12 12 12 13

ECMWFNIL_925_temp_075.txt.gz
Temp
15 15 16 16 16 16 16 15 15 15 16 16 16 15 16 16 16 16 16 16 16 16 15 15 15 16 16 16 16 16 16 15 15 15 15 15 15 15 15 15 15 15
15 15 15 16 16 16 16 15 16 16 16 16 16 16 16 15 15 15 16 16 16 16 16 16 15 15 15 15 16 16 15 15 15 15 15 15 15 15 15 15 15 15
14 14 15 15 15 15 15 15 15 15 15 15 15 16 15 15 15 15 15 15 16 16 16 16 15 15 14 15 16 16 15 15 16 15 15 15 15 15 15 15 15 15
14 14 14 14 15 15 15 15 15 15 15 15 15 15 15 15 15 15 15 15 15 16 16 16 15 15 14 14 15 16 15 16 16 16 15 15 15 14 15 15 15 15
14 14 14 14 14 15 15 15 15 15 15 16 15 15 15 15 15 15 15 15 15 15 16 16 15 15 14 14 15 15 15 15 15 15 15 15 15 14 14 14 15 15
13 14 14 14 14 14 15 15 15 15 15 16 16 15 15 15 15 15 15 15 15 15 15 15 15 15 14 14 14 15 15 15 15 15 15 15 14 14 14 14 14 15
13 13 14 14 14 14 14 14 15 15 15 16 16 15 15 15 15 15 15 15 15 15 15 15 15 15 15 14 15 15 15 15 15 15 15 15 14 14 14 14 14 15
13 13 13 14 14 14 14 14 15 15 15 15 15 14 15 15 15 15 15 15 15 15 15 15 15 15 15 15 15 15 15 15 15 15 15 15 15 14 14 14 14 15
13 13 13 13 14 14 14 14 14 15 15 15 15 14 14 14 14 15 15 15 15 15 15 15 15 15 15 15 15 15 15 15 15 15 15 15 15 15 15 14 15 15
11 12 13 13 13 14 14 14 14 14 14 14 14 14 14 14 14 14 15 15 15 15 15 15 14 15 15 15 15 15 15 15 15 15 15 15 15 15 14 14 15 16
11 11 12 13 13 13 13 14 14 14 14 14 14 14 14 14 14 14 15 15 15 15 15 15 15 15 15 14 15 15 15 15 15 15 14 14 15 15 14 15 15 16
10 10 11 12 12 13 13 13 14 14 14 14 14 14 14 14 14 14 14 15 15 15 15 15 15 14 14 14 15 14 15 15 15 15 14 15 16 15 14 15 15 16
9 9 10 11 12 12 13 13 13 14 14 14 14 14 14 14 14 14 14 15 15 15 15 15 15 15 15 15 14 14 15 16 16 15 14 15 16 15 14 15 16 16
8 9 9 10 11 12 12 13 13 13 14 14 14 14 14 14 14 14 14 14 14 14 15 15 15 15 15 14 14 15 15 16 15 14 14 15 15 14 14 14 15 16
8 8 9 9 10 11 12 13 13 13 13 14 14 14 14 14 14 14 14 14 14 14 14 14 14 14 15 15 15 15 15 15 15 15 15 14 14 14 13 14 15 16
8 8 8 9 10 11 12 13 13 13 13 13 14 14 14 14 14 14 14 14 14 14 14 14 14 15 15 16 16 16 16 16 16 16 15 15 14 13 13 15 15 16
7 8 8 9 10 10 12 13 13 13 13 13 13 13 13 13 14 14 14 14 14 14 14 14 15 16 16 16 16 16 17 17 16 16 15 15 14 13 13 14 15 16
7 8 8 8 8 9 10 11 12 12 13 13 13 13 13 13 13 13 14 14 14 13 14 14 15 16 16 16 16 16 16 17 16 16 15 15 14 14 14 16 16 16
7 7 7 7 8 8 9 10 10 11 10 11 11 12 13 13 13 13 13 13 13 13 14 14 15 16 16 16 16 16 16 16 16 16 16 16 15 15 16 17 17 17
6 7 6 6 7 7 8 8 8 8 8 8 9 10 11 11 12 12 12 12 12 12 13 14 15 16 16 16 16 16 16 16 16 16 16 16 15 16 16 17 17 17
6 6 6 6 6 6 7 7 7 7 7 7 7 8 9 9 9 9 10 10 10 11 11 12 14 15 16 16 16 17 17 17 17 16 16 16 16 16 16 16 17 17
6 6 6 6 6 6 5 5 6 6 6 6 7 7 7 8 8 8 8 9 9 10 10 11 12 13 14 16 17 17 17 17 16 16 16 16 15 15 15 16 16 16
5 5 5 5 5 5 5 5 5 5 5 6 6 6 6 7 7 8 8 8 9 10 10 9 10 10 12 15 17 17 17 16 16 15 15 15 14 14 15 15 15 15
5 5 5 5 5 5 5 5 5 5 5 5 5 5 5 5 7 8 8 7 8 9 8 8 9 10 10 12 15 17 17 16 15 15 14 14 14 14 14 15 15 15
5 5 5 5 5 5 5 5 5 5 4 5 5 5 5 5 6 7 7 7 8 8 8 8 8 9 11 12 13 14 16 16 15 15 14 13 13 13 14 14 14 14
5 5 5 5 5 5 5 5 6 6 5 5 5 6 6 5 6 6 7 7 7 8 8 8 8 9 10 11 12 12 14 15 15 15 14 13 13 13 13 13 13 13

ECMWFNIL_925_temp_078.txt.gz
Temp
16 16 17 17 17 17 17 17 17 17 17 17 17 17 17 16 16 16 16 16 16 15 16 16 16 16 16 16 16 16 17 16 16 16 16 16 16 16 17 17 17 18
15 16 16 17 17 16 16 16 16 17 17 17 17 17 17 17 16 16 16 15 15 15 15 15 16 16 16 16 16 16 16 16 16 16 16 16 16 16 17 16 17 17
14 15 15 16 16 16 16 16 16 16 17 17 17 17 17 17 17 16 16 15 15 15 15 15 15 15 16 16 16 16 16 16 16 16 16 16 16 16 16 17 17 16
13 14 14 15 15 16 16 16 16 16 16 16 17 17 17 17 17 16 16 15 16 16 15 15 15 15 15 15 16 16 16 16 16 16 16 16 16 16 16 16 17 16
13 13 14 14 15 15 16 16 16 16 16 16 16 16 16 17 17 17 16 16 15 16 16 15 15 15 15 15 15 15 15 15 16 16 16 16 16 16 16 16 16 16
13 13 14 14 14 15 15 16 16 16 16 16 16 16 16 16 17 17 17 17 16 15 15 16 16 16 15 15 15 15 15 15 16 16 16 16 16 16 16 16 16 16
13 13 14 14 14 14 15 16 16 16 15 16 16 15 15 16 17 17 17 17 17 16 16 16 15 15 15 15 15 15 15 15 15 16 16 16 16 16 16 16 16 16
13 13 14 14 14 15 15 15 15 15 15 15 15 15 15 16 16 17 16 17 17 16 16 16 15 15 15 15 15 15 15 15 15 16 16 16 16 16 16 16 15 16
12 13 13 13 14 14 15 15 15 15 15 15 15 15 15 16 16 16 16 16 16 16 16 16 15 15 15 15 15 15 15 15 15 16 16 16 16 16 16 16 16 16
11 12 12 12 13 14 14 15 15 15 15 15 15 15 15 15 16 16 16 16 16 16 16 16 16 16 15 15 15 15 16 16 15 16 16 16 16 16 16 16 16 16
11 11 11 11 12 12 13 14 15 15 15 15 15 15 15 15 15 15 15 15 16 16 16 16 16 16 16 15 15 16 16 16 16 16 16 15 16 16 16 16 16 16
10 10 11 11 11 11 12 13 14 15 15 15 15 15 15 15 15 16 15 15 16 16 16 16 16 16 16 16 16 16 16 16 16 16 15 15 16 16 16 16 16 16
10 10 10 10 11 11 12 13 14 14 15 15 15 15 15 15 15 16 16 15 16 16 16 16 16 16 17 17 16 16 16 16 16 16 15 15 16 16 16 16 16 16
10 10 10 10 11 11 12 12 13 14 15 15 15 15 15 15 15 15 15 15 15 15 16 16 16 16 16 16 16 16 16 16 16 16 16 16 16 16 15 15 15 16
10 10 10 11 11 11 11 11 12 12 13 14 14 14 14 15 15 15 15 15 15 15 15 15 16 15 16 16 16 16 16 16 16 16 16 16 15 15 15 15 15 15
10 10 10 10 11 11 11 11 11 11 11 12 13 14 14 14 14 15 15 15 15 15 15 15 15 15 15 16 16 16 16 16 16 16 16 16 15 15 14 14 15 15
10 10 10 10 10 10 10 10 10 10 10 11 11 12 12 13 13 14 14 14 15 15 15 15 15 15 15 16 16 15 15 16 16 15 16 15 15 14 14 14 15 15
10 10 10 10 10 10 10 10 10 9 9 9 10 10 10 11 11 12 13 14 14 14 15 15 15 14 14 15 15 15 15 15 15 15 15 15 15 14 15 14 15 15
10 10 10 10 10 10 10 9 9 8 8 8 8 8 9 9 9 10 11 12 13 14 14 14 14 14 14 15 15 15 15 15 15 15 15 15 14 15 15 15 15 15
9 9 10 9 9 9 9 9 8 8 7 7 7 7 8 8 8 8 9 10 11 12 12 13 13 14 14 14 14 14 14 15 15 15 15 15 15 15 15 15 15 15
9 9 9 9 9 9 9 9 8 8 7 6 7 7 7 7 7 7 8 9 9 10 10 11 12 12 13 13 13 14 14 14 15 15 15 15 16 16 16 15 15 16
8 8 9 9 9 8 8 8 8 7 6 6 6 6 6 6 6 6 6 7 8 8 9 9 9 10 12 12 13 13 13 14 14 14 14 15 15 15 15 15 15 15
8 8 8 8 8 8 8 8 7 7 6 6 6 5 5 5 5 5 5 6 6 7 7 7 8 9 10 11 12 12 12 13 13 13 13 13 14 14 15 14 14 15
8 8 8 8 8 7 7 7 7 6 6 6 6 5 5 5 5 5 5 5 5 5 6 7 7 8 8 9 10 11 12 12 12 12 13 13 13 13 14 14 15 15
8 8 7 8 7 7 7 6 6 5 5 6 6 5 5 5 5 5 5 4 4 5 6 7 7 8 8 9 10 11 12 12 12 12 12 13 13 13 13 13 14 15
8 7 7 7 7 7 7 6 6 5 5 6 6 5 5 5 5 5 5 4 4 4 5 6 8 8 8 9 10 11 11 11 12 12 12 12 12 12 11 11 12 13

ECMWFNIL_925_temp_081.txt.gz
Temp
16 16 17 17 18 18 18 17 17 16 16 16 16 17 18 19 18 18 18 18 17 17 17 17 17 17 17 17 17 16 17 17 17 17 17 17 17 17 17 17 17 17
15 16 16 16 17 18 18 17 17 17 16 16 17 17 17 18 18 17 17 17 17 17 17 17 17 17 17 17 17 16 16 17 17 17 17 17 17 17 16 17 17 17
15 15 15 16 16 17 17 17 17 17 17 17 17 17 18 17 17 17 17 16 17 17 17 17 17 17 17 17 17 16 16 16 17 17 17 17 16 16 16 17 17 17
14 14 15 15 15 16 16 17 17 18 17 17 17 17 17 17 17 17 16 16 16 17 17 17 17 17 17 16 16 16 16 16 17 17 17 17 16 16 16 17 17 17
14 14 15 15 15 15 16 16 17 17 17 17 17 17 17 17 17 16 16 16 16 16 17 17 17 17 17 17 16 16 16 16 17 17 17 17 17 16 16 17 17 17
14 14 14 15 15 15 15 16 17 17 17 17 17 16 17 17 17 17 17 16 16 16 16 16 17 17 17 17 16 16 16 16 16 17 17 17 17 16 16 17 17 16
13 13 14 14 14 14 15 16 16 17 17 17 16 16 16 16 16 17 16 16 16 16 16 16 17 18 17 17 17 16 16 16 16 16 17 17 17 17 16 16 16 17
13 13 13 13 13 14 14 15 16 16 17 17 17 17 16 16 16 16 16 16 16 17 17 16 16 17 17 17 17 17 16 16 16 16 16 17 17 16 16 16 16 16
13 13 13 13 13 13 13 14 14 15 16 16 17 17 17 16 16 16 15 16 17 16 16 16 16 16 17 17 17 17 17 16 16 16 16 16 16 16 16 17 16 16
12 13 13 12 12 13 13 13 13 14 15 16 16 16 16 17 16 16 16 16 16 16 16 16 16 16 17 17 17 17 17 17 16 16 16 16 16 16 16 17 16 17
12 12 12 12 12 12 12 13 13 13 14 15 16 16 16 17 16 16 16 16 16 16 16 16 16 16 17 17 17 17 17 17 17 16 16 16 16 16 16 17 17 17
13 12 12 12 12 12 13 13 13 13 13 14 15 16 16 16 16 17 17 17 16 16 16 16 16 16 16 16 17 17 17 17 17 16 16 16 16 16 16 17 16 17
13 12 12 12 12 12 12 13 13 13 13 13 13 14 15 16 16 16 17 17 17 16 16 16 16 16 16 16 17 17 17 17 16 16 16 16 16 17 17 17 16 17
13 12 12 13 13 13 12 12 13 13 13 13 13 13 14 14 15 15 16 16 16 16 16 16 16 16 16 16 17 17 17 16 16 16 15 15 16 16 17 16 16 17
13 12 13 13 13 13 13 12 13 12 12 12 12 12 12 13 13 14 15 15 16 16 16 16 15 15 16 16 16 16 16 16 16 16 15 15 15 15 16 16 16 16
13 13 13 13 13 13 13 12 12 12 12 11 11 11 11 11 12 12 13 13 14 15 15 16 16 15 15 16 16 16 16 15 15 15 15 15 15 15 15 15 16 16
12 12 13 12 12 12 12 12 12 12 11 11 10 10 10 10 10 11 11 11 12 12 13 14 15 15 14 15 15 15 15 15 15 15 15 15 15 15 15 15 16 16
12 12 12 12 12 12 12 12 11 11 11 10 9 9 9 9 9 9 9 10 10 10 11 12 13 13 14 14 14 15 15 15 15 14 14 15 16 15 15 15 16 16
11 11 11 11 11 11 11 11 11 10 10 9 9 8 8 8 9 9 8 9 9 9 9 10 11 12 13 13 13 14 15 15 14 14 14 15 15 15 16 16 16 15
11 11 11 11 11 10 10 10 10 9 9 8 8 8 8 8 8 8 7 7 8 8 8 8 9 10 11 12 13 13 14 14 14 14 14 15 15 16 16 15 15 15
10 10 10 10 10 10 10 9 9 9 8 8 8 8 7 7 7 7 7 6 6 6 6 7 7 8 9 11 12 13 13 14 14 14 14 14 15 15 15 14 15 16
10 9 10 10 10 9 9 9 9 8 8 8 8 8 7 7 6 6 6 5 5 5 5 6 6 6 7 9 11 12 12 13 13 13 14 14 14 15 15 15 15 15
9 9 9 9 10 10 9 9 9 8 8 7 7 7 7 7 7 6 5 5 5 5 4 5 5 6 7 8 9 10 11 12 12 13 14 14 15 15 15 14 15 15
9 9 9 9 9 9 9 9 9 8 8 7 7 7 7 7 7 7 5 5 4 4 4 4 4 5 6 8 8 9 10 11 12 13 13 13 13 13 13 13 14 14
9 9 9 9 9 9 9 9 9 9 8 8 7 7 7 7 7 7 6 5 4 4 4 4 4 4 6 8 9 9 10 11 12 12 12 12 12 12 12 12 13 14
8 8 8 8 9 9 9 9 9 9 8 8 8 7 6 6 6 6 6 5 4 4 4 3 4 4 5 7 9 10 10 11 11 11 11 11 11 10 10 11 11 12

ECMWFNIL_925_temp_084.txt.gz
Temp
15 15 15 15 15 16 16 17 17 17 17 17 17 17 17 17 17 17 16 16 17 17 17 17 17 17 17 17 16 16 17 17 17 16 16 16 16 16 16 16 17 17
15 15 15 15 15 15 16 16 16 17 17 17 17 17 17 16 17 17 16 17 17 17 17 17 17 17 17 17 16 16 16 17 17 16 16 16 16 16 16 17 17 17
14 14 14 15 15 15 16 16 16 16 17 17 16 16 16 16 16 16 16 17 17 17 17 17 17 17 17 17 17 16 16 16 17 17 17 16 16 16 16 17 17 17
14 14 14 14 15 15 15 15 16 16 17 17 17 16 16 16 17 16 16 16 16 16 17 17 17 17 17 16 16 16 16 16 16 17 17 17 16 16 16 16 16 16
14 14 14 14 14 14 14 14 15 16 16 17 17 16 16 16 16 16 16 16 16 16 17 17 17 17 17 17 16 16 16 16 16 16 16 16 17 16 16 16 16 16
14 13 14 13 13 13 13 14 14 14 15 15 16 16 16 16 16 16 16 16 16 16 16 17 17 17 17 17 16 16 16 16 16 16 16 16 17 16 16 16 16 16
13 13 13 13 13 13 13 13 13 13 14 14 15 16 16 16 16 16 16 16 16 16 16 15 16 17 17 17 16 16 16 16 16 16 16 16 16 16 16 16 16 16
13 13 12 12 13 13 13 13 13 13 13 14 14 15 16 16 16 16 16 16 15 16 16 15 15 16 17 17 16 16 16 16 17 16 15 16 16 16 16 15 15 15
13 13 12 12 13 13 13 13 13 13 13 14 14 14 15 15 16 16 16 16 15 15 15 16 15 15 16 17 16 16 16 16 16 16 15 15 15 16 16 15 15 15
13 13 12 13 13 13 13 13 13 13 13 13 13 14 14 14 15 15 16 16 16 15 15 15 15 15 16 16 17 17 16 16 16 16 15 15 15 16 15 15 15 15
13 13 13 13 13 13 13 13 13 13 13 13 13 13 13 14 14 14 15 15 15 15 15 15 15 15 15 15 16 16 16 16 15 15 15 15 15 16 15 15 15 15
13 13 13 13 13 13 13 13 13 13 13 13 13 13 13 13 13 13 13 14 14 15 15 15 15 15 15 15 15 15 15 15 15 15 15 15 15 15 16 16 15 15
13 13 13 13 13 13 13 13 13 13 12 12 12 12 11 12 12 12 12 13 13 14 14 14 14 14 15 15 14 14 15 15 15 15 15 15 15 15 15 16 16 15
13 13 13 13 13 12 12 12 12 12 12 11 11 10 10 10 10 11 11 11 12 12 12 13 13 14 13 13 12 13 13 14 14 15 15 15 15 15 15 16 16 16
12 12 12 12 12 12 12 12 12 11 11 10 10 9 9 9 9 10 10 10 10 10 11 11 12 12 12 11 11 11 12 13 13 14 14 15 15 15 15 15 16 16
12 11 11 11 11 11 11 11 11 11 10 10 9 9 9 8 9 9 9 8 9 9 9 10 10 11 10 9 10 10 11 12 13 13 14 14 14 15 15 15 15 15
11 11 11 11 11 10 10 10 10 10 9 9 9 9 8 8 8 8 8 8 7 8 8 8 9 9 8 8 9 10 11 11 12 12 13 14 14 14 15 15 15 15
11 10 10 10 10 10 10 10 9 9 9 9 9 9 8 8 8 7 7 7 6 6 6 7 7 7 6 7 8 10 10 11 11 12 12 13 14 14 15 15 15 15
10 10 10 10 10 10 10 10 9 9 9 8 8 8 8 8 8 7 7 6 6 6 5 6 6 6 5 6 7 9 10 10 11 11 12 13 13 14 14 14 15 14
10 10 10 10 10 10 10 10 10 9 9 8 8 8 8 8 8 7 6 6 5 5 5 5 5 4 5 6 7 8 9 9 10 12 12 12 13 13 14 14 14 14
10 10 9 10 10 10 10 10 10 9 9 8 8 8 8 8 8 7 6 5 5 5 4 4 4 4 4 6 7 8 9 9 10 11 12 12 12 13 14 14 14 14
9 9 9 9 9 10 9 9 9 9 9 8 8 8 7 7 7 7 6 5 5 4 4 4 4 3 4 6 7 8 9 9 10 10 11 11 12 13 13 14 14 14
9 9 9 9 9 9 9 9 9 9 9 8 8 8 7 7 6 6 6 5 4 4 4 4 3 3 4 6 7 8 9 10 10 10 11 11 12 13 13 13 14 14
8 8 8 8 9 9 9 9 9 9 8 8 8 8 7 7 6 6 6 5 4 4 4 4 3 3 3 5 7 8 9 10 9 10 10 10 11 11 11 11 12 13
9 8 8 8 8 8 8 8 8 8 8 8 8 8 7 7 6 6 5 5 4 4 3 3 3 3 3 4 6 7 9 9 9 9 9 8 8 9 9 10 11 13
9 8 8 8 8 8 8 8 8 8 7 7 7 7 7 6 6 6 5 5 4 3 3 3 3 3 3 3 4 6 7 8 8 7 7 7 7 7 7 7 9 11

ECMWFNIL_925_temp_087.txt.gz
Temp
14 14 14 14 14 14 14 14 14 15 15 16 16 16 16 16 16 16 16 16 17 17 17 17 17 16 16 15 16 16 16 16 16 15 15 15 15 16 16 16 16 16
14 14 14 14 13 13 14 14 14 14 14 14 15 15 16 16 16 16 16 16 16 16 16 17 16 16 15 14 15 16 15 15 15 15 15 15 15 15 15 15 15 16
13 13 13 13 13 13 13 13 13 13 14 14 14 15 15 15 16 16 16 16 15 15 16 16 16 16 15 14 15 16 15 15 16 16 16 15 15 15 15 15 15 15
13 12 12 13 12 12 13 13 13 13 13 14 14 14 15 15 15 16 16 16 16 15 15 15 16 16 15 14 15 15 15 15 15 16 16 16 16 15 15 15 15 15
12 12 12 12 12 12 12 12 13 13 13 13 13 14 14 14 15 15 15 16 16 16 16 15 15 15 15 15 15 15 15 15 15 15 15 16 16 16 16 15 15 15
12 12 12 12 13 13 13 13 13 13 13 13 13 13 14 14 14 14 15 15 15 15 15 16 15 15 15 15 15 16 16 16 16 15 15 15 16 15 15 15 15 16
13 13 13 13 13 13 13 13 13 13 13 13 13 13 13 13 13 14 14 14 14 15 15 15 15 15 15 15 15 15 15 15 16 16 15 15 15 15 15 15 15 15
13 13 13 13 13 13 13 13 13 12 12 12 12 12 12 12 12 13 13 13 14 14 14 14 14 15 15 15 15 15 15 15 15 15 15 15 15 15 15 15 15 15
13 13 13 12 12 12 12 12 12 12 11 11 11 11 11 11 11 11 12 13 13 13 13 13 13 14 14 14 14 14 14 15 15 15 15 15 15 15 15 15 15 15
12 12 12 12 12 12 12 12 11 11 10 10 10 9 9 10 10 10 11 11 12 12 12 12 12 12 12 12 12 12 12 13 14 14 15 15 15 15 15 15 15 15
12 11 11 11 11 11 11 11 11 10 10 9 9 9 8 9 9 9 9 9 10 10 10 11 11 11 11 11 11 11 11 12 12 13 14 14 14 14 14 15 15 15
11 11 11 11 11 11 10 10 10 10 9 9 9 8 8 8 8 8 8 8 8 8 9 9 10 10 9 10 10 11 11 11 12 12 13 13 14 14 14 14 14 14
11 11 11 10 10 10 10 9 9 9 9 9 8 8 8 8 8 7 7 7 7 7 7 8 9 8 8 8 8 9 10 11 11 12 12 13 13 14 14 14 14 14
10 10 10 10 10 10 9 9 9 8 8 8 8 8 8 8 7 7 7 6 6 6 6 7 7 7 6 6 6 7 8 9 10 11 12 13 13 13 13 14 14 14
10 10 10 10 10 10 9 9 9 8 8 8 8 8 8 8 7 7 6 6 6 6 5 6 6 6 5 4 5 6 7 7 8 9 11 12 12 13 13 13 14 14
10 10 10 10 10 10 9 9 9 8 8 8 8 8 8 8 7 6 6 6 5 5 5 5 5 5 4 4 5 6 6 7 8 9 10 10 11 12 12 13 14 14
9 9 9 9 9 9 9 9 9 8 8 8 8 7 7 7 7 6 6 5 5 5 4 4 4 4 3 4 6 7 7 7 7 8 9 10 10 10 11 13 13 14
9 9 9 9 9 9 9 9 9 8 8 8 7 7 7 7 6 6 5 5 4 4 4 4 4 3 3 4 6 7 8 8 8 9 9 9 9 9 10 12 13 13
8 8 9 9 9 9 9 9 8 8 8 8 7 7 6 6 6 6 5 4 4 4 4 4 3 3 3 4 5 7 9 9 9 9 9 9 9 9 10 11 12 13
8 8 8 8 8 8 8 8 8 8 8 7 7 7 6 6 6 5 4 4 4 4 3 3 3 3 3 4 5 7 9 9 9 9 9 9 9 9 10 10 11 13
8 8 8 8 8 8 7 7 7 7 7 7 7 7 6 6 5 5 4 4 4 3 3 3 3 3 3 3 4 6 9 9 8 7 8 8 9 9 9 10 11 12
8 8 8 8 8 7 7 7 7 6 6 6 6 6 6 6 5 4 4 4 4 3 3 3 3 3 3 3 3 5 7 7 6 6 7 8 8 9 9 10 10 11
8 8 8 8 7 7 7 6 6 6 6 6 6 6 6 5 5 5 4 4 4 3 3 3 3 3 4 4 4 4 5 5 4 5 6 6 7 8 8 9 9 10
8 8 8 8 7 7 6 6 6 5 5 5 5 5 5 5 5 5 4 4 3 3 3 3 3 3 4 4 4 4 4 3 3 4 4 5 6 6 7 7 8 8
8 8 8 8 7 7 6 6 6 5 5 5 5 5 5 5 5 5 4 4 3 3 3 3 3 3 4 4 4 4 4 4 3 3 3 4 4 5 5 6 6 7
8 8 8 8 7 7 6 6 6 5 5 5 5 5 4 4 4 4 4 4 4 3 3 3 3 3 3 4 4 4 4 4 4 3 3 3 4 4 4 4 5 6

ECMWFNIL_925_temp_090.txt.gz
Temp
13 13 13 13 13 13 13 13 13 13 14 14 14 14 15 15 15 15 15 15 15 15 16 16 15 15 15 15 15 15 15 15 15 15 15 15 15 14 14 15 15 15
12 12 12 12 12 12 12 13 13 13 13 13 14 14 14 14 15 15 15 15 15 15 15 15 15 15 15 15 15 15 15 14 14 14 14 15 15 15 15 15 15 15
12 12 12 12 12 12 12 12 12 13 13 13 13 13 14 14 14 14 14 15 15 15 15 15 15 15 15 15 15 15 15 14 14 14 14 14 15 15 15 15 15 15
12 12 12 12 12 12 12 12 12 12 12 12 12 13 13 13 13 14 14 14 14 14 14 14 14 14 14 15 15 15 15 15 14 14 14 14 14 15 15 15 15 15
12 12 12 12 12 12 12 12 12 11 11 11 11 12 12 12 12 13 13 13 13 13 14 14 14 13 14 14 14 14 15 15 15 14 14 14 14 15 15 14 14 14
12 12 12 12 12 11 11 11 11 10 10 10 10 11 11 11 12 12 11 12 12 12 12 12 12 12 13 13 13 13 13 14 14 14 14 14 14 14 14 14 14 14
11 11 11 11 11 10 10 10 9 9 9 9 9 9 9 10 10 10 10 10 11 11 11 11 11 11 11 12 12 12 12 13 13 13 13 14 14 14 14 14 14 14
11 10 10 10 10 10 9 9 9 8 8 8 8 8 8 8 9 9 9 9 9 10 10 9 9 10 10 10 11 11 12 12 12 13 13 13 13 14 14 14 14 14
10 10 10 10 9 9 9 9 9 8 8 8 8 8 7 7 7 8 8 8 8 8 9 8 8 8 8 9 9 10 11 11 12 12 12 13 13 13 14 14 14 14
10 10 10 9 9 9 8 8 8 8 8 8 8 7 7 7 7 7 7 7 7 7 7 7 7 7 8 8 8 8 8 9 10 11 12 12 13 13 13 14 14 14
10 10 9 9 8 8 8 8 8 8 8 8 8 7 7 7 7 6 6 6 6 6 6 6 6 6 6 6 6 6 7 7 8 9 10 11 12 13 13 13 14 14
10 9 9 9 8 8 8 8 8 8 8 8 8 7 7 7 6 6 6 6 5 5 5 6 6 5 4 4 5 5 6 6 7 7 8 9 10 12 12 13 13 13
9 9 9 9 8 8 8 8 8 8 7 7 7 7 7 6 6 5 5 5 5 5 5 5 5 4 3 3 4 5 5 6 7 7 8 8 9 10 11 12 12 13
9 9 9 9 8 8 8 8 7 7 7 7 7 7 6 6 5 5 5 4 4 4 4 4 4 4 3 3 4 4 5 6 7 8 8 8 9 9 9 10 11 12
9 9 9 8 8 8 8 8 7 7 6 6 6 6 6 5 5 4 4 4 4 4 4 4 4 3 3 3 3 3 5 7 8 8 8 8 8 8 8 9 9 10
8 8 8 8 8 8 8 7 7 7 6 6 6 5 5 5 4 4 4 4 4 4 4 4 3 3 3 3 3 4 5 7 8 8 7 7 7 8 8 8 8 9
8 8 7 7 7 7 7 7 7 6 6 6 6 5 5 4 4 4 4 4 3 3 3 3 3 3 3 4 5 5 6 7 7 7 7 7 7 7 7 8 8 8
7 7 7 7 7 6 6 6 6 6 6 6 6 5 5 5 4 4 4 3 3 3 3 3 3 3 3 4 5 6 6 7 6 6 6 6 6 6 7 7 8 8
7 6 6 6 6 6 6 6 6 6 6 6 6 5 5 5 4 4 4 3 3 3 3 3 3 3 4 4 5 6 6 6 6 6 5 5 5 5 6 6 6 7
7 6 6 6 5 5 5 5 5 5 5 5 5 5 5 5 4 4 4 4 3 3 3 3 3 3 4 5 5 5 6 5 6 6 5 5 5 5 5 5 5 5
6 6 6 5 5 5 5 5 5 5 5 5 5 5 5 4 4 4 4 4 3 3 3 3 3 3 4 4 5 5 5 5 5 5 6 5 5 4 4 4 4 5
7 6 6 5 5 5 5 5 5 5 5 5 5 5 5 4 4 4 4 3 3 3 3 3 3 3 3 4 4 5 5 5 4 5 6 5 5 4 4 4 4 4
7 6 6 6 5 5 5 5 5 5 5 5 5 5 5 4 4 4 4 3 3 3 3 3 3 3 3 4 4 4 4 4 4 4 5 5 4 4 4 4 4 4
7 7 6 6 6 5 5 5 5 5 5 5 5 5 4 4 4 4 4 3 3 3 2 2 2 3 3 3 3 3 4 4 3 3 4 4 4 3 3 3 4 4
7 7 7 6 6 6 5 5 5 5 5 5 5 5 5 4 4 4 4 3 3 3 2 2 2 2 3 3 3 3 4 4 3 2 2 3 3 3 3 3 3 4
7 7 7 7 6 6 6 6 6 6 6 6 5 5 5 5 4 4 4 4 3 3 3 2 2 2 3 3 3 3 3 3 3 2 1 2 2 2 3 3 3 4

ECMWFNIL_925_temp_093.txt.gz
Temp
13 13 13 13 13 13 13 12 12 12 12 12 12 12 13 12 13 14 14 14 15 15 15 14 14 14 14 14 14 15 15 14 14 14 14 14 14 14 14 14 14 14
12 12 12 12 12 12 12 11 11 12 12 11 12 12 12 12 12 13 13 13 14 14 13 13 13 13 14 14 14 14 14 14 14 14 14 14 14 14 14 14 14 14
12 12 12 11 11 11 11 11 11 11 11 11 11 11 11 12 12 12 12 13 13 13 12 12 12 13 13 13 13 13 13 13 13 14 14 14 14 14 14 14 14 14
11 11 11 11 11 10 10 11 10 10 10 10 10 10 10 11 11 11 12 12 12 12 11 11 11 11 12 12 12 12 13 13 13 13 13 14 14 14 14 14 14 14
11 11 10 10 10 10 10 9 9 9 9 9 9 9 9 10 10 10 10 10 11 10 10 9 10 10 11 11 12 12 12 12 12 12 13 13 14 14 14 14 14 14
10 10 10 10 10 9 9 8 8 8 8 8 8 8 8 8 8 9 9 9 9 9 8 8 8 9 10 10 11 11 11 12 12 12 12 13 13 14 14 14 14 14
10 10 9 9 9 9 8 8 8 8 7 7 7 7 7 7 7 7 7 8 8 8 7 7 7 8 9 9 10 10 11 11 11 11 12 12 13 13 14 14 14 14
9 9 9 9 8 8 8 8 8 8 8 7 7 7 7 6 6 6 6 6 6 7 6 6 7 8 8 8 8 9 9 10 9 9 10 11 11 12 12 13 13 13
9 8 8 8 8 8 8 8 8 8 8 7 7 7 6 6 6 6 6 6 5 6 6 6 6 6 6 6 5 5 6 7 8 8 8 8 9 9 10 11 12 12
8 8 8 8 8 8 7 7 7 7 7 7 7 6 6 6 6 5 5 5 5 5 5 5 5 4 4 3 3 3 4 5 6 7 7 7 7 7 8 9 9 9
8 8 8 8 7 7 7 7 7 7 7 7 6 6 6 5 5 5 5 5 5 4 4 4 4 3 3 3 3 3 3 4 5 6 7 7 7 7 7 7 7 7
8 8 8 7 7 7 7 7 7 6 6 6 6 5 5 4 4 4 4 4 4 4 4 4 3 3 3 3 3 3 3 4 5 6 7 7 7 7 7 7 7 7
8 8 8 7 7 7 7 7 6 6 6 6 5 5 4 4 4 4 4 4 4 4 4 3 3 3 2 3 3 4 3 4 4 6 6 7 7 7 7 7 7 7
8 8 7 7 7 7 6 6 6 6 6 5 5 5 4 4 4 4 4 4 3 3 3 3 3 2 2 3 3 4 4 4 4 5 6 6 6 6 7 7 7 7
7 7 7 7 7 6 6 6 6 6 5 5 5 5 4 4 4 3 3 3 3 3 3 3 3 2 2 3 3 3 4 4 4 5 5 6 6 6 6 6 6 6
7 7 7 6 6 6 6 6 6 6 5 5 5 5 4 4 4 3 3 3 3 3 3 3 2 2 3 4 4 3 4 4 4 4 5 5 5 5 5 5 6 6
6 6 6 6 6 6 6 6 6 5 5 5 5 4 4 4 4 3 3 3 3 3 3 2 2 2 3 4 4 4 4 4 3 3 4 4 5 5 5 5 5 5
6 6 5 5 5 6 6 6 5 5 5 5 4 4 4 4 4 3 3 3 3 3 3 2 2 2 3 4 4 5 5 5 3 3 3 4 4 4 4 4 4 4
5 5 5 5 5 5 6 6 5 5 5 5 5 4 4 4 4 3 3 3 3 3 3 2 2 3 3 4 4 4 5 5 4 3 3 3 3 4 4 4 4 4
5 5 5 5 5 6 6 6 5 5 5 5 5 5 4 4 4 3 3 3 3 3 3 2 2 2 3 3 4 4 4 4 4 3 3 3 3 3 3 3 3 3
5 5 5 5 6 6 6 6 6 5 5 5 5 5 4 4 4 4 3 3 3 3 3 2 2 2 3 3 3 4 4 4 4 3 3 3 3 3 3 3 3 3
6 6 6 6 6 6 6 6 6 5 5 5 5 5 5 4 4 4 3 3 3 3 2 2 2 2 3 3 3 3 4 4 4 3 3 3 3 3 2 2 2 2
6 6 6 6 6 6 6 6 5 5 5 5 5 5 5 5 4 4 3 3 3 2 2 2 2 2 3 3 3 3 3 3 3 2 2 2 3 2 2 2 2 2
7 7 7 6 6 6 6 6 5 5 5 5 5 5 5 5 4 4 4 3 3 2 2 2 2 2 2 3 3 3 3 2 1 1 1 2 2 2 2 2 2 2
7 7 7 7 6 6 6 6 5 5 5 5 5 5 5 5 5 4 4 3 3 3 2 2 2 2 2 3 3 3 3 2 1 -0 0 1 2 1 2 2 2 2
7 7 7 6 6 6 6 6 6 5 5 5 5 5 5 5 4 4 4 3 3 3 3 2 2 2 2 2 3 3 3 2 1 -0 -0 0 1 1 1 1 1 1

ECMWFNIL_925_temp_096.txt.gz
Temp
11 11 11 11 11 11 11 11 11 10 10 10 11 11 11 11 11 12 12 12 12 12 13 13 13 13 13 13 13 13 13 13 13 13 13 14 14 14 14 14 14 14
11 11 11 11 11 10 10 10 10 10 9 9 9 10 10 10 10 11 11 11 11 11 11 12 12 12 12 12 13 12 12 12 13 13 13 13 13 13 14 14 14 14
11 10 10 10 10 10 10 10 9 9 9 9 9 9 9 9 9 10 10 10 10 9 10 10 11 11 11 12 12 12 11 11 12 12 12 13 12 13 13 13 13 14
10 10 10 10 9 9 9 9 8 8 8 8 8 8 8 8 8 9 9 9 9 8 8 9 10 10 10 11 11 11 11 11 11 11 12 12 12 12 12 13 13 13
10 9 9 9 9 9 8 8 8 7 7 7 7 7 7 7 7 7 7 7 7 7 7 8 9 9 10 10 10 10 10 10 10 10 10 11 11 11 12 12 12 12
9 9 9 8 8 8 8 8 7 7 7 7 7 6 6 6 6 6 6 6 6 6 6 7 8 8 8 9 9 8 8 8 8 8 7 8 9 9 10 10 10 11
9 8 8 8 8 8 8 7 7 7 7 7 7 6 6 6 6 5 5 5 5 5 5 5 5 6 6 6 6 6 6 6 6 6 6 7 7 8 8 8 8 9
8 8 8 8 8 8 7 7 7 7 6 6 6 6 5 5 5 5 5 5 5 5 4 4 3 3 4 4 4 4 4 4 4 5 6 6 7 7 8 8 8 8
8 8 8 8 8 7 7 7 7 6 6 5 5 5 4 4 4 4 4 4 4 4 4 3 3 3 3 3 3 3 3 4 4 4 5 6 6 7 7 7 7 7
8 8 7 7 7 7 7 6 6 6 6 5 5 4 4 4 4 4 4 4 4 4 3 3 3 2 3 3 4 3 3 3 3 4 5 5 6 6 6 6 6 6
7 7 7 7 7 6 6 6 6 6 5 5 5 5 4 4 4 4 4 3 3 3 3 3 2 2 3 4 5 4 4 4 3 3 4 4 5 5 6 6 6 6
7 6 6 6 6 6 5 5 5 5 5 5 5 5 5 4 4 4 3 3 3 3 3 2 2 2 3 4 5 5 5 5 4 4 4 4 4 5 5 5 6 6
7 6 6 6 6 5 5 5 5 5 4 4 4 5 4 4 4 4 4 3 3 3 2 2 2 3 3 4 4 5 5 5 5 4 3 4 4 4 5 5 5 5
7 6 6 6 6 6 5 5 5 4 4 4 4 4 4 4 4 4 4 3 3 3 2 2 3 3 3 3 3 4 4 5 5 3 3 3 4 4 5 5 5 5
6 6 6 6 6 6 5 5 5 4 4 4 4 4 4 4 4 4 4 3 3 3 3 2 2 2 3 3 3 3 3 4 4 3 3 3 3 4 4 4 4 4
6 6 6 6 6 6 5 5 5 5 5 5 5 4 4 4 4 4 4 3 3 3 2 2 2 2 3 3 3 3 4 4 3 2 2 3 3 3 4 4 4 4
6 6 6 6 6 6 5 5 5 5 5 5 5 5 5 5 4 4 4 3 3 3 2 2 2 2 3 4 4 4 4 4 3 2 2 2 2 3 3 3 3 3
6 6 6 6 6 6 6 6 6 5 5 5 5 5 4 4 4 4 4 4 3 3 2 2 2 2 3 4 4 4 4 5 4 3 2 2 2 2 2 3 3 3
6 6 6 6 6 6 6 6 6 5 5 5 5 4 4 4 4 4 4 3 3 3 2 2 2 2 3 3 4 4 4 4 4 3 2 2 2 2 2 2 2 2
6 6 6 6 6 6 6 6 5 5 5 5 4 4 4 4 3 3 3 3 3 2 2 2 2 2 3 3 3 4 4 4 4 3 2 2 2 2 2 2 2 2
6 6 6 6 6 6 6 6 5 5 5 5 4 4 4 3 3 3 3 2 2 2 2 2 2 2 3 3 3 4 4 4 3 3 3 3 3 2 1 2 2 2
6 6 6 6 6 6 6 5 5 5 5 4 4 4 4 4 3 3 2 2 2 2 2 2 2 2 2 2 2 3 3 3 3 2 2 2 2 2 1 1 1 1
6 6 6 6 6 6 6 5 5 5 5 4 4 4 4 4 3 3 2 2 2 2 2 1 1 1 2 2 2 2 2 2 2 1 1 1 1 1 1 1 1 1
6 6 6 6 6 6 5 5 5 5 5 4 4 4 4 4 3 3 3 2 2 2 1 1 1 1 2 2 2 2 2 1 1 0 0 0 0 0 0 1 1 1
6 6 6 6 6 5 5 5 5 5 5 4 4 4 4 4 4 3 3 2 2 2 2 1 1 1 1 2 2 2 2 1 1 -0 -0 -0 0 0 0 0 1 1
6 6 6 6 6 5 5 5 5 5 5 5 4 4 4 4 4 3 3 2 2 2 2 1 1 1 1 1 1 1 1 1 1 -0 -1 -0 -0 -0 0 0 0 1

ECMWFNIL_925_temp_099.txt.gz
Temp
11 10 10 10 10 9 9 9 9 9 9 9 9 9 8 8 8 9 9 9 9 9 10 10 11 12 12 12 12 12 12 12 12 12 12 13 13 13 13 13 13 13
10 10 9 9 9 9 8 8 8 8 8 8 8 8 8 8 8 8 8 8 8 8 9 10 10 11 11 11 11 11 11 12 12 12 12 12 12 12 12 12 13 13
9 9 9 9 9 9 8 8 8 8 8 8 7 7 7 7 7 7 7 8 7 7 7 7 8 8 9 9 9 9 9 9 9 9 9 10 10 10 10 10 11 11
9 9 9 9 9 9 8 8 8 7 7 7 7 7 7 7 7 7 6 7 7 6 6 6 6 6 6 6 7 7 7 7 7 7 7 7 7 8 8 8 9 9
8 8 8 8 8 8 8 8 7 7 6 6 6 6 6 6 6 6 6 6 6 5 5 5 5 5 5 5 5 5 6 6 6 5 6 6 7 7 7 7 8 8
8 8 8 8 8 8 8 7 7 6 6 6 6 6 6 6 5 5 5 5 5 5 5 5 5 5 5 5 5 4 5 5 5 5 5 6 6 6 7 7 7 7
7 7 7 7 7 7 7 6 6 5 5 5 5 5 5 5 5 5 5 5 5 5 5 4 5 5 5 4 4 4 4 5 5 5 5 6 6 6 7 7 7 7
7 7 6 6 6 6 6 6 5 5 5 5 5 5 5 5 5 5 5 5 5 5 4 4 4 4 4 4 4 4 4 4 4 4 5 5 5 6 6 6 6 7
7 6 6 6 6 6 5 5 5 5 5 5 5 5 5 5 5 5 5 5 5 4 4 4 4 4 4 4 4 4 4 4 4 4 4 5 5 5 6 6 6 7
6 6 6 6 5 5 5 5 5 5 5 5 5 5 5 4 4 4 4 4 4 4 4 4 4 4 3 3 3 4 4 4 4 4 4 5 5 5 5 6 6 6
6 6 6 6 5 5 5 5 5 5 5 5 5 5 5 4 4 4 4 4 4 4 4 4 4 3 3 3 3 3 3 4 4 4 4 4 5 5 5 6 6 6
6 6 6 6 5 5 5 5 5 5 5 5 5 5 5 4 4 4 4 4 4 4 4 4 4 3 3 3 3 3 3 4 4 4 4 4 4 5 5 6 6 6
6 6 6 5 5 5 5 5 5 5 5 4 5 5 4 4 4 4 4 4 3 3 3 3 3 3 2 2 2 3 3 3 4 4 4 4 5 5 5 5 5 5
6 6 5 5 5 5 5 5 5 5 4 4 4 4 4 4 4 4 4 3 3 3 3 3 3 2 2 2 2 2 2 3 3 3 4 4 4 5 5 5 5 5
6 6 6 5 5 5 5 5 5 4 4 4 4 4 4 4 4 3 3 3 3 3 3 3 3 2 2 3 3 2 2 3 3 3 3 4 4 4 4 4 5 5
6 6 6 5 5 5 5 5 5 4 4 4 4 4 4 4 3 3 3 3 3 3 3 3 2 2 3 3 3 3 3 2 3 4 4 4 4 4 4 4 4 4
6 6 6 5 5 5 5 5 4 4 4 4 4 4 3 3 3 3 3 3 3 3 3 3 2 2 3 4 4 4 3 2 3 4 4 4 4 4 4 3 3 4
6 6 5 5 5 5 5 4 4 4 4 4 3 3 3 3 3 3 3 3 3 3 3 3 2 2 3 4 4 5 4 2 3 4 4 4 3 3 3 3 3 3
6 6 5 5 5 5 5 4 4 4 4 4 3 3 3 3 3 2 3 3 3 3 3 3 2 2 3 4 4 5 4 3 3 3 4 3 3 3 2 2 2 2
6 6 5 5 5 5 5 5 4 4 4 4 3 3 3 3 3 2 3 3 3 3 3 3 2 2 3 4 4 5 4 2 3 3 3 3 3 2 2 2 2 2
6 6 5 5 5 5 5 4 4 4 4 4 3 3 3 3 2 2 2 2 2 3 3 2 2 2 3 3 4 5 4 2 3 3 3 3 2 2 2 2 2 2
6 6 5 5 5 5 5 4 4 4 4 4 3 3 3 3 2 2 2 2 2 2 2 2 2 2 2 2 3 4 3 2 3 3 3 2 2 2 2 2 2 2
6 6 5 5 5 5 5 4 4 4 4 4 4 3 3 3 2 2 2 2 2 2 2 2 2 2 2 2 3 3 3 2 2 3 2 2 2 2 2 3 2 2
6 6 5 5 5 5 5 4 4 4 4 4 4 3 3 3 3 3 2 2 2 2 1 2 2 2 2 2 2 3 2 2 2 2 2 1 2 2 2 2 2 2
6 6 6 5 5 5 5 5 5 5 4 4 4 4 3 3 3 3 2 2 2 2 1 2 2 2 2 2 2 2 2 1 2 2 1 1 2 2 2 2 2 2
6 6 6 5 5 5 5 5 5 5 5 5 4 4 4 3 3 3 3 2 2 2 2 2 2 2 2 2 2 2 1 1 1 1 1 1 2 2 2 2 2 2

ECMWFNIL_925_temp_102.txt.gz
Temp
13 13 13 12 12 12 12 12 12 12 11 11 11 11 10 10 9 10 9 9 9 10 10 10 10 10 9 9 10 10 10 10 10 10 10 11 11 11 11 11 11 12
12 12 12 11 11 11 11 11 11 11 11 10 10 9 9 9 9 9 9 9 9 9 9 9 9 9 9 9 9 9 9 9 9 9 9 10 10 10 10 10 11 11
11 11 11 11 10 10 11 11 11 11 10 9 9 9 8 8 8 9 9 9 9 9 9 9 9 9 9 9 9 9 9 9 9 8 9 10 10 10 10 10 10 10
11 10 10 10 10 10 10 10 10 10 9 9 9 9 9 8 9 9 9 9 9 9 9 8 8 8 8 8 9 9 9 9 9 8 9 10 10 10 10 10 10 10
10 10 10 10 10 9 9 10 10 9 9 9 9 8 8 8 8 9 9 9 9 9 8 8 8 8 8 8 9 9 9 9 9 8 9 10 10 10 10 10 10 10
10 10 10 9 9 9 9 9 9 9 9 8 8 8 8 8 8 9 9 9 9 9 9 8 8 8 8 8 8 9 9 9 9 9 9 9 9 9 9 9 9 10
9 9 9 9 9 9 9 9 9 9 9 9 8 8 8 8 8 8 9 9 9 9 8 8 8 8 8 8 8 8 8 8 8 9 9 9 9 9 9 9 9 9
9 9 9 9 9 9 9 9 9 9 9 8 8 8 8 8 8 8 8 8 8 8 8 8 8 8 7 8 8 8 8 8 8 8 8 9 9 9 9 9 9 9
9 9 9 9 9 9 9 9 8 8 8 8 8 8 8 8 8 8 8 8 8 8 8 8 8 7 7 7 7 7 8 8 8 8 8 8 8 9 9 9 9 9
9 9 9 9 9 9 8 8 8 8 8 8 8 8 8 8 8 8 8 8 8 8 8 7 7 7 7 7 7 7 7 7 8 8 8 8 8 9 9 9 9 9
9 9 9 9 8 8 8 8 8 8 8 8 8 8 8 8 8 8 8 8 8 8 7 7 7 6 6 6 7 7 7 7 7 8 8 8 8 9 9 9 9 9
9 8 8 8 8 8 8 8 8 8 8 8 8 8 8 8 8 7 7 8 7 7 7 6 6 6 5 5 6 6 6 7 7 7 8 8 8 8 9 8 8 8
9 8 8 8 8 8 8 8 8 8 8 7 7 7 8 8 7 7 7 7 7 7 6 6 5 5 4 4 5 5 6 7 7 7 7 8 8 8 8 8 8 8
8 8 8 8 8 8 8 7 7 7 7 7 7 7 7 7 7 7 7 7 7 7 6 5 5 4 3 3 4 4 5 7 7 7 7 7 8 8 8 7 7 7
8 8 8 8 8 8 7 7 7 7 7 7 7 7 7 7 7 7 7 7 7 6 6 5 4 3 3 3 3 3 4 6 7 7 7 7 8 8 7 6 6 6
8 8 8 8 8 8 7 7 7 7 7 7 7 7 6 6 6 7 7 7 7 6 6 5 3 3 4 4 4 3 4 6 7 7 7 7 7 7 6 6 6 6
9 8 8 8 8 8 7 7 7 7 7 7 6 6 6 6 6 6 6 7 7 6 6 5 3 3 5 5 5 4 4 5 7 7 7 7 7 6 6 6 6 6
8 8 8 8 8 8 7 7 7 7 7 6 6 6 6 6 6 6 6 6 6 6 6 4 3 4 5 5 5 5 4 5 6 7 7 7 7 6 6 6 6 5
8 8 7 7 8 7 7 7 7 7 7 6 6 6 6 6 6 6 6 6 6 6 6 4 3 4 5 5 5 5 4 5 6 7 7 7 6 6 5 5 5 5
8 8 8 8 8 7 7 7 7 7 7 7 6 6 6 6 6 6 6 6 6 6 6 4 3 4 5 5 5 5 5 5 6 6 6 6 6 6 5 5 5 4
8 8 8 8 8 7 7 7 7 7 7 7 7 6 6 6 6 5 5 5 5 5 6 5 3 3 4 5 5 5 5 6 6 6 6 6 6 6 6 5 5 4
9 8 8 8 8 7 7 7 7 7 7 7 7 6 6 6 6 6 5 5 5 5 6 5 4 3 4 4 5 5 5 6 6 6 6 6 6 6 6 5 5 4
9 8 8 8 8 8 7 7 7 7 7 7 7 7 7 6 6 6 5 5 5 5 5 5 4 3 3 4 4 4 5 5 6 6 6 6 7 6 6 6 5 4
9 8 8 8 8 7 7 7 7 7 7 7 7 7 7 7 7 6 6 5 5 4 5 5 5 3 3 3 3 4 4 5 6 6 6 6 7 6 6 6 5 5
8 8 8 8 7 7 7 7 7 7 7 7 7 7 7 7 7 7 6 5 5 4 4 4 4 3 3 3 3 3 4 4 5 5 6 7 7 7 6 6 5 5
8 8 8 8 7 7 7 7 7 7 7 7 8 8 7 7 7 7 6 6 5 5 4 4 4 3 3 3 3 3 3 3 4 4 5 6 7 6 6 6 6 6

ECMWFNIL_925_temp_105.txt.gz
Temp
14 14 14 14 13 13 13 13 13 13 12 12 12 11 11 10 10 11 11 12 12 12 12 12 12 11 12 12 12 12 12 12 12 11 12 13 13 12 12 12 12 12
13 13 13 13 12 13 12 12 12 12 11 11 11 11 10 10 11 11 12 12 12 11 11 11 11 11 11 11 11 12 12 12 11 11 12 13 13 12 12 12 12 12
12 12 12 12 12 12 12 12 11 11 11 11 11 10 10 11 11 12 11 12 11 11 11 11 11 11 11 11 11 11 11 11 11 11 11 12 12 12 12 12 12 12
12 11 11 11 11 12 12 11 11 11 11 10 11 11 11 11 12 12 11 11 11 11 11 11 11 11 11 11 11 11 11 11 11 11 11 12 12 12 11 11 11 11
11 11 11 11 11 11 11 11 11 10 10 10 11 11 11 11 11 11 11 11 11 11 11 11 11 10 11 11 11 11 11 11 11 11 11 11 11 11 11 11 11 11
11 11 11 11 11 11 11 11 11 11 11 11 11 11 11 11 11 11 11 11 11 11 11 11 11 10 10 11 11 11 11 11 11 11 11 11 11 11 11 11 11 11
11 11 11 11 11 11 11 11 11 11 11 11 11 11 11 11 11 11 11 11 11 11 11 11 10 10 10 10 10 10 10 10 10 11 11 11 11 11 11 11 11 11
11 11 11 11 11 11 11 11 11 11 11 11 11 11 11 11 11 11 11 11 11 11 10 10 10 10 10 10 10 10 10 10 10 10 10 10 11 11 11 11 11 11
11 11 11 11 11 11 11 11 11 11 11 11 11 11 10 10 10 10 10 11 10 10 10 10 10 9 9 9 9 9 10 10 10 10 10 10 11 11 11 11 11 11
11 11 11 11 11 10 10 10 10 11 11 11 11 11 10 10 10 10 10 10 10 10 10 9 9 9 9 9 9 9 9 10 10 10 10 10 10 10 10 10 10 10
11 11 11 10 10 10 10 10 10 10 10 10 10 10 10 10 10 10 10 10 10 9 9 9 8 8 8 8 8 8 9 9 10 9 10 10 10 10 10 10 10 10
11 11 10 10 10 10 10 10 10 10 10 10 10 10 10 10 10 10 10 10 9 9 8 8 7 7 7 6 7 8 8 9 10 9 10 10 10 10 9 9 9 9
11 10 10 10 10 10 10 10 10 10 10 10 10 10 10 10 10 9 9 9 9 8 8 7 6 6 6 6 5 6 8 9 9 9 10 10 9 9 9 9 9 8
11 10 10 10 10 10 10 10 10 10 10 9 9 9 10 10 10 10 9 9 9 8 7 6 5 5 6 6 5 5 7 9 10 9 9 9 9 9 9 9 9 8
10 10 10 10 10 10 10 10 9 9 9 9 9 9 9 9 9 10 9 9 8 8 7 6 5 5 5 5 5 4 5 8 9 9 9 9 9 9 9 9 8 8
11 10 10 10 10 10 10 9 9 9 9 9 9 9 9 9 9 9 9 9 8 8 7 6 5 5 5 5 5 5 5 6 8 9 9 9 9 8 8 8 8 8
11 11 11 10 10 10 10 9 9 9 9 8 8 8 8 9 9 9 9 9 8 7 6 5 5 5 6 6 6 6 6 6 8 9 9 8 8 8 8 8 8 7
11 11 10 10 10 9 9 9 8 8 8 8 8 8 8 8 8 8 8 8 8 7 6 5 5 5 6 6 6 6 6 7 8 8 9 8 8 8 8 8 7 6
11 10 10 9 9 8 8 8 8 8 8 8 8 8 8 8 8 8 8 8 8 7 6 5 5 5 6 6 6 6 7 7 8 8 8 8 8 8 8 8 7 6
10 10 9 9 9 9 9 9 9 9 9 8 8 8 8 8 8 8 8 8 8 7 6 5 4 5 6 6 6 6 7 7 8 8 8 8 8 8 8 8 7 6
11 10 10 10 10 9 9 9 9 9 9 9 9 9 8 8 8 7 7 7 8 8 6 5 4 5 6 6 6 7 7 8 8 8 8 8 8 8 8 8 7 6
11 10 10 10 10 10 9 9 9 9 9 9 9 9 9 8 8 8 7 7 7 8 7 5 4 4 5 5 6 6 7 8 8 8 8 9 8 8 9 8 7 6
11 11 10 10 10 10 10 9 9 9 9 9 9 9 9 8 8 8 7 7 7 7 7 5 4 4 4 5 5 6 6 7 8 8 8 9 9 8 9 8 7 6
11 11 10 10 10 10 9 9 9 9 9 9 9 9 9 9 9 8 7 7 6 6 6 6 4 4 4 4 4 5 6 6 7 7 8 9 9 8 9 8 7 7
11 11 10 10 10 10 9 9 9 10 10 10 10 10 10 9 9 8 8 7 7 6 6 6 5 5 4 4 4 4 5 6 6 7 7 8 8 9 9 8 8 7
10 10 10 10 10 9 9 9 10 10 10 10 10 10 10 9 9 9 8 8 7 7 6 6 6 5 5 4 4 4 4 5 5 6 6 6 8 9 9 8 8 7

ECMWFNIL_925_temp_108.txt.gz
Temp
14 14 14 14 13 13 13 13 13 12 12 12 11 11 11 12 12 12 12 12 12 11 11 11 11 12 12 12 12 12 12 12 11 12 12 12 12 12 12 12 12 12
13 13 13 13 13 12 12 12 12 12 11 11 11 11 12 12 12 12 12 12 11 11 11 11 11 11 11 12 12 12 12 12 11 11 12 12 12 12 12 11 11 11
12 12 12 13 12 12 11 11 11 11 11 11 11 12 12 12 12 12 12 12 11 11 11 11 11 11 11 11 11 11 12 11 11 11 12 11 11 11 11 11 11 11
12 12 12 12 12 11 11 11 11 11 11 11 12 12 12 12 12 12 12 12 11 11 11 11 11 11 11 11 11 11 11 11 11 11 11 11 11 11 11 11 11 11
11 12 12 12 11 11 11 11 11 11 12 12 12 12 12 12 12 12 12 11 11 11 11 11 11 11 11 11 11 11 11 11 11 11 11 11 11 11 11 11 11 11
12 12 12 12 12 12 11 11 12 12 12 12 11 12 12 12 12 12 11 11 11 11 11 11 10 10 10 10 10 10 10 10 11 11 11 11 11 11 11 11 11 11
12 12 12 12 12 12 12 12 12 12 11 11 11 11 11 11 11 11 11 11 11 11 10 10 10 10 10 10 10 10 10 10 10 10 11 11 11 11 11 10 11 10
12 12 12 12 12 12 12 11 11 11 11 11 11 11 11 11 11 11 11 11 10 10 10 9 9 9 9 9 10 10 10 10 10 10 10 10 10 10 10 10 10 9
12 12 12 12 12 11 11 11 11 11 11 11 11 11 11 11 11 11 11 10 10 9 9 9 8 8 8 9 9 9 10 10 10 10 10 10 10 10 10 9 9 9
11 11 11 11 11 11 11 11 11 11 11 11 11 11 11 11 11 10 10 10 9 9 8 8 7 7 7 8 8 9 10 10 10 10 10 10 10 9 9 9 9 8
11 11 11 11 11 11 11 11 11 11 11 11 11 11 11 11 11 10 10 9 9 8 8 7 7 7 7 7 8 8 9 10 10 10 10 10 9 9 9 9 9 8
11 11 11 11 11 11 11 11 11 11 11 11 11 10 10 10 10 10 9 9 8 7 7 7 7 7 7 7 7 8 9 9 10 10 9 9 9 9 9 9 9 8
11 11 11 11 11 11 11 11 11 10 10 10 11 10 10 10 10 9 9 8 8 7 6 7 7 7 7 7 7 8 8 9 9 9 9 9 9 9 9 9 8 8
11 11 11 11 10 10 10 10 10 10 10 10 10 10 10 10 10 9 9 8 7 7 6 6 6 6 7 7 7 7 8 8 9 9 9 9 9 9 8 8 8 7
11 11 11 10 10 10 10 10 10 10 10 10 10 10 10 10 10 9 9 8 7 6 6 6 6 6 6 6 7 7 8 8 8 9 9 9 8 8 8 8 7 7
11 11 11 10 10 10 10 10 10 10 9 9 9 9 9 10 9 9 8 8 7 6 5 5 6 6 6 6 6 7 8 8 8 9 9 9 8 8 8 8 7 7
11 11 11 10 10 10 10 9 9 9 9 9 9 9 9 9 9 9 8 7 6 6 5 5 6 6 6 7 7 7 8 8 8 8 9 9 8 8 8 8 7 7
11 11 11 10 10 9 9 9 9 8 8 8 8 8 9 9 9 8 8 7 7 6 6 6 6 6 7 7 7 7 8 8 8 8 9 9 8 8 8 8 7 7
11 10 10 9 9 9 9 9 9 9 8 8 8 8 8 8 8 8 8 8 7 6 6 6 6 6 7 7 7 7 8 8 8 8 9 9 9 9 8 8 7 7
10 10 9 9 9 9 9 9 9 9 9 9 9 8 8 8 8 8 8 8 7 6 6 6 6 6 7 7 7 8 8 8 8 8 9 9 9 9 9 8 7 6
10 10 10 10 10 10 10 9 9 9 9 9 9 9 8 8 8 8 8 8 7 7 6 6 6 6 7 7 7 7 8 8 8 8 9 9 9 9 8 8 7 6
11 11 10 10 10 10 10 10 9 9 9 9 9 9 8 8 8 7 8 8 7 7 7 6 6 6 6 7 7 7 7 8 8 8 8 9 9 9 8 8 7 6
11 11 11 10 10 10 10 10 10 10 9 9 9 9 8 8 8 7 7 7 7 7 6 6 6 6 6 6 6 6 7 7 7 7 7 8 8 8 8 8 7 7
11 11 11 10 10 10 10 10 10 10 10 10 9 9 9 8 8 7 7 7 7 6 6 6 6 6 6 6 6 6 6 6 6 6 6 7 7 8 8 8 7 7
11 11 11 10 10 10 10 10 10 10 10 10 10 10 9 9 8 8 7 7 7 6 7 6 6 6 6 6 5 5 5 5 5 5 5 6 6 7 8 8 8 7
11 11 10 10 10 10 10 10 10 10 10 10 10 10 10 9 9 8 8 8 7 7 7 7 6 6 6 6 5 5 5 5 5 5 5 5 5 6 7 8 7 7

ECMWFNIL_925_temp_111.txt.gz
Temp
15 15 14 14 14 13 13 13 12 12 11 11 12 12 11 12 12 11 11 11 11 11 11 11 11 11 11 11 11 11 11 11 11 11 11 11 11 11 11 11 11 11
14 14 14 13 13 13 13 12 12 11 11 12 12 11 11 12 11 11 11 11 11 11 11 11 11 11 11 11 11 11 11 11 11 11 11 11 11 11 11 11 10 10
13 13 13 13 13 12 12 12 11 11 12 12 12 11 11 11 11 11 11 11 11 11 11 11 10 10 10 10 10 10 11 11 11 11 11 11 10 11 11 10 9 9
13 13 12 12 12 12 11 11 11 11 12 12 12 12 11 11 11 11 11 11 10 10 10 10 10 10 10 10 10 10 10 10 11 11 10 10 10 10 10 9 8 8
12 12 12 11 11 11 11 11 11 11 11 11 12 12 11 11 11 11 11 10 10 10 10 10 10 10 10 10 10 10 10 10 10 10 10 10 10 9 9 8 8 7
12 12 11 11 11 11 11 11 11 11 11 11 11 11 11 11 11 10 10 10 9 9 9 9 9 10 10 10 10 10 10 10 10 10 10 9 9 9 8 8 7 7
12 12 11 11 11 11 11 11 11 11 11 11 11 11 11 11 10 10 10 9 9 9 9 9 9 9 10 10 10 10 10 10 10 10 9 9 9 9 8 8 7 7
12 12 11 11 11 11 11 11 11 11 11 11 11 11 11 10 10 9 9 9 9 9 9 9 9 9 9 9 9 10 10 10 9 9 9 9 9 8 8 7 7 6
12 12 12 11 11 11 11 11 11 11 11 11 11 10 10 10 9 9 9 9 9 9 9 9 9 9 9 9 9 9 9 9 9 9 9 9 9 8 8 7 7 6
12 12 11 11 11 11 11 11 11 11 11 11 11 10 10 9 9 9 9 9 9 9 9 9 9 9 9 9 9 9 9 9 9 9 9 9 8 8 7 7 6 6
11 11 11 11 11 11 11 11 11 11 11 11 10 10 9 9 9 9 9 9 9 9 8 8 8 8 9 9 9 9 9 9 9 9 8 8 8 7 7 7 6 6
11 11 11 11 11 11 11 11 11 10 10 10 10 9 9 9 8 8 8 8 8 8 8 8 8 8 8 8 8 9 9 9 9 8 8 8 8 7 7 7 6 6
11 11 11 11 11 11 11 11 10 10 10 10 10 9 9 8 8 8 8 8 8 8 8 7 7 8 8 8 8 8 8 8 8 8 8 8 8 7 7 7 6 6
11 11 11 10 10 10 10 10 10 10 10 10 10 9 8 8 8 8 8 8 8 8 8 7 7 8 8 8 8 8 8 8 8 8 8 8 8 7 7 7 6 6
10 10 10 10 10 10 10 10 10 10 10 10 9 9 8 8 8 8 8 8 7 7 8 8 7 7 7 8 8 8 8 8 8 8 8 8 8 7 7 7 7 6
10 10 10 10 10 10 10 10 10 10 10 9 9 9 8 8 8 8 8 7 7 7 7 7 7 7 7 7 8 8 8 8 8 8 8 8 8 7 7 7 6 6
10 10 10 10 9 9 9 9 9 9 9 9 9 8 8 8 8 7 7 7 7 7 7 7 6 6 7 7 8 8 8 8 8 8 8 8 8 7 7 7 6 6
10 10 10 9 9 9 9 9 9 9 9 9 9 8 8 8 7 7 7 7 7 7 6 6 6 7 7 7 8 8 8 8 8 8 8 8 8 7 7 7 6 6
10 10 9 9 9 9 8 8 8 8 8 8 8 8 8 8 7 7 7 7 7 7 6 6 6 7 7 7 8 8 8 8 8 8 8 8 8 7 7 7 7 6
9 9 9 9 8 8 8 8 8 8 8 8 8 8 8 7 7 7 7 7 7 7 6 6 6 7 7 7 8 8 8 8 8 8 8 8 8 8 8 7 7 6
9 9 9 9 9 8 8 8 8 8 8 8 8 8 8 7 7 7 7 7 7 6 6 6 6 7 7 7 7 7 7 7 7 8 8 7 7 7 7 7 7 7
9 9 9 9 9 9 9 9 9 8 8 8 8 7 7 7 7 7 7 7 6 6 6 6 6 7 7 7 7 7 7 7 7 7 7 7 7 6 6 7 7 7
9 9 9 9 9 9 9 9 9 9 8 8 8 7 7 7 7 7 6 7 6 6 6 6 6 6 7 7 6 6 6 6 7 7 7 7 7 6 6 6 7 6
10 10 9 9 9 9 9 9 9 9 8 8 8 7 7 7 7 7 7 7 7 6 6 6 6 6 6 6 6 6 6 6 6 6 7 7 7 6 6 6 6 6
10 10 10 9 9 9 9 9 9 9 9 9 8 8 8 8 7 7 7 7 7 7 7 6 6 6 6 6 5 5 5 5 5 6 6 6 6 6 6 6 6 6
10 10 10 9 9 9 9 9 9 9 9 9 8 8 8 8 8 8 7 7 7 7 7 6 6 6 6 6 5 5 5 5 5 5 5 6 6 6 6 6 6 6

ECMWFNIL_925_temp_114.txt.gz
Temp
15 15 15 14 13 13 13 13 13 13 12 12 12 11 11 11 11 11 11 11 11 11 11 11 11 11 11 11 11 11 11 10 10 10 10 9 9 9 8 8 8 7
15 14 14 14 13 13 13 13 13 13 12 12 12 11 11 11 11 11 11 11 11 11 11 11 10 11 11 11 10 10 10 10 10 10 9 9 9 8 8 7 7 7
14 14 14 13 13 13 13 13 13 12 12 12 11 11 11 11 11 10 10 10 10 10 10 10 10 10 10 10 10 10 10 10 10 9 9 8 8 8 7 7 6 6
13 13 13 13 12 13 13 12 12 12 12 11 11 11 11 11 10 10 10 10 10 10 10 10 10 10 10 10 10 10 10 9 9 9 8 8 8 7 7 7 6 6
13 13 12 12 12 12 12 12 12 12 11 11 11 11 11 10 10 10 10 10 10 10 10 10 10 10 10 10 10 9 9 9 9 9 8 7 7 7 7 6 6 5
12 12 12 12 12 12 12 12 12 11 11 11 11 11 10 10 10 10 10 10 10 10 9 9 9 9 9 9 9 9 9 9 9 8 8 7 7 7 6 6 6 5
12 12 12 12 12 12 12 11 11 11 11 11 10 10 10 10 10 10 10 9 9 9 9 9 9 9 9 9 9 9 9 9 8 8 7 7 7 6 6 6 6 5
12 12 11 11 11 11 11 11 11 11 11 10 10 10 10 10 9 9 9 9 9 9 9 9 9 9 9 9 9 9 9 8 8 8 7 7 7 6 6 6 6 5
11 11 11 11 11 11 11 11 11 11 10 10 10 9 9 9 9 9 9 9 9 9 9 9 9 9 9 9 9 9 8 8 8 8 7 7 7 6 6 6 6 5
11 11 11 11 11 11 11 11 10 10 10 10 9 9 9 9 9 9 10 10 9 9 9 9 9 9 9 9 9 8 8 8 8 8 7 7 7 6 6 6 6 5
11 11 11 11 11 11 11 10 10 10 10 9 9 9 9 9 9 9 10 10 9 8 8 9 9 9 9 8 8 8 8 8 8 8 7 7 7 6 6 6 6 6
11 11 11 11 11 11 10 10 10 10 9 9 9 9 9 9 9 9 9 9 9 8 8 8 8 8 8 8 8 8 8 8 7 7 7 7 7 6 6 6 6 6
11 11 11 11 11 11 10 10 10 9 9 9 9 9 9 9 9 9 9 9 8 8 8 8 8 8 8 8 8 8 8 8 7 7 7 7 7 6 6 6 6 6
11 11 11 11 10 10 10 10 9 9 9 9 9 9 9 9 9 9 9 8 8 8 8 8 8 8 8 8 8 8 8 8 7 7 7 7 7 6 6 6 6 6
11 11 11 10 10 10 10 10 9 9 9 9 9 9 8 8 8 9 9 8 8 7 7 8 8 8 8 8 8 8 8 8 8 7 7 7 7 6 6 6 6 6
10 10 10 10 10 10 10 9 9 9 9 8 8 8 8 8 8 8 8 8 8 7 7 8 8 8 8 8 8 8 8 8 8 7 7 7 7 6 6 6 6 6
10 10 10 10 10 10 10 9 9 9 8 8 8 8 8 8 8 8 8 8 8 7 7 7 7 7 8 8 8 8 8 8 8 7 7 7 7 7 6 6 6 6
10 10 10 10 10 9 9 9 9 8 8 8 8 8 7 8 8 8 8 8 8 7 7 7 7 7 7 7 8 8 8 8 8 7 7 7 7 6 6 6 6 6
10 10 10 10 9 9 9 9 9 8 8 8 8 7 7 7 7 7 7 7 8 7 7 7 7 7 7 7 8 8 8 8 8 7 7 7 7 6 6 6 6 6
9 9 9 9 9 9 9 9 8 8 8 8 7 7 7 7 7 7 7 7 7 7 7 7 7 7 7 7 7 7 7 7 7 7 7 7 6 6 6 6 6 6
9 9 9 9 9 9 9 8 8 8 8 8 7 7 7 7 7 7 7 7 7 7 7 7 6 6 7 7 7 7 7 7 7 7 7 6 6 6 6 6 6 6
9 9 9 9 9 9 8 8 8 8 7 7 7 7 7 7 7 6 6 6 6 7 7 6 6 6 7 7 7 7 7 7 7 7 6 6 6 6 6 6 6 6
9 9 9 8 8 8 8 8 8 8 7 7 7 7 7 7 7 7 6 6 6 6 7 6 6 6 6 6 6 6 7 7 7 6 6 6 6 6 6 6 6 6
9 9 8 8 8 8 8 8 8 8 7 7 7 7 7 7 7 7 6 6 6 6 6 6 6 6 6 6 6 6 6 6 6 6 6 6 6 6 6 6 6 6
9 9 8 8 8 8 8 8 7 7 7 7 7 7 7 7 7 7 6 6 6 6 6 6 6 6 6 6 5 5 6 6 6 7 7 6 7 7 7 7 7 7
9 8 8 8 8 8 8 8 8 7 7 7 7 7 7 7 7 7 6 6 6 6 6 6 6 6 6 5 5 5 5 6 6 6 6 6 6 7 7 7 7 7

ECMWFNIL_925_temp_120.txt.gz
Temp
14 14 15 15 14 14 14 13 13 13 12 12 12 12 11 11 11 11 11 11 11 11 11 10 10 10 10 10 9 9 9 8 8 8 8 7 7 7 7 7 7 7
14 14 15 15 14 14 13 13 13 12 12 12 12 11 11 11 11 11 11 11 11 10 10 10 10 10 9 9 9 9 8 8 8 8 8 7 7 7 7 7 7 7
14 15 15 14 14 13 13 12 12 12 12 12 11 11 11 11 11 11 11 10 10 10 10 10 10 9 9 9 9 8 8 8 7 7 7 7 7 7 6 6 6 6
14 14 14 14 13 13 12 12 12 12 12 12 11 11 11 10 10 10 10 10 10 10 10 10 9 9 9 9 8 8 8 7 7 7 7 6 7 6 6 6 6 6
14 14 14 13 13 12 12 12 12 11 12 12 11 11 10 10 10 10 10 10 10 10 9 9 9 9 9 8 8 8 7 7 7 7 7 6 6 6 6 6 6 5
14 13 13 13 12 12 12 12 11 11 11 11 11 11 10 10 10 10 10 10 10 9 9 9 9 8 8 8 8 7 7 7 7 7 7 6 6 6 6 6 5 5
13 13 12 12 12 12 12 11 11 11 11 11 11 10 10 10 10 10 10 9 9 9 9 9 8 8 8 8 7 7 7 7 7 6 6 6 6 6 5 5 5 5
12 12 12 11 11 11 11 11 11 11 11 11 10 10 10 10 10 10 9 9 9 9 9 8 8 8 8 7 7 7 7 7 6 6 6 6 6 6 5 5 5 5
12 11 11 11 11 11 11 11 11 11 11 11 10 10 10 10 9 9 9 9 9 9 9 8 8 8 8 7 7 7 7 6 6 6 6 6 6 6 6 6 6 5
12 11 11 11 11 11 11 11 10 10 10 10 10 10 9 9 9 9 9 9 9 9 8 8 8 8 7 7 7 7 7 6 6 6 6 6 6 6 6 6 6 6
11 11 10 11 11 11 10 10 10 10 10 10 10 9 9 9 9 9 9 9 9 9 8 8 8 7 7 7 7 7 6 6 6 6 6 6 6 6 6 6 6 6
11 10 10 10 10 10 10 10 10 10 10 10 10 9 9 8 9 9 9 9 9 8 8 8 8 7 7 7 7 7 6 6 6 6 6 6 6 6 6 6 6 6
11 10 10 10 10 10 10 10 10 10 10 10 10 9 9 8 8 9 9 9 8 8 8 8 8 7 7 7 7 7 6 6 6 6 6 6 6 6 6 6 6 6
10 10 10 10 10 10 10 10 10 10 10 10 10 9 8 8 8 8 8 8 8 8 8 8 7 7 7 7 7 7 7 6 6 6 6 6 6 6 6 6 6 6
10 10 10 10 10 10 10 9 10 10 9 9 9 9 8 8 8 8 8 8 8 8 8 8 7 7 7 7 7 7 7 7 6 6 6 6 6 6 6 6 6 6
9 9 9 9 9 9 9 9 9 9 9 9 9 8 8 7 8 8 8 8 8 8 8 7 7 7 7 7 7 7 7 7 6 6 6 6 6 6 6 6 6 6
9 9 9 9 9 9 9 9 9 9 9 9 9 8 7 7 7 7 8 8 8 8 7 7 7 7 7 7 7 7 7 7 6 6 6 6 6 6 6 6 6 6
9 9 9 9 9 9 9 9 9 9 9 9 8 8 7 7 7 7 7 8 8 8 7 7 7 7 7 7 7 7 7 7 6 6 6 6 6 6 6 6 6 6
9 9 9 9 9 9 9 9 9 8 8 8 8 7 7 7 7 7 7 7 7 7 7 7 7 7 7 7 7 7 7 7 7 6 6 6 6 6 6 6 6 6
9 9 9 9 9 9 8 8 8 7 8 8 8 7 7 6 7 7 7 7 7 7 7 7 7 7 7 7 7 7 7 7 7 7 6 6 6 6 6 6 6 6
9 9 9 9 8 8 8 8 7 7 7 8 8 7 7 6 6 7 7 7 7 7 7 7 7 7 7 7 7 7 7 7 7 7 6 6 6 6 6 6 6 6
9 9 9 8 8 7 7 7 7 7 8 8 7 7 6 6 6 6 6 7 7 7 7 7 7 7 7 7 7 7 7 7 7 7 7 6 6 6 6 6 6 6
9 9 8 7 7 7 7 7 7 7 7 7 7 7 6 6 6 6 6 6 6 6 7 7 6 6 6 7 7 7 7 7 7 7 6 6 6 6 6 6 6 6
9 9 8 8 7 7 7 7 7 7 7 7 7 7 7 6 6 6 6 6 6 6 6 7 6 6 6 6 6 6 6 6 7 7 6 6 6 6 6 6 6 6
8 9 8 8 7 7 7 7 7 7 7 7 7 7 7 6 6 6 6 6 6 6 6 7 7 6 6 6 6 6 6 6 6 6 6 6 6 6 6 6 7 7
9 9 8 8 7 7 7 7 7 7 7 7 7 7 7 6 6 6 6 6 6 6 6 6 6 6 6 6 5 5 6 6 6 6 6 6 6 6 6 7 7 7

ECMWFNIL_925_temp_123.txt.gz
Temp
15 15 15 14 14 15 15 15 15 14 14 14 13 13 12 12 12 12 11 11 11 11 11 10 10 10 10 10 10 10 9 9 9 8 8 8 8 7 7 7 6 6
15 14 14 14 14 14 15 15 14 14 13 13 13 13 12 12 11 11 11 11 11 11 10 10 10 10 10 9 10 9 9 8 8 8 8 7 7 7 7 7 7 6
14 14 14 14 14 14 14 14 14 13 13 13 13 13 12 11 11 11 11 11 10 10 10 10 10 9 9 9 9 9 8 8 7 7 7 7 7 7 7 7 7 6
14 14 14 14 14 14 14 13 13 13 13 12 12 12 12 11 11 11 11 10 10 10 9 9 9 9 9 9 9 8 8 7 7 7 7 6 6 6 6 7 6 6
13 14 14 14 14 14 13 13 13 12 12 12 12 12 11 11 11 11 10 10 10 9 9 9 9 9 9 8 8 8 7 7 7 6 6 6 6 6 6 6 6 5
13 13 13 13 13 13 13 13 12 12 12 12 12 12 11 11 11 10 10 10 9 9 9 9 9 8 8 8 8 7 7 6 6 6 6 6 6 6 6 5 5 5
13 13 13 13 13 13 13 12 12 12 12 12 12 11 11 11 10 10 10 9 9 9 9 9 8 8 8 8 7 7 6 6 6 6 6 6 6 6 5 5 5 5
13 12 12 12 12 12 12 12 11 11 11 11 11 11 11 10 10 10 10 9 9 9 9 8 8 8 8 7 7 6 6 6 6 6 6 6 5 5 5 5 5 6
12 12 12 12 12 12 12 11 11 11 11 11 11 11 10 10 10 10 9 9 9 9 8 8 8 8 7 7 6 6 6 6 6 6 6 6 6 6 6 6 6 6
11 11 11 12 12 11 11 11 11 11 11 11 11 10 10 10 10 9 9 9 9 8 8 8 7 7 7 7 6 6 6 6 6 6 6 6 6 6 6 6 6 6
11 11 11 11 11 11 11 10 11 11 11 11 11 10 10 10 9 9 9 9 8 8 8 7 7 7 7 6 6 6 6 6 6 6 6 6 6 6 6 6 6 6
10 11 11 11 11 11 10 10 11 11 11 11 10 10 10 9 9 9 9 9 8 8 7 7 7 7 7 6 6 6 6 6 6 6 6 6 6 6 6 6 6 6
11 11 11 11 11 10 10 10 11 11 10 10 10 10 9 9 9 9 9 9 8 8 7 7 7 7 7 6 6 6 6 6 6 6 6 6 6 6 6 6 6 6
11 11 11 11 10 10 10 10 10 10 10 10 10 9 9 9 9 9 9 8 8 8 7 7 7 7 7 7 6 6 6 6 6 6 6 6 6 6 6 6 6 6
10 10 10 10 10 10 10 10 10 10 10 10 9 9 9 9 9 9 8 8 8 8 7 7 7 7 7 7 6 6 6 6 6 6 6 6 6 6 6 6 6 6
10 10 10 10 10 10 10 10 10 10 10 9 9 8 8 8 8 8 8 8 8 8 7 7 7 7 7 7 7 6 6 6 6 6 6 6 6 6 6 6 6 6
10 10 10 9 10 10 10 10 10 10 9 9 8 8 8 8 8 8 8 8 8 8 7 7 7 7 7 7 7 7 6 6 6 6 6 6 6 6 6 6 6 6
10 9 9 9 9 10 10 10 9 9 9 9 8 8 8 8 8 8 8 8 8 8 7 7 7 7 7 7 7 7 6 6 6 6 6 6 6 6 6 6 6 6
10 9 9 9 9 10 10 9 9 9 9 8 8 8 8 8 8 8 8 8 8 8 7 7 7 7 7 7 7 6 6 6 6 6 6 6 6 6 6 6 6 6
10 10 9 9 9 9 9 9 9 9 8 8 8 7 7 7 7 8 8 8 8 7 7 7 7 7 7 7 7 7 6 6 6 6 6 6 6 6 6 6 6 6
10 10 9 9 9 9 9 9 9 8 8 8 8 8 7 7 7 7 7 7 8 7 7 7 7 7 7 7 7 7 7 6 6 6 6 6 6 6 6 6 6 6
10 9 9 9 9 9 9 8 8 8 7 7 7 7 7 6 7 7 7 7 7 7 7 7 7 7 7 7 7 7 7 7 6 6 6 6 6 6 6 6 6 6
9 9 9 9 9 8 8 8 7 7 7 7 6 6 6 6 7 7 7 7 7 7 7 7 7 7 7 7 7 7 7 7 6 7 6 6 6 6 6 6 7 6
9 9 9 9 8 8 8 7 7 7 7 7 7 6 6 6 7 7 7 7 7 7 7 7 7 7 7 7 7 7 7 7 7 7 6 6 6 6 6 6 7 7
9 9 9 8 8 8 8 7 7 7 7 7 7 7 6 6 6 6 6 7 7 7 7 7 7 7 6 6 7 7 7 7 7 7 7 6 6 7 6 6 7 7
9 9 9 8 8 8 8 8 7 7 7 6 6 6 6 6 6 6 6 6 6 6 6 6 6 6 6 6 6 6 6 6 7 7 7 6 7 7 7 7 7 7